[[{"header":{"parameterUnit":"m.s-1","parameterCategory":1,"la1":31.0,"la2":29.5877,"lo1":-88.7671,"lo2":-86.6584,"dy":0.0162,"dx":0.0185,"nx":115,"ny":88,"refTime":"2026-03-05T12:00:00:Z","depth":0,"parameterNumber":2,"parameterNumberName":"U-component_of_WINDS"},"data":[0.0,0.0,0.0,0.0,0.0,0.0,0.0,0.0,0.0,0.0,0.0,0.0,0.0,0.0,0.0,0.0,0.0,0.0,0.0,0.0,0.0,0.0,0.0,0.0,0.0,0.0,0.0,0.0,0.0,0.0,0.0,0.0,0.0,0.0,0.0,0.0,0.0,0.0,0.0,0.0,0.0,0.0,0.0,0.0,0.0,0.0,0.0,0.0,0.0,0.0,0.0,0.0,0.0,0.0,0.0,0.0,0.0,0.0,0.0,0.0,0.0,0.0,0.0,0.0,0.0,0.0,0.0,0.0,0.0,0.0,0.0,0.0,0.0,0.0,0.0,0.0,0.0,0.0,0.0,0.0,0.0,0.0,0.0,0.0,0.0,0.0,0.0,0.0,0.0,0.0,0.0,0.0,0.0,0.0,0.0,0.0,0.0,0.0,0.0,0.0,0.0,0.0,0.0,0.0,0.0,0.0,0.0,0.0,0.0,0.0,0.0,0.0,0.0,0.0,0.0,0.0,0.0,0.0,0.0,0.0,0.0,0.0,0.0,0.0,0.0,0.0,0.0,0.0,0.0,0.0,0.0,0.0,0.0,0.0,0.0,0.0,0.0,0.0,0.0,0.0,0.0,0.0,0.0,0.0,0.0,0.0,0.0,0.0,0.0,0.0,0.0,0.0,0.0,0.0,0.0,0.0,0.0,0.0,0.0,0.0,0.0,0.0,0.0,0.0,0.0,0.0,0.0,0.0,0.0,0.0,0.0,0.0,0.0,0.0,0.0,0.0,0.0,0.0,0.0,0.0,0.0,0.0,0.0,0.0,0.0,0.0,0.0,0.0,0.0,0.0,0.0,0.0,0.0,0.0,0.0,0.0,0.0,0.0,0.0,0.0,0.0,0.0,0.0,0.0,0.0,0.0,0.0,0.0,0.0,0.0,0.0,0.0,0.0,0.0,0.0,0.0,0.0,0.0,0.0,0.0,0.0,0.0,0.0,0.0,0.0,0.0,0.0,0.0,0.0,0.0,0.0,0.0,0.0,0.0,0.0,0.0,0.0,0.0,0.0,0.0,0.0,0.0,0.0,0.0,0.0,0.0,0.0,0.0,0.0,0.0,0.0,0.0,0.0,0.0,0.0,0.0,0.0,0.0,0.0,0.0,0.0,0.0,0.0,0.0,0.0,0.0,0.0,0.0,0.0,0.0,0.0,0.0,0.0,0.0,0.0,0.0,0.0,0.0,0.0,0.0,0.0,0.0,0.0,0.0,0.0,0.0,0.0,0.0,0.0,0.0,0.0,0.0,0.0,0.0,0.0,0.0,0.0,0.0,0.0,0.0,0.0,0.0,0.0,0.0,0.0,0.0,0.0,0.0,0.0,0.0,0.0,0.0,0.0,0.0,0.0,0.0,0.0,0.0,0.0,0.0,0.0,0.0,0.0,0.0,0.0,0.0,0.0,0.0,0.0,0.0,0.0,0.0,0.0,0.0,0.0,0.0,0.0,0.0,0.0,0.0,0.0,0.0,0.0,0.0,0.0,0.0,0.0,0.0,0.0,0.0,0.0,0.0,0.0,0.0,0.0,0.0,0.0,0.0,0.0,0.0,0.0,0.0,0.0,0.0,0.0,0.0,0.0,0.0,0.0,0.0,0.0,0.0,0.0,0.0,0.0,0.0,0.0,0.0,0.0,0.0,0.0,0.0,0.0,0.0,0.0,0.0,0.0,0.0,0.0,0.0,0.0,0.0,0.0,0.0,0.0,0.0,0.0,0.0,0.0,0.0,0.0,0.0,0.0,0.0,0.0,0.0,0.0,0.0,0.0,0.0,0.0,0.0,0.0,0.0,0.0,0.0,0.0,0.0,0.0,0.0,0.0,0.0,0.0,0.0,0.0,0.0,0.0,0.0,0.0,0.0,0.0,0.0,0.0,0.0,0.0,0.0,0.0,0.0,0.0,0.0,0.0,0.0,0.0,0.0,0.0,0.0,0.0,0.0,0.0,0.0,0.0,0.0,0.0,0.0,0.0,0.0,0.0,0.0,0.0,0.0,0.0,0.0,0.0,0.0,0.0,0.0,0.0,0.0,0.0,0.0,0.0,0.0,0.0,0.0,0.0,0.0,0.0,0.0,0.0,0.0,0.0,0.0,0.0,0.0,0.0,0.0,0.0,0.0,0.0,0.0,0.0,0.0,0.0,0.0,0.0,0.0,0.0,0.0,0.0,0.0,0.0,0.0,0.0,0.0,0.0,0.0,0.0,0.0,0.0,0.0,0.0,0.0,0.0,0.0,0.0,0.0,0.0,0.0,0.0,0.0,0.0,0.0,0.0,0.0,0.0,0.0,0.0,0.0,0.0,0.0,0.0,0.0,0.0,0.0,0.0,0.0,0.0,0.0,0.0,0.0,0.0,0.0,0.0,0.0,0.0,0.0,0.0,0.0,0.0,0.0,0.0,0.0,0.0,0.0,0.0,0.0,0.0,0.0,0.0,0.0,0.0,0.0,0.0,0.0,0.0,0.0,0.0,0.0,0.0,0.0,0.0,0.0,0.0,0.0,0.0,0.0,0.0,0.0,0.0,0.0,0.0,0.0,0.0,0.0,0.0,0.0,0.0,0.0,0.0,0.0,0.0,0.0,0.0,0.0,0.0,0.0,0.0,0.0,0.0,0.0,0.0,0.0,0.0,0.0,0.0,0.0,0.0,0.0,0.0,0.0,0.0,0.0,0.0,0.0,0.0,0.0,0.0,0.0,0.0,0.0,0.0,0.0,0.0,0.0,0.0,0.0,0.0,0.0,0.0,0.0,0.0,0.0,0.0,0.0,0.0,0.0,0.0,0.0,0.0,0.0,0.0,0.0,0.0,0.0,0.0,0.0,0.0,0.0,0.0,0.0,0.0,0.0,0.0,0.0,0.0,0.0,0.0,0.0,0.0,0.0,0.0,0.0,0.0,0.0,0.0,0.0,0.0,0.0,0.0,0.0,0.0,0.0,0.0,0.0,0.0,0.0,0.0,0.0,0.0,0.0,0.0,0.0,0.0,0.0,0.0,0.0,0.0,0.0,0.0,0.0,0.0,0.0,0.0,0.0,0.0,0.0,0.0,0.0,0.0,0.0,0.0,0.0,0.0,0.0,0.0,0.0,0.0,0.0,0.0,0.0,0.0,0.0,0.0,0.0,0.0,0.0,0.0,0.0,0.0,0.0,0.0,0.0,0.0,0.0,0.0,0.0,0.0,0.0,0.0,0.0,0.0,0.0,0.0,0.0,0.0,0.0,0.0,0.0,0.0,0.0,0.0,0.0,0.0,0.0,0.0,0.0,0.0,0.0,0.0,0.0,0.0,0.0,0.0,0.0,0.0,0.0,0.0,0.0,0.0,0.0,0.0,0.0,0.0,0.0,0.0,0.0,0.0,0.0,0.0,0.0,0.0,0.0,0.0,0.0,0.0,0.0,0.0,0.0,0.0,0.0,0.0,0.0,0.0,0.0,0.0,0.0,0.0,0.0,0.0,0.0,0.0,0.0,0.0,0.0,0.0,0.0,0.0,0.0,0.0,0.0,0.0,0.0,0.0,0.0,0.0,0.0,0.0,0.0,0.0,0.0,0.0,0.0,0.0,0.0,0.0,0.0,0.0,0.0,0.0,0.0,0.0,0.0,0.0,0.0,0.0,0.0,0.0,0.0,0.0,0.0,0.0,0.0,0.0,0.0,0.0,0.0,0.0,0.0,0.0,0.0,0.0,0.0,0.0,0.0,0.0,0.0,0.0,0.0,0.0,0.0,0.0,0.0,0.0,0.0,0.0,0.0,0.0,0.0,0.0,0.0,0.0,0.0,0.0,0.0,0.0,0.0,0.0,0.0,0.0,0.0,0.0,0.0,0.0,0.0,0.0,0.0,0.0,0.0,0.0,0.0,0.0,0.0,0.0,0.0,0.0,0.0,0.0,0.0,0.0,0.0,0.0,0.0,0.0,0.0,0.0,0.0,0.0,0.0,0.0,0.0,0.0,0.0,0.0,0.0,0.0,0.0,0.0,0.0,0.0,0.0,0.0,0.0,0.0,0.0,0.0,0.0,0.0,0.0,0.0,0.0,0.0,0.0,0.0,0.0,0.0,0.0,0.0,0.0,0.0,0.0,0.0,0.0,0.0,0.0,0.0,0.0,0.0,0.0,0.0,0.0,0.0,0.0,0.0,0.0,0.0,0.0,0.0,0.0,0.0,0.0,0.0,0.0,0.0,0.0,0.0,0.0,0.0,0.0,0.0,0.0,0.0,0.0,0.0,0.0,0.0,0.0,-5.9161,0.0,0.0,0.0,0.0,0.0,0.0,0.0,0.0,0.0,0.0,0.0,0.0,0.0,0.0,0.0,0.0,0.0,0.0,0.0,0.0,0.0,0.0,0.0,0.0,0.0,0.0,0.0,0.0,0.0,0.0,0.0,0.0,0.0,0.0,0.0,0.0,0.0,0.0,0.0,0.0,0.0,0.0,0.0,0.0,0.0,0.0,0.0,0.0,0.0,0.0,0.0,0.0,0.0,0.0,0.0,0.0,0.0,0.0,0.0,0.0,0.0,0.0,0.0,0.0,0.0,0.0,0.0,0.0,0.0,0.0,0.0,0.0,0.0,0.0,0.0,0.0,0.0,0.0,0.0,0.0,0.0,0.0,0.0,0.0,0.0,0.0,0.0,0.0,0.0,0.0,0.0,0.0,0.0,0.0,0.0,0.0,0.0,0.0,0.0,0.0,0.0,0.0,0.0,0.0,0.0,0.0,0.0,0.0,0.0,0.0,-6.1549,-6.1599,-6.1296,-6.0464,-5.915,0.0,0.0,0.0,0.0,0.0,0.0,0.0,0.0,0.0,0.0,0.0,0.0,0.0,0.0,0.0,0.0,0.0,0.0,0.0,0.0,0.0,0.0,0.0,0.0,0.0,0.0,0.0,0.0,0.0,0.0,0.0,0.0,0.0,0.0,0.0,0.0,0.0,0.0,0.0,0.0,0.0,0.0,0.0,0.0,0.0,0.0,0.0,0.0,0.0,0.0,0.0,0.0,0.0,0.0,0.0,0.0,0.0,0.0,0.0,0.0,0.0,0.0,0.0,0.0,0.0,0.0,0.0,0.0,0.0,0.0,0.0,0.0,0.0,0.0,0.0,0.0,0.0,0.0,0.0,0.0,0.0,0.0,0.0,0.0,0.0,0.0,0.0,0.0,0.0,0.0,0.0,0.0,0.0,0.0,0.0,0.0,0.0,0.0,0.0,0.0,0.0,0.0,0.0,0.0,0.0,0.0,0.0,0.0,0.0,0.0,0.0,0.0,-6.1658,-6.0873,-5.9141,0.0,0.0,0.0,0.0,0.0,0.0,0.0,0.0,0.0,0.0,0.0,0.0,0.0,0.0,0.0,0.0,0.0,0.0,0.0,0.0,0.0,0.0,0.0,0.0,0.0,0.0,0.0,0.0,0.0,0.0,0.0,0.0,0.0,0.0,0.0,0.0,0.0,0.0,0.0,0.0,0.0,0.0,0.0,0.0,0.0,0.0,0.0,0.0,0.0,0.0,0.0,0.0,0.0,0.0,0.0,0.0,0.0,0.0,0.0,0.0,0.0,0.0,0.0,0.0,0.0,0.0,0.0,0.0,0.0,0.0,0.0,0.0,0.0,0.0,0.0,0.0,0.0,0.0,0.0,0.0,0.0,0.0,0.0,0.0,0.0,0.0,0.0,0.0,0.0,0.0,0.0,0.0,0.0,0.0,0.0,0.0,0.0,0.0,0.0,0.0,0.0,0.0,0.0,0.0,0.0,0.0,0.0,0.0,0.0,0.0,-6.1453,-6.1602,-6.1612,0.0,-5.91,0.0,0.0,0.0,0.0,0.0,0.0,0.0,0.0,0.0,0.0,0.0,0.0,0.0,0.0,0.0,0.0,0.0,0.0,0.0,0.0,0.0,0.0,0.0,0.0,0.0,0.0,0.0,0.0,0.0,0.0,0.0,0.0,0.0,0.0,0.0,0.0,0.0,0.0,0.0,0.0,0.0,0.0,0.0,0.0,0.0,0.0,0.0,0.0,0.0,0.0,0.0,0.0,0.0,0.0,0.0,0.0,0.0,0.0,0.0,0.0,0.0,0.0,0.0,0.0,0.0,0.0,0.0,0.0,0.0,0.0,0.0,0.0,0.0,0.0,0.0,0.0,0.0,0.0,0.0,0.0,0.0,0.0,0.0,0.0,0.0,0.0,0.0,0.0,0.0,0.0,0.0,0.0,0.0,0.0,0.0,0.0,0.0,0.0,0.0,0.0,0.0,0.0,0.0,0.0,0.0,0.0,0.0,0.0,0.0,0.0,-6.1388,-6.146,-6.056,-5.9486,0.0,0.0,0.0,0.0,0.0,0.0,0.0,0.0,0.0,0.0,0.0,0.0,0.0,0.0,0.0,0.0,0.0,0.0,0.0,0.0,0.0,0.0,0.0,0.0,0.0,0.0,0.0,0.0,0.0,0.0,0.0,0.0,0.0,0.0,0.0,0.0,0.0,0.0,0.0,0.0,0.0,0.0,0.0,0.0,0.0,0.0,0.0,0.0,0.0,0.0,0.0,0.0,0.0,0.0,0.0,0.0,0.0,0.0,0.0,0.0,0.0,0.0,0.0,0.0,0.0,0.0,0.0,0.0,0.0,0.0,0.0,0.0,0.0,0.0,0.0,0.0,0.0,0.0,0.0,0.0,0.0,0.0,0.0,0.0,0.0,0.0,0.0,0.0,0.0,0.0,0.0,0.0,0.0,0.0,0.0,0.0,0.0,0.0,0.0,0.0,0.0,0.0,0.0,0.0,0.0,0.0,0.0,0.0,0.0,0.0,-6.1242,-6.1198,-6.0992,-5.9699,-5.8593,-5.7728,0.0,0.0,0.0,0.0,0.0,0.0,0.0,0.0,0.0,0.0,0.0,0.0,0.0,0.0,0.0,0.0,0.0,0.0,0.0,0.0,0.0,0.0,0.0,0.0,0.0,0.0,0.0,0.0,0.0,0.0,0.0,0.0,0.0,0.0,0.0,0.0,0.0,0.0,0.0,0.0,0.0,0.0,0.0,0.0,0.0,0.0,0.0,0.0,0.0,0.0,0.0,0.0,0.0,0.0,0.0,0.0,0.0,0.0,0.0,0.0,0.0,0.0,0.0,0.0,0.0,0.0,0.0,0.0,0.0,0.0,0.0,0.0,0.0,0.0,0.0,0.0,0.0,0.0,0.0,0.0,0.0,0.0,0.0,0.0,0.0,0.0,0.0,0.0,0.0,0.0,0.0,0.0,0.0,0.0,0.0,0.0,0.0,0.0,0.0,0.0,0.0,0.0,0.0,0.0,0.0,0.0,0.0,0.0,-6.1118,-6.1173,-6.0871,-6.0176,-5.9347,-5.8504,0.0,0.0,0.0,0.0,0.0,0.0,0.0,0.0,0.0,0.0,0.0,0.0,0.0,0.0,0.0,0.0,0.0,0.0,0.0,0.0,0.0,0.0,0.0,0.0,0.0,0.0,0.0,0.0,0.0,0.0,0.0,0.0,0.0,0.0,0.0,0.0,0.0,0.0,0.0,0.0,0.0,0.0,0.0,0.0,0.0,0.0,0.0,0.0,0.0,0.0,0.0,0.0,0.0,0.0,0.0,0.0,0.0,0.0,0.0,0.0,0.0,0.0,0.0,0.0,0.0,0.0,0.0,0.0,0.0,0.0,0.0,0.0,0.0,0.0,0.0,0.0,0.0,0.0,0.0,0.0,0.0,0.0,0.0,0.0,0.0,0.0,0.0,0.0,0.0,0.0,0.0,0.0,0.0,0.0,0.0,0.0,0.0,0.0,0.0,0.0,0.0,0.0,0.0,0.0,0.0,0.0,0.0,0.0,0.0,-6.1032,-6.1146,-6.0566,-5.925,-5.8972,-5.8201,0.0,0.0,0.0,0.0,0.0,0.0,0.0,0.0,0.0,0.0,0.0,0.0,0.0,0.0,0.0,0.0,0.0,0.0,0.0,0.0,0.0,0.0,0.0,0.0,0.0,0.0,0.0,0.0,0.0,0.0,0.0,0.0,0.0,0.0,0.0,0.0,0.0,0.0,0.0,0.0,0.0,0.0,0.0,0.0,0.0,0.0,0.0,0.0,0.0,0.0,0.0,0.0,0.0,0.0,0.0,0.0,0.0,0.0,0.0,0.0,0.0,0.0,0.0,0.0,0.0,0.0,0.0,0.0,0.0,0.0,0.0,0.0,0.0,0.0,0.0,0.0,0.0,0.0,0.0,0.0,0.0,0.0,0.0,0.0,0.0,0.0,0.0,0.0,0.0,0.0,0.0,0.0,0.0,0.0,0.0,0.0,0.0,0.0,0.0,0.0,0.0,0.0,0.0,0.0,0.0,0.0,0.0,0.0,0.0,-6.101,0.0,-6.0369,-5.8776,-5.8738,-5.8005,0.0,0.0,0.0,0.0,0.0,0.0,0.0,0.0,0.0,0.0,0.0,0.0,0.0,0.0,0.0,0.0,0.0,0.0,0.0,0.0,0.0,0.0,0.0,0.0,0.0,0.0,0.0,0.0,0.0,0.0,0.0,0.0,0.0,0.0,0.0,0.0,0.0,0.0,0.0,0.0,0.0,0.0,0.0,0.0,0.0,0.0,0.0,0.0,0.0,0.0,0.0,0.0,0.0,0.0,0.0,0.0,0.0,0.0,0.0,0.0,0.0,0.0,0.0,0.0,0.0,0.0,0.0,0.0,0.0,0.0,0.0,0.0,0.0,0.0,0.0,0.0,0.0,0.0,0.0,0.0,0.0,0.0,0.0,0.0,0.0,0.0,0.0,0.0,0.0,0.0,0.0,0.0,0.0,0.0,0.0,0.0,0.0,0.0,0.0,0.0,0.0,0.0,0.0,0.0,0.0,0.0,0.0,0.0,-6.0933,-6.0987,-6.106,-6.0296,-5.8672,-5.8651,-5.7924,0.0,0.0,0.0,0.0,0.0,0.0,0.0,0.0,0.0,0.0,0.0,0.0,0.0,0.0,0.0,0.0,0.0,0.0,0.0,0.0,0.0,0.0,0.0,0.0,0.0,0.0,0.0,0.0,0.0,0.0,0.0,0.0,0.0,0.0,0.0,0.0,0.0,0.0,0.0,0.0,0.0,0.0,0.0,0.0,0.0,0.0,0.0,0.0,0.0,0.0,0.0,0.0,0.0,0.0,0.0,0.0,0.0,0.0,0.0,0.0,0.0,0.0,0.0,0.0,0.0,0.0,0.0,0.0,0.0,0.0,0.0,0.0,0.0,0.0,0.0,0.0,0.0,0.0,0.0,0.0,0.0,0.0,0.0,0.0,0.0,0.0,0.0,0.0,0.0,0.0,0.0,0.0,0.0,0.0,0.0,0.0,0.0,0.0,0.0,0.0,0.0,0.0,0.0,0.0,0.0,0.0,0.0,0.0,0.0,-6.0933,-6.1008,-6.019,-5.8568,-5.8595,-5.7826,0.0,0.0,0.0,0.0,0.0,0.0,0.0,0.0,0.0,0.0,0.0,0.0,0.0,0.0,0.0,0.0,0.0,0.0,0.0,0.0,0.0,0.0,0.0,0.0,0.0,0.0,0.0,0.0,0.0,0.0,0.0,0.0,0.0,0.0,0.0,0.0,0.0,0.0,0.0,0.0,0.0,0.0,0.0,0.0,0.0,0.0,0.0,0.0,0.0,0.0,0.0,0.0,0.0,0.0,0.0,0.0,0.0,0.0,0.0,0.0,0.0,0.0,0.0,0.0,0.0,0.0,0.0,0.0,0.0,0.0,0.0,0.0,0.0,0.0,0.0,0.0,0.0,0.0,0.0,0.0,0.0,0.0,0.0,0.0,0.0,0.0,0.0,0.0,0.0,0.0,0.0,0.0,0.0,0.0,0.0,0.0,0.0,0.0,0.0,0.0,0.0,0.0,0.0,0.0,0.0,0.0,0.0,0.0,0.0,-6.0808,-6.0911,-6.031,-5.8883,-5.8655,-5.7882,-5.6462,0.0,0.0,0.0,0.0,0.0,0.0,0.0,0.0,0.0,0.0,0.0,0.0,0.0,0.0,0.0,0.0,0.0,0.0,0.0,0.0,0.0,0.0,0.0,0.0,0.0,0.0,0.0,0.0,0.0,0.0,0.0,0.0,0.0,0.0,0.0,0.0,0.0,0.0,0.0,0.0,0.0,0.0,0.0,0.0,0.0,0.0,0.0,0.0,0.0,0.0,0.0,0.0,0.0,0.0,0.0,0.0,0.0,0.0,0.0,0.0,0.0,0.0,0.0,0.0,0.0,0.0,0.0,0.0,0.0,0.0,0.0,0.0,0.0,0.0,0.0,0.0,0.0,0.0,0.0,0.0,0.0,0.0,0.0,0.0,0.0,0.0,0.0,0.0,0.0,0.0,0.0,0.0,0.0,0.0,0.0,0.0,0.0,0.0,0.0,0.0,0.0,0.0,0.0,0.0,0.0,0.0,0.0,0.0,-6.0623,-6.0808,-6.0476,-5.959,-5.8796,-5.8016,0.0,0.0,0.0,0.0,0.0,0.0,0.0,0.0,0.0,0.0,0.0,0.0,0.0,0.0,0.0,0.0,0.0,0.0,0.0,0.0,0.0,0.0,0.0,0.0,0.0,0.0,0.0,0.0,0.0,0.0,0.0,0.0,0.0,0.0,0.0,0.0,0.0,0.0,0.0,0.0,0.0,0.0,0.0,0.0,0.0,0.0,0.0,0.0,0.0,0.0,0.0,0.0,0.0,0.0,0.0,0.0,0.0,0.0,0.0,0.0,0.0,0.0,0.0,0.0,0.0,0.0,0.0,0.0,0.0,0.0,0.0,0.0,0.0,0.0,0.0,0.0,0.0,0.0,0.0,0.0,0.0,0.0,0.0,0.0,0.0,0.0,0.0,0.0,0.0,0.0,0.0,0.0,0.0,0.0,0.0,0.0,0.0,0.0,0.0,0.0,0.0,0.0,0.0,0.0,0.0,0.0,0.0,0.0,0.0,-6.0623,-6.0674,-6.0301,-5.9465,-5.8721,-5.7955,0.0,0.0,0.0,0.0,0.0,0.0,0.0,0.0,0.0,0.0,0.0,0.0,0.0,0.0,0.0,0.0,0.0,0.0,0.0,0.0,0.0,0.0,0.0,0.0,0.0,0.0,0.0,0.0,0.0,0.0,0.0,0.0,0.0,0.0,0.0,0.0,0.0,0.0,0.0,0.0,0.0,0.0,0.0,0.0,0.0,0.0,0.0,0.0,0.0,0.0,0.0,0.0,0.0,0.0,0.0,0.0,0.0,0.0,0.0,0.0,0.0,0.0,0.0,0.0,0.0,0.0,0.0,0.0,0.0,0.0,0.0,0.0,0.0,0.0,0.0,0.0,0.0,0.0,0.0,0.0,0.0,0.0,0.0,0.0,0.0,0.0,0.0,0.0,0.0,0.0,0.0,0.0,0.0,0.0,0.0,0.0,0.0,0.0,0.0,0.0,0.0,0.0,0.0,0.0,0.0,0.0,0.0,0.0,-6.0551,-6.0933,-6.0657,-6.0443,-6.0329,-5.9302,-5.8373,0.0,0.0,0.0,0.0,0.0,0.0,0.0,0.0,0.0,0.0,0.0,0.0,0.0,0.0,0.0,0.0,0.0,0.0,0.0,0.0,0.0,0.0,0.0,0.0,0.0,0.0,0.0,0.0,0.0,0.0,0.0,0.0,0.0,0.0,0.0,0.0,0.0,0.0,0.0,0.0,0.0,0.0,0.0,0.0,0.0,0.0,0.0,0.0,0.0,0.0,0.0,0.0,0.0,0.0,0.0,0.0,0.0,0.0,0.0,0.0,0.0,0.0,0.0,0.0,0.0,0.0,0.0,0.0,0.0,0.0,0.0,0.0,0.0,0.0,0.0,0.0,0.0,0.0,0.0,0.0,0.0,0.0,0.0,0.0,0.0,0.0,0.0,0.0,0.0,0.0,0.0,0.0,0.0,0.0,0.0,0.0,0.0,0.0,0.0,0.0,0.0,0.0,0.0,0.0,0.0,0.0,0.0,0.0,-6.0487,-6.1377,-6.0728,-6.0724,-6.1488,-6.011,-5.8948,0.0,0.0,0.0,0.0,0.0,0.0,0.0,0.0,0.0,0.0,0.0,0.0,0.0,0.0,0.0,0.0,0.0,0.0,0.0,0.0,0.0,0.0,0.0,0.0,0.0,0.0,0.0,0.0,0.0,0.0,0.0,0.0,0.0,0.0,0.0,0.0,0.0,0.0,0.0,0.0,0.0,0.0,0.0,0.0,0.0,0.0,0.0,0.0,0.0,0.0,0.0,0.0,0.0,0.0,0.0,0.0,0.0,0.0,0.0,0.0,0.0,0.0,0.0,0.0,0.0,0.0,0.0,0.0,0.0,0.0,0.0,0.0,0.0,0.0,0.0,0.0,0.0,0.0,0.0,0.0,0.0,0.0,0.0,0.0,0.0,0.0,0.0,0.0,0.0,0.0,0.0,0.0,0.0,0.0,0.0,0.0,0.0,0.0,0.0,0.0,0.0,0.0,0.0,0.0,0.0,0.0,0.0,0.0,-6.0399,-6.1261,-6.0494,-6.0502,-6.1401,-6.0056,-5.8936,0.0,0.0,0.0,0.0,0.0,0.0,0.0,0.0,0.0,0.0,0.0,0.0,0.0,0.0,0.0,0.0,0.0,0.0,0.0,0.0,0.0,0.0,0.0,0.0,0.0,0.0,0.0,0.0,0.0,0.0,0.0,0.0,0.0,0.0,0.0,0.0,0.0,0.0,0.0,0.0,0.0,0.0,0.0,0.0,0.0,0.0,0.0,0.0,-5.5088,0.0,0.0,0.0,0.0,0.0,0.0,0.0,0.0,0.0,0.0,0.0,0.0,0.0,0.0,0.0,0.0,0.0,0.0,0.0,0.0,0.0,0.0,0.0,0.0,0.0,0.0,0.0,0.0,0.0,0.0,0.0,0.0,0.0,0.0,0.0,0.0,0.0,0.0,0.0,0.0,0.0,0.0,0.0,0.0,0.0,0.0,0.0,0.0,0.0,0.0,0.0,0.0,0.0,0.0,0.0,0.0,0.0,0.0,0.0,-6.0324,-6.151,-6.0459,-6.0487,-6.1674,-6.0387,-5.9109,0.0,0.0,0.0,0.0,0.0,0.0,0.0,0.0,0.0,0.0,0.0,0.0,0.0,0.0,0.0,0.0,0.0,0.0,0.0,0.0,0.0,0.0,0.0,0.0,0.0,0.0,0.0,0.0,0.0,0.0,0.0,0.0,0.0,0.0,0.0,0.0,0.0,0.0,0.0,0.0,0.0,0.0,0.0,0.0,0.0,0.0,0.0,0.0,0.0,0.0,0.0,0.0,0.0,0.0,0.0,0.0,0.0,0.0,0.0,0.0,0.0,0.0,0.0,0.0,0.0,0.0,0.0,0.0,0.0,0.0,0.0,0.0,0.0,0.0,0.0,0.0,0.0,0.0,0.0,0.0,0.0,0.0,0.0,0.0,0.0,0.0,0.0,0.0,0.0,0.0,0.0,0.0,0.0,0.0,0.0,0.0,0.0,0.0,0.0,0.0,0.0,0.0,0.0,0.0,0.0,0.0,0.0,-5.837,-6.0003,-6.1544,-6.0335,-6.0385,-6.1876,-6.0497,-5.9095,-5.7739,0.0,0.0,0.0,0.0,0.0,0.0,0.0,0.0,0.0,0.0,0.0,0.0,0.0,0.0,0.0,0.0,0.0,0.0,0.0,0.0,0.0,0.0,0.0,0.0,0.0,0.0,0.0,0.0,0.0,0.0,0.0,0.0,0.0,0.0,0.0,0.0,0.0,0.0,-5.3958,-5.4271,0.0,0.0,0.0,0.0,0.0,0.0,0.0,0.0,-5.4716,0.0,0.0,0.0,0.0,0.0,0.0,0.0,0.0,0.0,0.0,0.0,0.0,0.0,0.0,0.0,0.0,0.0,0.0,0.0,0.0,0.0,0.0,0.0,0.0,0.0,0.0,0.0,0.0,0.0,0.0,0.0,0.0,0.0,0.0,0.0,0.0,0.0,0.0,0.0,0.0,0.0,0.0,0.0,0.0,0.0,0.0,0.0,0.0,0.0,0.0,0.0,0.0,0.0,0.0,0.0,0.0,-5.648,-5.7432,-5.8819,-6.0546,-5.9759,-5.9778,-6.0773,-5.9339,-5.8086,-5.7257,0.0,0.0,0.0,0.0,0.0,0.0,0.0,0.0,0.0,0.0,0.0,0.0,0.0,0.0,0.0,0.0,0.0,0.0,0.0,0.0,0.0,0.0,0.0,0.0,0.0,0.0,0.0,0.0,0.0,0.0,0.0,0.0,0.0,0.0,0.0,0.0,0.0,0.0,0.0,-5.4037,-5.4931,0.0,0.0,0.0,0.0,0.0,0.0,0.0,0.0,-5.4476,0.0,0.0,0.0,0.0,0.0,0.0,0.0,0.0,0.0,0.0,0.0,0.0,0.0,0.0,0.0,0.0,0.0,0.0,0.0,0.0,0.0,0.0,0.0,0.0,0.0,0.0,0.0,0.0,0.0,0.0,0.0,0.0,0.0,0.0,0.0,0.0,0.0,0.0,0.0,0.0,0.0,0.0,0.0,0.0,0.0,0.0,0.0,0.0,0.0,0.0,0.0,0.0,0.0,0.0,0.0,-5.6108,-5.7006,-5.8334,-6.0,-5.9333,-5.9336,-6.0142,-5.8802,-5.7621,0.0,0.0,0.0,0.0,0.0,0.0,0.0,0.0,0.0,0.0,0.0,0.0,0.0,0.0,0.0,0.0,0.0,0.0,0.0,0.0,0.0,0.0,0.0,0.0,0.0,0.0,0.0,0.0,0.0,0.0,0.0,0.0,0.0,0.0,0.0,0.0,0.0,0.0,0.0,0.0,-5.3867,-5.4831,-5.5377,0.0,0.0,0.0,0.0,0.0,0.0,-5.4969,-5.4558,0.0,0.0,0.0,0.0,0.0,0.0,0.0,0.0,0.0,0.0,0.0,0.0,0.0,0.0,0.0,0.0,0.0,0.0,0.0,0.0,0.0,0.0,0.0,0.0,0.0,0.0,0.0,0.0,0.0,0.0,0.0,0.0,0.0,0.0,0.0,0.0,0.0,0.0,0.0,0.0,0.0,0.0,0.0,0.0,0.0,0.0,0.0,0.0,0.0,0.0,0.0,0.0,0.0,0.0,0.0,-5.5739,-5.6546,-5.7719,-5.9294,-5.8863,-5.8794,-5.9223,-5.8057,-5.6927,0.0,0.0,0.0,0.0,0.0,0.0,0.0,0.0,0.0,0.0,0.0,0.0,0.0,0.0,0.0,0.0,0.0,0.0,0.0,0.0,0.0,0.0,0.0,0.0,0.0,0.0,0.0,0.0,0.0,0.0,0.0,0.0,0.0,0.0,0.0,0.0,0.0,0.0,0.0,0.0,0.0,-5.4532,-5.5471,-5.5705,0.0,0.0,0.0,0.0,-5.5178,-5.4845,0.0,0.0,0.0,0.0,0.0,0.0,0.0,0.0,0.0,0.0,0.0,0.0,0.0,0.0,0.0,0.0,0.0,0.0,0.0,0.0,0.0,0.0,0.0,0.0,0.0,0.0,0.0,0.0,0.0,0.0,0.0,0.0,0.0,0.0,0.0,0.0,0.0,0.0,0.0,0.0,0.0,0.0,0.0,0.0,0.0,0.0,0.0,0.0,0.0,0.0,0.0,0.0,0.0,0.0,0.0,0.0,-5.5353,-5.5558,-5.6447,-5.8102,-5.8102,-5.7794,-5.7191,-5.6467,-5.541,0.0,0.0,0.0,0.0,0.0,0.0,0.0,0.0,0.0,0.0,0.0,0.0,0.0,0.0,0.0,0.0,0.0,0.0,0.0,0.0,0.0,0.0,0.0,0.0,0.0,0.0,0.0,0.0,0.0,0.0,0.0,0.0,0.0,0.0,0.0,0.0,0.0,0.0,0.0,0.0,0.0,-5.4173,-5.5149,-5.5268,-5.5359,0.0,0.0,-5.4837,-5.5404,-5.4301,0.0,0.0,0.0,0.0,0.0,0.0,0.0,0.0,0.0,0.0,0.0,0.0,0.0,0.0,0.0,0.0,0.0,0.0,0.0,0.0,0.0,0.0,0.0,0.0,0.0,0.0,0.0,0.0,0.0,0.0,0.0,0.0,0.0,0.0,0.0,0.0,0.0,0.0,0.0,0.0,0.0,0.0,0.0,0.0,0.0,0.0,0.0,0.0,0.0,0.0,0.0,0.0,0.0,0.0,0.0,-5.1958,-5.4295,-5.4841,-5.5665,-5.6806,-5.7316,-5.717,-5.6392,-5.5798,-5.4759,0.0,0.0,0.0,0.0,0.0,0.0,0.0,0.0,0.0,0.0,0.0,0.0,0.0,0.0,0.0,0.0,0.0,0.0,0.0,0.0,0.0,0.0,0.0,0.0,0.0,0.0,0.0,0.0,0.0,0.0,0.0,0.0,0.0,0.0,0.0,0.0,0.0,0.0,0.0,0.0,0.0,0.0,-5.5747,-5.5677,0.0,0.0,0.0,-5.5275,-5.5166,0.0,0.0,0.0,0.0,0.0,0.0,0.0,0.0,0.0,0.0,0.0,0.0,0.0,0.0,0.0,0.0,0.0,0.0,0.0,0.0,0.0,0.0,0.0,0.0,0.0,0.0,0.0,0.0,0.0,0.0,0.0,0.0,0.0,0.0,0.0,0.0,0.0,0.0,0.0,0.0,0.0,0.0,0.0,0.0,0.0,0.0,0.0,0.0,0.0,0.0,0.0,0.0,0.0,0.0,0.0,0.0,0.0,-5.3075,-5.3905,-5.4808,-5.5757,-5.6216,-5.6144,-5.553,-5.4955,0.0,0.0,0.0,0.0,0.0,0.0,0.0,0.0,0.0,0.0,0.0,0.0,0.0,0.0,0.0,0.0,0.0,0.0,0.0,0.0,0.0,0.0,0.0,0.0,0.0,0.0,0.0,-4.6749,0.0,0.0,0.0,0.0,0.0,0.0,0.0,0.0,0.0,0.0,0.0,0.0,0.0,0.0,-5.334,-5.5455,-5.5205,-5.5085,0.0,0.0,-5.5011,-5.4675,-5.3761,-5.3003,0.0,0.0,0.0,0.0,0.0,0.0,0.0,0.0,0.0,0.0,0.0,0.0,0.0,0.0,0.0,0.0,0.0,0.0,0.0,0.0,0.0,0.0,0.0,0.0,0.0,0.0,0.0,0.0,0.0,0.0,0.0,0.0,0.0,0.0,0.0,0.0,0.0,0.0,0.0,0.0,0.0,0.0,0.0,0.0,0.0,0.0,0.0,0.0,0.0,0.0,0.0,0.0,0.0,0.0,-5.0151,-5.1808,-5.2605,-5.3749,-5.5178,-5.4642,-5.4249,-5.4142,-5.3584,-5.2258,0.0,0.0,0.0,0.0,0.0,0.0,0.0,0.0,0.0,0.0,0.0,0.0,0.0,0.0,0.0,0.0,0.0,0.0,0.0,0.0,0.0,0.0,0.0,0.0,0.0,0.0,0.0,0.0,0.0,0.0,0.0,0.0,0.0,0.0,0.0,0.0,0.0,0.0,0.0,0.0,0.0,-5.1705,-5.3301,-5.2905,-5.2802,0.0,-5.33,-5.3129,-5.3937,-5.2819,-5.2044,-5.2748,0.0,0.0,0.0,0.0,0.0,0.0,0.0,0.0,0.0,0.0,0.0,0.0,0.0,0.0,0.0,0.0,0.0,0.0,0.0,0.0,0.0,0.0,0.0,0.0,0.0,0.0,0.0,0.0,0.0,0.0,0.0,0.0,0.0,0.0,0.0,0.0,0.0,0.0,0.0,0.0,0.0,0.0,0.0,0.0,0.0,0.0,0.0,0.0,0.0,0.0,0.0,0.0,0.0,-4.9356,-5.0477,-5.1715,-5.2634,-5.3227,-5.3439,-5.3297,-5.2775,-5.2644,-5.1505,0.0,0.0,0.0,0.0,0.0,0.0,0.0,0.0,0.0,0.0,0.0,0.0,0.0,0.0,0.0,0.0,0.0,0.0,0.0,0.0,0.0,0.0,0.0,0.0,0.0,0.0,0.0,0.0,-4.4314,-4.4196,-4.5338,0.0,0.0,0.0,0.0,0.0,0.0,0.0,0.0,0.0,0.0,-5.1144,-5.3077,-5.2753,0.0,0.0,-5.3443,-5.2909,-5.3246,-5.2094,-5.1229,-5.1547,-5.0388,0.0,0.0,0.0,0.0,0.0,0.0,0.0,0.0,0.0,0.0,0.0,0.0,0.0,0.0,0.0,0.0,0.0,0.0,0.0,0.0,0.0,0.0,0.0,0.0,0.0,0.0,0.0,0.0,0.0,0.0,0.0,0.0,0.0,0.0,0.0,0.0,0.0,0.0,0.0,0.0,0.0,0.0,0.0,0.0,0.0,0.0,0.0,0.0,0.0,0.0,0.0,0.0,-4.8321,-4.909,-5.0347,-5.1284,-5.171,-5.2053,-5.2053,-5.171,-5.143,-5.0417,0.0,0.0,0.0,0.0,0.0,0.0,0.0,0.0,0.0,0.0,0.0,0.0,0.0,0.0,0.0,0.0,0.0,0.0,0.0,0.0,0.0,0.0,0.0,0.0,0.0,0.0,0.0,0.0,-4.3646,-4.3546,-4.4421,0.0,0.0,0.0,0.0,0.0,0.0,0.0,0.0,0.0,0.0,-5.0415,-5.2145,-5.2207,-5.2437,-5.3601,-5.3056,-5.2473,-5.2288,-5.1318,-5.053,-5.053,0.0,0.0,0.0,0.0,0.0,0.0,0.0,0.0,0.0,0.0,0.0,0.0,0.0,0.0,0.0,0.0,0.0,0.0,0.0,0.0,0.0,0.0,0.0,0.0,0.0,0.0,0.0,-4.9402,0.0,0.0,-4.8275,0.0,0.0,0.0,0.0,0.0,0.0,0.0,0.0,0.0,0.0,0.0,0.0,0.0,0.0,0.0,0.0,0.0,0.0,0.0,0.0,0.0,0.0,-4.703,-4.7727,-4.8521,-4.9591,-5.1006,-5.0355,-5.0355,-5.1006,-4.9803,-4.8709,-4.7912,0.0,0.0,0.0,0.0,0.0,0.0,0.0,0.0,0.0,0.0,0.0,0.0,0.0,0.0,0.0,0.0,0.0,0.0,0.0,0.0,0.0,0.0,0.0,0.0,0.0,0.0,-4.3886,-4.365,-4.3374,0.0,0.0,0.0,0.0,0.0,0.0,0.0,0.0,0.0,-4.7155,-4.8192,-4.932,-5.0065,-5.0775,-5.128,-5.1573,-5.1663,-5.1514,-5.0944,-5.0336,-4.9913,0.0,0.0,0.0,0.0,0.0,0.0,0.0,0.0,0.0,0.0,0.0,0.0,0.0,0.0,0.0,0.0,0.0,0.0,0.0,0.0,0.0,0.0,0.0,0.0,0.0,0.0,0.0,-4.8887,-4.8483,0.0,0.0,0.0,0.0,0.0,0.0,0.0,0.0,0.0,0.0,0.0,-4.5443,-4.4854,0.0,0.0,0.0,0.0,0.0,0.0,0.0,0.0,0.0,0.0,0.0,0.0,-4.618,-4.6927,-4.7552,-4.8338,-4.9286,-4.9145,-4.9206,-4.9508,-4.8707,-4.7728,-4.661,0.0,0.0,0.0,0.0,0.0,0.0,0.0,0.0,0.0,0.0,0.0,0.0,0.0,0.0,0.0,0.0,0.0,0.0,0.0,0.0,0.0,0.0,0.0,0.0,0.0,-4.394,0.0,0.0,0.0,0.0,0.0,0.0,0.0,0.0,0.0,0.0,0.0,-4.6602,-4.6246,-4.7454,-4.8624,-4.9325,-4.9625,-4.9992,0.0,0.0,0.0,0.0,0.0,0.0,0.0,0.0,0.0,0.0,0.0,0.0,0.0,0.0,-4.7189,-4.656,-4.6465,-4.6639,-4.7098,0.0,0.0,0.0,0.0,0.0,0.0,0.0,0.0,0.0,0.0,0.0,0.0,0.0,0.0,-4.8754,-4.8327,-4.8064,0.0,0.0,0.0,0.0,0.0,0.0,0.0,0.0,-4.5832,-4.557,-4.531,-4.4756,-4.4237,-4.3749,-4.3327,-4.3279,0.0,0.0,0.0,0.0,0.0,0.0,0.0,0.0,-4.5117,-4.6024,-4.6431,-4.7067,-4.7997,-4.8258,-4.8354,-4.8354,-4.7575,-4.6548,-4.5211,-4.3654,-4.2762,0.0,0.0,0.0,0.0,0.0,0.0,0.0,0.0,0.0,0.0,0.0,0.0,0.0,0.0,0.0,0.0,0.0,0.0,0.0,0.0,0.0,0.0,0.0,-4.3518,0.0,0.0,0.0,0.0,0.0,0.0,0.0,0.0,0.0,-4.471,-4.5287,-4.5561,-4.5435,-4.6717,-4.7802,-4.8296,0.0,0.0,0.0,0.0,0.0,0.0,0.0,-4.8675,-4.8642,-4.8207,-4.7771,-4.7471,-4.7035,-4.6666,-4.6398,0.0,0.0,-4.5917,-4.5912,-4.6103,-4.6591,-4.677,-4.7017,-4.7569,-4.7727,-4.7879,0.0,0.0,0.0,0.0,-5.0995,0.0,0.0,0.0,-4.9022,-4.899,0.0,-4.8181,0.0,0.0,0.0,0.0,-4.6825,-4.662,0.0,0.0,-4.6272,-4.5882,-4.5208,-4.5144,-4.4407,-4.3162,-4.3066,-4.2715,-4.2173,-4.2898,0.0,0.0,0.0,0.0,0.0,0.0,-4.3892,-4.5079,-4.5177,-4.5865,-4.7273,-4.7538,-4.7638,-4.7539,-4.635,-4.5116,-4.3839,-4.304,-4.2478,-4.2085,-4.1312,0.0,0.0,0.0,0.0,0.0,0.0,0.0,0.0,0.0,0.0,0.0,0.0,0.0,0.0,0.0,0.0,0.0,0.0,0.0,0.0,-4.332,0.0,0.0,0.0,0.0,0.0,0.0,0.0,0.0,0.0,0.0,-4.4067,-4.4496,-4.4754,-4.4787,0.0,0.0,0.0,0.0,-4.767,-4.7022,-4.772,-4.8189,-4.7502,-4.7704,-4.7968,-4.7935,0.0,0.0,-4.6943,-4.6777,-4.6579,-4.5853,-4.582,-4.5972,-4.6582,-4.6777,-4.6922,-4.699,-4.7106,-4.7255,-4.729,-4.7426,-4.762,-5.4021,0.0,0.0,0.0,0.0,-5.1264,-5.0532,-4.9642,-4.9642,-4.9069,-4.8115,-4.7925,0.0,0.0,0.0,0.0,0.0,0.0,-4.5515,-4.5515,-4.5332,-4.5096,-4.4909,-4.4257,-4.378,-4.3345,-4.2412,-4.1856,-4.1669,-4.171,-4.2045,-4.268,0.0,0.0,0.0,0.0,-4.3039,-4.3881,-4.4299,-4.4942,-4.5876,-4.6567,-4.6509,-4.5668,-4.4756,-4.3873,-4.299,-4.2299,-4.176,-4.1267,-4.0624,0.0,0.0,0.0,0.0,0.0,0.0,0.0,0.0,0.0,0.0,0.0,0.0,0.0,0.0,0.0,0.0,0.0,0.0,0.0,-4.3514,-4.3293,-4.2987,0.0,0.0,0.0,0.0,0.0,0.0,0.0,0.0,0.0,-4.2836,-4.3671,-4.4311,0.0,0.0,-4.612,-4.612,-4.6279,-4.6343,-4.6152,-4.6599,0.0,-4.6617,-4.6929,-4.7167,-4.6997,-4.6997,-4.6932,-4.6671,-4.6807,-4.6809,-4.6581,-4.6682,-4.6848,-4.698,-4.6635,-4.6572,-4.7127,-4.7413,-4.7673,-4.8176,-4.8372,-4.8561,-5.4576,-5.4259,-5.2785,-5.2028,-5.1746,-5.1496,-5.0903,-5.0153,-5.0153,-4.9528,-4.8497,-4.8247,-4.7965,-4.7723,-4.6966,0.0,0.0,0.0,-4.5132,-4.5025,-4.455,-4.4282,-4.4167,-4.3686,-4.3275,-4.3001,-4.221,-4.1578,-4.1132,-4.1058,-4.1202,-4.1555,0.0,-4.2174,-4.2077,-4.2013,-4.2299,-4.287,-4.3212,-4.3749,-4.4446,-4.5034,-4.4888,-4.4003,-4.3554,-4.2976,-4.2238,-4.1851,-4.1331,-4.0602,-4.0174,-3.9662,0.0,0.0,0.0,0.0,0.0,0.0,0.0,0.0,0.0,0.0,0.0,-4.0191,-3.9677,0.0,0.0,0.0,-4.1361,-4.1979,-4.3103,-4.2896,0.0,0.0,0.0,0.0,0.0,0.0,0.0,-4.172,-4.1574,-4.1707,-4.2252,-4.3012,-4.3716,-4.4261,-4.4919,-4.5321,-4.5321,0.0,-4.5321,-4.5321,-4.5546,-4.5697,-4.5697,-4.5949,-4.6163,-4.6127,-4.6127,-4.6195,-4.6298,-4.6404,-4.6474,-4.6509,-4.6615,-4.6789,-4.6823,-4.6484,-4.6485,-4.7334,-4.7658,-4.7918,-4.8319,-4.8515,-4.8578,-5.4831,-5.4667,-5.3269,-5.2303,-5.1656,-5.1041,-5.0734,-5.0598,-5.0567,-5.0199,-4.9554,-4.8867,-4.8162,-4.7436,-4.6741,0.0,-4.6373,-4.5602,-4.5069,-4.4779,-4.4007,-4.3478,-4.325,-4.325,-4.2921,-4.2315,-4.2294,-4.1683,-4.0671,-4.0764,-4.0588,-4.0161,-4.099,-4.1357,-4.1256,-4.1256,-4.1469,-4.1956,-4.2018,-4.2424,-4.3145,-4.3224,-4.3053,-4.2629,-4.2566,-4.2219,-4.1554,-4.1522,-4.1054,-4.0097,-3.9968,-3.948,-3.8484,0.0,0.0,0.0,0.0,0.0,0.0,0.0,0.0,0.0,0.0,0.0,0.0,0.0,0.0,0.0,-4.0806,0.0,-4.2458,-4.2206,0.0,0.0,0.0,-4.1555,-4.1522,-4.1388,-4.125,-4.1115,0.0,0.0,-4.2181,-4.2568,-4.3069,-4.3655,-4.4172,-4.4496,-4.4526,-4.4496,-4.4496,-4.4496,-4.4655,-4.4737,-4.4774,-4.4962,-4.5147,-4.5295,-4.5295,-4.54,-4.5614,-4.5687,-4.5687,-4.5724,-4.5868,-4.6084,-4.623,-4.6343,-4.6756,-4.7338,-4.7671,-4.7869,-4.7869,-4.7869,-4.7869,-5.4158,-5.3733,-5.3357,-5.3008,-5.2673,-5.252,-5.1714,-5.0637,-5.0607,-5.0109,-4.9297,-4.8605,-4.7641,-4.6515,-4.6209,-4.5753,-4.5233,-4.4918,-4.4507,-4.3979,-4.376,-4.3393,-4.285,-4.285,-4.2761,-4.2613,-4.207,-4.1459,-4.0766,-4.045,-3.9964,-3.9409,-3.9707,-4.0165,-4.0681,-4.0681,-4.0739,-4.089,-4.1418,-4.2041,-4.2721,-4.2262,-4.1992,-4.1872,-4.131,-4.0935,-4.078,-4.0885,-4.0714,-4.0066,-3.966,-3.9155,-3.842,-3.7941,0.0,0.0,0.0,0.0,0.0,0.0,0.0,0.0,0.0,-3.8743,-3.9062,0.0,-3.9507,0.0,-4.1151,-4.166,-4.1819,-4.1621,0.0,0.0,-4.1189,-4.0987,-4.0987,-4.1113,-4.1172,-4.096,-4.1359,-4.1805,-4.2204,-4.2222,-4.2453,-4.3118,-4.3446,-4.3606,-4.3606,-4.3606,-4.3606,-4.3645,-4.3888,-4.412,-4.412,-4.4312,-4.4496,-4.4572,-4.4572,-4.461,-4.4648,-4.4799,-4.4949,-4.5098,-4.5284,-4.5468,-4.5651,-4.5868,-4.6048,-4.6262,-4.6754,-4.7167,-4.7167,-4.7167,-4.7167,-5.3766,-5.3444,-5.3598,-5.3216,-5.2539,-5.2665,-5.2067,-5.0969,-5.0939,-5.0339,-4.9248,-4.8298,-4.7451,-4.6608,-4.6225,-4.577,-4.5286,-4.4893,-4.4485,-4.4019,-4.3494,-4.2986,-4.2553,-4.2262,-4.2117,-4.2117,-4.1727,-4.1168,-4.0412,-4.011,-3.9551,-3.8716,-3.8833,-3.909,-3.9457,-3.9844,-4.0021,-4.0021,-4.0421,-4.0786,-4.1121,-4.0817,-4.0639,-4.0741,-4.0375,-4.0191,-4.0261,-4.0401,-4.0197,-3.9658,-3.911,-3.8556,-3.7966,-3.7342,-3.6997,0.0,0.0,0.0,0.0,0.0,0.0,0.0,0.0,0.0,0.0,0.0,-3.9724,-4.0565,-4.0903,-4.1122,-4.1088,-4.0922,-4.091,-4.1221,-4.0935,-4.0816,-4.1122,-4.1201,-4.1157,-4.1002,-4.146,-4.1846,-4.204,-4.2139,-4.2315,-4.267,-4.2729,-4.2809,-4.301,-4.301,-4.305,-4.305,-4.325,-4.3339,-4.3339,-4.3488,-4.3645,-4.3801,-4.384,-4.3918,-4.4143,-4.4228,-4.4381,-4.4458,-4.4648,-4.4836,-4.4949,-4.521,-4.5395,-4.5468,-4.5796,-4.6191,-4.6474,-4.6512,-4.6545,-5.3424,-5.3395,-5.3571,-5.2975,-5.1954,-5.2147,-5.1826,-5.1248,-5.1258,-5.0533,-4.9222,-4.7972,-4.7294,-4.6995,-4.6353,-4.5927,-4.5673,-4.5107,-4.4684,-4.4305,-4.3141,-4.2453,-4.2224,-4.1596,-4.1311,-4.1354,-4.1311,-4.0739,-3.9671,-3.9642,-3.9129,-3.811,-3.8052,-3.8052,-3.8127,-3.8797,-3.9199,-3.9307,-3.9307,-3.9343,-3.9343,-3.9313,-3.9415,-3.9559,-3.9589,-3.9661,-3.9869,-3.9869,-3.9702,-3.9199,-3.8568,-3.7997,-3.7454,-3.6811,-3.6444,0.0,-3.6352,0.0,0.0,0.0,0.0,0.0,0.0,0.0,0.0,-3.9336,-4.0096,-4.0374,-4.0427,-4.0458,-4.0458,-4.041,-4.0578,-4.1127,-4.0891,-4.0875,-4.1378,-4.1406,-4.1237,-4.0976,-4.1538,-4.1912,-4.1693,-4.2041,-4.231,-4.231,-4.2228,-4.2298,-4.2555,-4.2637,-4.2607,-4.2607,-4.2648,-4.2729,-4.2739,-4.264,-4.2702,-4.3021,-4.2951,-4.3129,-4.3421,-4.3499,-4.3568,-4.3645,-4.383,-4.4037,-4.4106,-4.451,-4.4761,-4.4799,-4.498,-4.5315,-4.5796,-4.5977,-4.6008,-5.2841,-5.2783,-5.2292,-5.2,-5.1741,-5.1276,-5.0846,-5.034,-5.0641,-4.9803,-4.8172,-4.7425,-4.6774,-4.6286,-4.558,-4.5184,-4.5,-4.484,-4.439,-4.3596,-4.2862,-4.2314,-4.1936,-4.1212,-4.0901,-4.1043,-4.0901,-4.0168,-3.8968,-3.8968,-3.8387,-3.724,-3.7211,-3.7289,-3.7481,0.0,0.0,0.0,-3.8833,-3.8907,-3.8943,-3.8877,-3.8943,-3.898,-3.898,0.0,-3.9017,-3.9162,-3.9241,-3.9128,-3.8607,0.0,0.0,0.0,0.0,0.0,0.0,0.0,0.0,0.0,0.0,0.0,-3.8008,-3.8584,-3.8987,-3.9451,-3.9793,-3.9874,-4.0148,-4.0341,-4.0371,-4.0815,-4.1168,-4.1258,-4.1062,-4.0901,-4.0926,-4.1165,-4.1251,-4.0821,-4.1372,-4.1666,-4.1529,-4.1686,-4.1827,-4.1868,-4.198,-4.2133,-4.2187,-4.2228,-4.2257,-4.2257,-4.2263,-4.2485,-4.2648,-4.2206,-4.1852,-4.1942,-4.1568,-4.1409,-4.1525,-4.1495,-4.1581,-4.191,-4.2385,-4.2861,-4.3198,-4.3747,-4.412,-4.4181,-4.4335,-4.4678,-4.5241,-4.5352,-4.5352,-5.1391,-5.1335,-5.0876,-5.0477,0.0,-5.0351,-4.9899,-4.9186,-4.9918,-4.9509,-4.8169,-4.7397,-4.6656,-4.5938,-4.5317,-4.4725,-4.4209,-4.4181,-4.392,-4.3491,-4.2572,-4.206,-4.1814,-4.0805,-4.0402,-4.0488,-3.9994,-3.9297,-3.8367,-3.791,-3.7302,-3.6508,-3.6508,-3.6626,-3.685,-3.6968,-3.7327,-3.8043,-3.8127,-3.8202,-3.8202,-3.8202,-3.8277,-3.8323,-3.8352,0.0,0.0,0.0,0.0,0.0,0.0,0.0,0.0,0.0,0.0,-3.4935,-3.4905,-3.52,-3.5785,-3.5874,-3.6286,-3.7222,-3.7906,-3.8542,-3.9113,-3.9607,-3.9702,-3.9331,-3.9914,-4.0208,-3.9942,-4.0359,-4.0822,-4.1077,-4.0979,-4.0938,-4.1168,-4.1326,-4.1324,-4.1146,-4.1334,-4.1522,-4.1438,-4.148,-4.1535,-4.1535,-4.1647,-4.1657,-4.155,-4.1877,-4.2005,-4.1657,-4.136,-4.1277,-4.1357,-4.1163,-4.0969,-4.1018,-4.0822,-4.0724,-4.0811,-4.0811,-4.0858,-4.108,-4.1385,-4.176,-4.2273,-4.2836,-4.3322,-4.3594,-4.3949,-4.422,-4.4534,-4.4401,-4.4136,-4.9885,-4.9801,-4.9514,-4.9011,-4.8566,-4.9246,-4.8958,-4.8004,-4.9076,0.0,0.0,-4.7331,-4.6544,-4.5783,-4.5073,-4.429,-4.3471,-4.3423,-4.3375,-4.3245,-4.2065,-4.1562,-4.1553,-4.0354,-3.9777,-3.9749,-3.8999,-3.8312,-3.7697,-3.6904,-3.6239,-3.5885,-3.5831,-3.5978,-3.6218,-3.6389,-3.6783,-3.725,-3.7404,-3.751,-3.751,-3.751,-3.7586,-3.772,-3.7749,-3.7825,-3.7976,-3.8014,-3.8052,-3.8052,-3.756,-3.6982,-3.6411,-3.5854,-3.5276,-3.4703,-3.4645,-3.4871,-3.5437,-3.5466,-3.592,-3.7074,-3.7659,-3.8277,-3.887,-3.9439,-3.9445,-3.8825,-3.9691,-4.0061,-3.9615,-4.005,-4.0509,-4.1001,-4.0925,-4.1003,-4.1449,-4.1367,-4.1198,-4.1185,-4.1114,-4.1142,-4.1142,-4.1185,-4.1212,-4.1169,-4.1154,-4.1079,-4.0785,-4.1175,-4.1453,-4.0989,-4.0593,-4.0176,-4.0118,-4.0041,-4.0051,-4.0237,-4.0159,-4.0178,-4.0303,-4.0341,-4.0341,-4.0262,-4.0439,-4.0772,-4.1273,-4.1882,-4.2404,-4.2942,-4.3427,-4.3732,-4.362,-4.335,-4.3015,-4.9473,-4.9166,-4.8639,-4.8335,-4.8224,-4.7834,-4.7557,-4.747,-4.7861,-4.7782,-4.7414,-4.6805,-4.6173,-4.5487,-4.4606,-4.3758,-4.2997,-4.2776,-4.2533,-4.2257,-4.1057,-4.0616,-4.0769,-3.9454,-3.889,-3.8988,-3.8228,-3.7508,-3.6946,-3.6358,-3.5811,-3.5303,-3.5249,-3.5331,-3.5575,-3.575,-3.5871,-3.5991,-3.6705,-3.7056,-3.7056,-3.7095,-3.7095,-3.7134,-3.7134,-3.7134,-3.7173,-3.7327,-3.7433,-3.7404,-3.7501,-3.7272,-3.6671,-3.6527,-3.6213,-3.5575,-3.5518,-3.5703,-3.6125,-3.6145,-3.642,-3.6947,-3.7116,-3.7481,-3.824,-3.8223,-3.837,-3.8765,-3.933,-3.9802,-4.0232,-4.0764,-4.1123,-4.1279,-4.1295,-4.1226,-4.0901,-4.0816,-4.0645,-4.03,-4.017,-4.0185,-4.0244,-4.0503,-4.0534,-4.021,-4.0262,-4.0339,-3.9905,-4.0083,-4.035,-4.0263,-4.0176,-4.0089,-3.9915,-3.9625,-3.9363,-3.9373,-3.8975,-3.8713,-3.8789,-3.8789,-3.8827,-3.8852,-3.9367,-3.9756,-4.0106,-4.1008,-4.1676,-4.2011,-4.2515,-4.2773,-4.2544,-4.2345,-4.2359,-4.7812,-4.7622,-4.7053,-4.6809,-4.6782,-4.6511,-4.6403,-4.6403,-4.648,-4.6665,-4.6714,-4.6209,-4.543,-4.4563,-4.4138,-4.3417,-4.2484,-4.2338,-4.2239,-4.1985,-4.0845,-4.0313,-4.018,-3.8997,-3.8349,-3.827,-3.72,-3.656,-3.6175,-3.5276,-3.4743,-3.4756,-3.4936,-3.5127,-3.5249,-3.5304,-3.5386,-3.5386,-3.5991,-3.631,-3.631,-3.631,-3.635,-3.6429,-3.6468,-3.6508,-3.6654,-3.6772,-3.6811,-3.6811,-3.6889,-3.6648,-3.6031,-3.5975,-3.5723,-3.5097,-3.5041,-3.5255,-3.5795,-3.613,-3.6359,-3.6441,-3.6468,-3.6547,-3.6794,-3.7522,-3.803,-3.8314,-3.8993,-3.9576,-3.9844,-4.0322,-4.0645,-4.0602,-4.0673,-4.0559,-4.0386,-4.03,-4.0257,-4.0012,-3.9719,-3.9498,-3.9526,-3.9393,-3.9284,-3.8992,-3.9071,-3.896,-3.8797,-3.876,-3.8947,-3.9285,-3.9228,-3.9102,-3.9073,-3.887,-3.8667,-3.8667,-3.8405,-3.8231,-3.8202,-3.8202,-3.824,-3.8315,-3.8614,-3.8973,-3.9341,-3.9982,-4.0666,-4.1498,-4.1813,-4.2109,-4.2277,-4.2219,-4.1948,-4.6327,-4.6221,-4.5795,-4.5582,-4.5582,-4.5582,-4.5582,-4.5609,-4.5555,-4.5768,-4.606,-4.5768,-4.4943,-4.3877,-4.3772,-4.3083,-4.2073,-4.1868,-4.1819,-4.1713,-4.0531,-3.986,-3.9611,-3.8536,-3.7821,-3.7508,-3.6315,-3.5727,-3.5554,-3.435,-3.3894,-3.423,-3.4605,-3.4771,-3.4771,-3.4771,-3.4771,-3.4812,-3.51,-3.5345,-3.5548,-3.5548,-3.5629,-3.579,-3.579,-3.5898,-3.6098,-3.6138,-3.6206,-3.6206,-3.6218,-3.5998,-3.5531,-3.5464,-3.5244,-3.4832,-3.4777,-3.497,-3.5398,-3.5824,-3.6018,-3.5831,-3.579,-3.571,-3.5656,-3.6603,-3.7461,-3.7836,-3.8561,-3.9073,-3.9391,-3.9676,-3.9821,-3.9821,-3.9865,-3.9821,-3.9777,-3.9777,-3.9694,-3.9557,-3.9145,-3.887,-3.8666,-3.8392,-3.8159,-3.8062,-3.7739,-3.7658,-3.7772,-3.76,-3.7805,-3.8236,-3.8294,-3.8243,-3.8202,-3.8231,-3.8231,-3.8202,-3.8202,-3.8202,-3.8202,-3.8202,-3.8202,-3.8202,-3.8202,-3.8443,-3.8908,-3.9246,-3.9828,-4.0627,-4.1203,-4.1792,-4.2431,-4.2385,-4.1813,-4.5897,-4.5715,-4.5609,-4.5582,-4.5582,-4.5582,-4.5582,-4.5555,-4.5341,-4.5234,-4.5341,-4.5502,-4.4916,-4.3879,-4.3593,-4.2856,-4.1723,-4.1222,-4.1047,-4.0841,-3.9558,-3.892,-3.8843,-3.7741,-3.7201,-3.7027,-3.5981,-3.5424,-3.5366,-3.4289,-3.3725,-3.3768,-3.381,-3.3827,-3.3852,-3.3852,-3.3852,-3.3827,-3.3852,-3.4314,-3.5127,-3.5168,-3.5168,-3.5168,-3.5208,-3.5208,-3.529,-3.5386,-3.5467,-3.5534,-3.5669,-3.5723,-3.5669,-3.5669,-3.5641,-3.556,-3.556,-3.5561,-3.5427,-3.5304,-3.5249,-3.5208,-3.5208,-3.5141,-3.5127,-3.5303,-3.5992,-3.7121,-3.76,-3.8172,-3.9135,-3.9353,-3.938,-3.938,-3.938,-3.9292,-3.906,-3.8997,-3.8809,-3.8314,-3.8195,-3.806,-3.7733,-3.7685,-3.7689,-3.7386,-3.697,-3.6758,-3.6928,-3.7052,-3.7162,-3.7479,-3.7663,-3.7967,-3.8127,-3.8202,-3.8202,-3.8202,-3.8202,-3.8202,-3.8202,-3.8202,-3.8202,-3.8202,-3.8202,-3.826,-3.8434,-3.8763,-3.9228,-3.9731,-4.0498,-4.143,-4.2187,-4.2508,-4.2119,-4.5175,-4.5046,-4.5046,-4.5046,-4.5046,-4.5046,-4.5046,-4.5046,-4.4964,-4.491,-4.4858,-4.4704,-4.4125,-4.3335,-4.3231,-4.2498,-4.1224,-4.0997,-4.0795,-4.054,-3.9362,-3.8702,-3.8428,-3.7384,-3.6828,-3.6637,-3.5856,-3.5325,-3.4888,-3.3987,-3.3513,-3.3513,-3.3641,-3.37,-3.37,-3.37,-3.37,-3.37,-3.37,-3.3894,-3.423,-3.4272,-3.4397,-3.4647,-3.4688,-3.4839,-3.5086,-3.5208,-3.5249,-3.5249,-3.5263,-3.5345,-3.5372,-3.5345,-3.5345,-3.5372,-3.5345,-3.5331,-3.5249,-3.4977,-3.4812,-3.4688,-3.459,-3.4439,-3.4272,-3.4272,-3.4695,-3.5641,-3.6561,-3.7424,-3.8272,-3.8675,-3.8872,-3.8917,-3.8917,-3.8693,-3.8247,-3.8176,-3.8006,-3.7471,-3.7069,-3.6844,-3.6607,-3.6493,-3.647,-3.651,-3.6356,-3.6286,-3.6524,-3.6693,-3.6889,-3.7123,-3.7394,-3.7663,-3.7967,-3.8043,-3.8052,-3.8165,-3.8202,-3.8202,-3.8202,-3.8202,-3.8202,-3.8202,-3.8202,-3.8202,-3.8231,-3.8376,-3.8696,-3.9189,-4.0176,-4.1349,-4.207,-4.2392,-4.2115,-4.4694,-4.4694,-4.4694,-4.4694,-4.4694,-4.4694,-4.4694,-4.4694,-4.4694,-4.4643,-4.446,-4.4042,-4.3467,-4.284,-4.2684,-4.2034,-4.0974,-4.0744,-4.0516,-4.0083,-3.9087,-3.843,-3.8007,-3.7121,-3.6546,-3.6329,-3.5805,-3.5132,-3.4474,-3.372,-3.33,-3.33,-3.3471,-3.3556,-3.3513,-3.3513,-3.3513,-3.3513,-3.3556,-3.3513,-3.3556,-3.3513,-3.3768,-3.4147,-3.4189,-3.4397,-3.4688,-3.4714,-3.4688,-3.4729,-3.4729,-3.4688,-3.4688,-3.4729,-3.4688,-3.4688,-3.4688,-3.4729,-3.4688,-3.4522,-3.433,-3.423,-3.4063,-3.3894,-3.3768,-3.37,-3.3905,-3.4401,-3.5461,-3.6454,-3.7263,-3.7738,-3.7983,-3.8141,-3.8062,-3.7791,-3.7377,-3.7281,-3.6981,-3.6512,-3.6157,-3.5816,-3.574,-3.5544,-3.5548,-3.5872,-3.5925,-3.6046,-3.6286,-3.6445,-3.6642,-3.6889,-3.7046,-3.7356,-3.7777,-3.7929,-3.8005,-3.8127,-3.8202,-3.8202,-3.8202,-3.8202,-3.8202,-3.8202,-3.8202,-3.8202,-3.8202,-3.826,-3.8434,-3.916,-4.006,-4.1018,-4.1639,-4.2024,-4.2094,-4.4694,-4.4694,-4.4694,-4.4694,-4.4694,-4.4694,-4.4722,-4.467,-4.4642,-4.4434,-4.3938,-4.3833,-4.3284,-4.2239,-4.1982,-4.1517,-4.0897,-4.0389,-3.9931,-3.9347,-3.849,-3.7788,-3.726,-3.6681,-3.6405,-3.638,-3.5881,-3.5006,-3.4022,-3.3413,-3.3111,-3.3111,-3.3154,-3.3154,-3.3154,-3.3154,-3.3154,-3.3154,-3.3154,-3.3154,-3.3154,-3.3154,-3.3368,-3.3683,-3.37,-3.3768,-3.381,-3.381,-3.381,-3.381,-3.381,-3.381,-3.381,-3.3784,-3.3784,-3.3784,-3.3784,-3.381,-3.3852,-3.381,-3.3742,-3.3768,-3.3725,-3.3725,-3.3641,-3.3615,-3.3666,-3.3734,-3.4358,-3.519,-3.609,-3.6438,-3.6722,-3.7062,-3.6708,-3.6496,-3.6347,-3.61,-3.5765,-3.5469,-3.5473,-3.5405,-3.5178,-3.5153,-3.5208,-3.5413,-3.5426,-3.5616,-3.6006,-3.6126,-3.6325,-3.6603,-3.6772,-3.6996,-3.7701,-3.7853,-3.7967,-3.8089,-3.8165,-3.8202,-3.8202,-3.8202,-3.8202,-3.8202,-3.8202,-3.8202,-3.8202,-3.8347,-3.858,-3.9102,-3.9712,-4.0495,-4.125,-4.1744,-4.193,-4.4694,-4.4694,-4.4694,-4.4694,-4.4694,-4.4694,-4.4539,-4.4173,-4.4173,-4.3859,-4.3337,-4.2944,-4.2552,-4.216,-4.1337,-4.0849,-4.0618,-4.0287,-3.9728,-3.8995,-3.8341,-3.7713,-3.7161,-3.6681,-3.6405,-3.638,-3.6157,-3.5504,-3.4424,-3.352,-3.3136,-3.3136,-3.3136,-3.3136,-3.3136,-3.3136,-3.3136,-3.3136,-3.3136,-3.3136,-3.3136,-3.3136,-3.3154,-3.3326,-3.3454,-3.3556,-3.37,-3.37,-3.37,-3.37,-3.37,-3.37,-3.37,-3.37,-3.37,-3.37,-3.37,-3.37,-3.3658,-3.3598,-3.3513,-3.3471,-3.3411,-3.3326,-3.33,-3.3326,-3.3326,-3.3376,-3.3477,-3.4009,-3.466,-3.5385,-3.5872,-3.6,-3.5923,-3.5641,-3.5333,-3.5095,-3.4847,-3.4443,-3.4458,-3.4607,-3.471,-3.4797,-3.5003,-3.5168,-3.5304,-3.5453,-3.5656,-3.5898,-3.6166,-3.6325,-3.6563,-3.6839,-3.7211,-3.7586,-3.7777,-3.7938,-3.8052,-3.8165,-3.8202,-3.8202,-3.8202,-3.8086,-3.8115,-3.8028,-3.797,-3.7941,-3.826,-3.8783,-3.9421,-4.0002,-4.0989,-4.1395,-4.1802,-4.4694,-4.4694,-4.4694,-4.4694,-4.4668,-4.4513,-4.4225,-4.3859,-4.3676,-4.3284,-4.2735,-4.2368,-4.2133,-4.1745,-4.0925,-4.0389,-4.0184,-3.9855,-3.9323,-3.8617,-3.8015,-3.7437,-3.6983,-3.6581,-3.6405,-3.638,-3.6157,-3.5604,-3.4726,-3.3796,-3.3269,-3.3093,-3.3136,-3.3136,-3.3136,-3.3136,-3.3136,-3.3136,-3.3136,-3.3136,-3.3136,-3.3136,-3.3136,-3.3111,-3.324,-3.3368,-3.3513,-3.3513,-3.3513,-3.3513,-3.3513,-3.3513,-3.3513,-3.3513,-3.3513,-3.3513,-3.3513,-3.3513,-3.3471,-3.3411,-3.3326,-3.3326,-3.3197,-3.3136,-3.3136,-3.3136,-3.3187,-3.3269,-3.3345,-3.3571,-3.4067,-3.466,-3.506,-3.5162,-3.5086,-3.4812,-3.443,-3.427,-3.4075,-3.3854,-3.3904,-3.4047,-3.4147,-3.4397,-3.4632,-3.4853,-3.5086,-3.5249,-3.5413,-3.5656,-3.5965,-3.6086,-3.6405,-3.6642,-3.6968,-3.7278,-3.7625,-3.7853,-3.8052,-3.8165,-3.8173,-3.8202,-3.8086,-3.7999,-3.7883,-3.7796,-3.7709,-3.7651,-3.7912,-3.8347,-3.8783,-3.9247,-4.0147,-4.1018,-4.1355,-4.4694,-4.4694,-4.4694,-4.4694,-4.4589,-4.4173,-4.3939,-4.3729,-4.3232,-4.2683,-4.2186,-4.2159,-4.1821,-4.1328,-4.0796,-4.026,-3.9749,-3.9246,-3.8642,-3.799,-3.7487,-3.696,-3.6505,-3.643,-3.6405,-3.638,-3.583,-3.5257,-3.4776,-3.4148,-3.3596,-3.3237,-3.3093,-3.3136,-3.3136,-3.3136,-3.3136,-3.3136,-3.3136,-3.3136,-3.3136,-3.3136,-3.3136,-3.3136,-3.3111,-3.3111,-3.3111,-3.3111,-3.3154,-3.3154,-3.3111,-3.3111,-3.3154,-3.3154,-3.3111,-3.3154,-3.3111,-3.3111,-3.3111,-3.3111,-3.3154,-3.3111,-3.3136,-3.3136,-3.3194,-3.3169,-3.337,-3.3796,-3.3922,-3.4123,-3.4474,-3.4368,-3.4243,-3.4525,-3.4287,-3.396,-3.3834,-3.3611,-3.3471,-3.3641,-3.3683,-3.3683,-3.3768,-3.3979,-3.4189,-3.4439,-3.4647,-3.4962,-3.5223,-3.5453,-3.5656,-3.5965,-3.6246,-3.6484,-3.6733,-3.7046,-3.7433,-3.7815,-3.7976,-3.8127,-3.8144,-3.8115,-3.7825,-3.7651,-3.7331,-3.7215,-3.6983,-3.6896,-3.6925,-3.7331,-3.7854,-3.8571,-3.9344,-4.0213,-4.0839,-4.4694,-4.4694,-4.4694,-4.4694,-4.4589,-4.4121,-4.3676,-4.3232,-4.2683,-4.2134,-4.1664,-4.1585,-4.1481,-4.125,-4.0946,-4.0385,-3.9645,-3.894,-3.8138,-3.7511,-3.7262,-3.6885,-3.6505,-3.6405,-3.6405,-3.6329,-3.5805,-3.5433,-3.5107,-3.4374,-3.3796,-3.3621,-3.3269,-3.3136,-3.3136,-3.3136,-3.3136,-3.3136,-3.3136,-3.3136,-3.3136,-3.3136,-3.3136,-3.3136,-3.3136,-3.3136,-3.3136,-3.3136,-3.3136,-3.3136,-3.3136,-3.3136,-3.3136,-3.3136,-3.3136,-3.3136,-3.3136,-3.3136,-3.3136,-3.3136,-3.3136,-3.3136,-3.3136,-3.3294,-3.3571,-3.3646,-3.3897,-3.4374,-3.4474,-3.4575,-3.465,-3.4575,-3.4424,-3.4173,-3.3671,-3.3395,-3.337,-3.328,-3.3197,-3.3283,-3.3386,-3.3471,-3.3513,-3.3683,-3.3894,-3.4173,-3.4356,-3.4647,-3.4962,-3.5249,-3.5386,-3.5616,-3.5938,-3.6286,-3.6524,-3.6811,-3.7201,-3.7586,-3.7825,-3.8089,-3.8107,-3.7883,-3.7593,-3.7099,-3.678,-3.6489,-3.6257,-3.6257,-3.6315,-3.6765,-3.7568,-3.8196,-3.8707,-3.9448,-4.0274,-4.4694,-4.4694,-4.4694,-4.4694,-4.4617,-4.3912,-4.3363,-4.2944,-4.2186,-4.1638,-4.135,-4.1324,-4.1324,-4.1274,-4.0997,-4.038,-3.9511,-3.8708,-3.7906,-3.7104,-3.6933,-3.6732,-3.643,-3.6405,-3.6405,-3.6355,-3.6006,-3.5683,-3.5458,-3.4831,-3.4299,-3.3897,-3.3545,-3.3269,-3.3162,-3.3136,-3.3136,-3.3136,-3.3136,-3.3136,-3.3136,-3.3136,-3.3136,-3.3136,-3.3136,-3.3136,-3.3136,-3.3136,-3.3136,-3.3136,-3.3136,-3.3136,-3.3136,-3.3136,-3.3136,-3.3136,-3.3136,-3.3136,-3.3136,-3.3136,-3.3136,-3.3136,-3.3269,-3.3495,-3.3847,-3.4022,-3.4449,-3.4881,-3.4981,-3.5082,-3.5278,-3.5082,-3.4831,-3.455,-3.3872,-3.3345,-3.3212,-3.3136,-3.3111,-3.3154,-3.324,-3.3283,-3.33,-3.3471,-3.3641,-3.381,-3.4105,-3.4356,-3.4673,-3.5044,-3.5208,-3.5453,-3.5858,-3.6126,-3.6286,-3.6615,-3.6968,-3.7356,-3.7663,-3.7938,-3.8136,-3.7709,-3.7302,-3.6373,-3.588,-3.5532,-3.5299,-3.5706,-3.5938,-3.6642,-3.7321,-3.7745,-3.8284,-3.9251,-4.0015,-4.4694,-4.4694,-4.4694,-4.4694,-4.4511,-4.3546,-4.3049,-4.284,-4.1821,-4.135,-4.1324,-4.1324,-4.1324,-4.1248,-4.1047,-4.035,-3.9246,-3.8777,-3.7873,-3.6991,-3.6622,-3.6477,-3.643,-3.6405,-3.6405,-3.6405,-3.6355,-3.6081,-3.5633,-3.5408,-3.4981,-3.4198,-3.4022,-3.3671,-3.3319,-3.3187,-3.3144,-3.3136,-3.3136,-3.3136,-3.3136,-3.3136,-3.3136,-3.3136,-3.3136,-3.3136,-3.3136,-3.3136,-3.3136,-3.3136,-3.3136,-3.3136,-3.3136,-3.3136,-3.3136,-3.3136,-3.3136,-3.3187,-3.3119,-3.3262,-3.3287,-3.337,-3.3721,-3.3972,-3.4173,-3.4505,-3.4956,-3.5483,-3.5558,-3.578,-3.6056,-3.5881,-3.5508,-3.5357,-3.4449,-3.3671,-3.3212,-3.3136,-3.3136,-3.3136,-3.3136,-3.3136,-3.3111,-3.3283,-3.3386,-3.3513,-3.381,-3.4105,-3.4397,-3.4797,-3.5127,-3.5413,-3.5696,-3.5965,-3.6126,-3.6445,-3.6772,-3.7134,-3.7481,-3.7749,-3.8032,-3.7614,-3.6896,-3.5938,-3.5473,-3.4951,-3.4835,-3.5444,-3.5961,-3.6584,-3.7061,-3.7333,-3.7949,-3.8939,-3.9275,-4.4694,-4.4694,-4.4694,-4.4694,-4.4565,-4.3467,-4.3023,-4.2866,-4.1794,-4.1324,-4.1324,-4.1324,-4.1324,-4.1274,-4.1198,-4.0473,-3.9447,-3.9068,-3.8137,-3.6861,-3.6687,-3.6546,-3.6405,-3.6405,-3.6405,-3.6405,-3.6405,-3.6329,-3.6107,-3.5755,-3.5357,-3.5082,-3.465,-3.4223,-3.3771,-3.3696,-3.3445,-3.3187,-3.3136,-3.3136,-3.3136,-3.3136,-3.3136,-3.3136,-3.3136,-3.3162,-3.3136,-3.3136,-3.3136,-3.3136,-3.3136,-3.3136,-3.3162,-3.3187,-3.3237,-3.3212,-3.3187,-3.3338,-3.3596,-3.3671,-3.3847,-3.4248,-3.4374,-3.4675,-3.5031,-3.5182,-3.5604,-3.6006,-3.6157,-3.6182,-3.6355,-3.6254,-3.5981,-3.5433,-3.4625,-3.3771,-3.3312,-3.3136,-3.3136,-3.3136,-3.3136,-3.3136,-3.3111,-3.3154,-3.324,-3.3411,-3.3641,-3.3894,-3.4189,-3.459,-3.4962,-3.5168,-3.5413,-3.5764,-3.6046,-3.6286,-3.6642,-3.694,-3.7289,-3.7558,-3.769,-3.7597,-3.6715,-3.5741,-3.6025,-3.5764,-3.559,-3.5764,-3.6215,-3.6693,-3.6913,-3.7252,-3.7699,-3.8439,-3.8427,-4.4694,-4.4694,-4.4694,-4.4694,-4.4591,-4.3493,-4.3023,-4.2788,-4.1847,-4.1324,-4.1324,-4.1324,-4.1324,-4.1324,-4.1298,-4.0728,-3.9748,-3.934,-3.8527,-3.757,-3.693,-3.6593,-3.6452,-3.6405,-3.6405,-3.6405,-3.6405,-3.6405,-3.6355,-3.6031,-3.578,-3.5458,-3.5182,-3.4756,-3.4274,-3.4223,-3.4098,-3.3796,-3.3571,-3.342,-3.342,-3.3169,-3.3244,-3.3345,-3.3445,-3.3495,-3.3721,-3.3771,-3.3596,-3.3269,-3.3294,-3.342,-3.3445,-3.3671,-3.3771,-3.3771,-3.3771,-3.3947,-3.4148,-3.4248,-3.4399,-3.47,-3.4856,-3.5157,-3.5458,-3.5683,-3.6081,-3.6329,-3.6405,-3.6405,-3.6405,-3.6405,-3.6107,-3.5558,-3.4931,-3.4274,-3.352,-3.3262,-3.3136,-3.3136,-3.3136,-3.3136,-3.3136,-3.3136,-3.3154,-3.3283,-3.3428,-3.3683,-3.3894,-3.4356,-3.4756,-3.5003,-3.5249,-3.5575,-3.5858,-3.6126,-3.6405,-3.6772,-3.7211,-3.7481,-3.7519,-3.7523,-3.7005,-3.6373,-3.6606,-3.6606,-3.6315,-3.6228,-3.6678,-3.6995,-3.706,-3.732,-3.7827,-3.7924,-3.7833,-4.4694,-4.4694,-4.4694,-4.4694,-4.4565,-4.352,-4.3023,-4.2814,-4.1821,-4.1324,-4.1324,-4.1324,-4.1324,-4.1324,-4.1298,-4.0934,-4.0334,-3.9696,-3.8977,-3.814,-3.7343,-3.6662,-3.6546,-3.6405,-3.6405,-3.6405,-3.6405,-3.6405,-3.6405,-3.638,-3.6107,-3.5805,-3.5608,-3.5282,-3.4901,-3.4756,-3.4731,-3.455,-3.4173,-3.3997,-3.3922,-3.3646,-3.3646,-3.3922,-3.3997,-3.4173,-3.4474,-3.4575,-3.4248,-3.3319,-3.3721,-3.3947,-3.4048,-3.4474,-3.458,-3.4555,-3.4505,-3.458,-3.4756,-3.4756,-3.4876,-3.5052,-3.5429,-3.5583,-3.578,-3.6056,-3.6355,-3.6405,-3.6405,-3.6405,-3.6405,-3.6405,-3.6182,-3.578,-3.5533,-3.4981,-3.4274,-3.3545,-3.3169,-3.3144,-3.3187,-3.3136,-3.3136,-3.3136,-3.3136,-3.3197,-3.33,-3.3513,-3.3768,-3.4105,-3.4481,-3.4839,-3.51,-3.5426,-3.5696,-3.5898,-3.6218,-3.6536,-3.7162,-3.7491,-3.7481,-3.7486,-3.7287,-3.7128,-3.7186,-3.7012,-3.6664,-3.6802,-3.7192,-3.7382,-3.7501,-3.7766,-3.8025,-3.7715,-3.754,-4.4694,-4.4694,-4.4694,-4.4694,-4.4485,-4.3467,-4.3023,-4.2892,-4.1794,-4.1324,-4.1324,-4.1324,-4.1324,-4.1324,-4.1298,-4.0984,-4.0514,-4.0129,-3.9559,-3.8334,-3.7458,-3.7041,-3.6875,-3.6593,-3.6405,-3.6405,-3.6405,-3.6405,-3.6405,-3.6405,-3.638,-3.6254,-3.6081,-3.5906,-3.5408,-3.5307,-3.5082,-3.4756,-3.46,-3.455,-3.4525,-3.4399,-3.4349,-3.455,-3.4575,-3.46,-3.463,-3.468,-3.4555,-3.4449,-3.4474,-3.46,-3.46,-3.4655,-3.4781,-3.4806,-3.4826,-3.4906,-3.5207,-3.5332,-3.5554,-3.5881,-3.5981,-3.6182,-3.6182,-3.6304,-3.6405,-3.6405,-3.6405,-3.6405,-3.6405,-3.6405,-3.6329,-3.6081,-3.5759,-3.5458,-3.5102,-3.4299,-3.3771,-3.3621,-3.3388,-3.3136,-3.3136,-3.3136,-3.3136,-3.3111,-3.324,-3.3386,-3.3641,-3.3894,-3.4272,-3.4647,-3.4962,-3.5249,-3.5575,-3.5817,-3.6178,-3.6457,-3.7007,-3.7443,-3.7472,-3.765,-3.754,-3.7585,-3.7709,-3.7447,-3.7186,-3.7411,-3.7837,-3.7891,-3.7796,-3.7802,-3.772,-3.7451,-3.7316,-4.4694,-4.4694,-4.4694,-4.4565,-4.4199,-4.3389,-4.2866,-4.25,-4.1716,-4.1324,-4.1324,-4.1324,-4.1324,-4.1324,-4.1298,-4.1115,-4.0827,-4.0514,-3.976,-3.8631,-3.795,-3.7577,-3.7227,-3.6922,-3.6687,-3.6546,-3.6452,-3.6405,-3.6405,-3.6405,-3.6405,-3.6405,-3.6405,-3.6254,-3.5981,-3.5906,-3.5805,-3.5529,-3.5228,-3.5082,-3.5056,-3.4806,-3.4856,-3.5082,-3.5328,-3.5479,-3.5529,-3.5504,-3.5504,-3.5479,-3.5479,-3.5353,-3.5228,-3.5353,-3.5479,-3.5504,-3.5504,-3.5604,-3.5881,-3.5931,-3.6031,-3.638,-3.6405,-3.6405,-3.6405,-3.6405,-3.6405,-3.6405,-3.6405,-3.6405,-3.6405,-3.6405,-3.6405,-3.638,-3.6107,-3.5931,-3.5755,-3.4951,-3.4148,-3.3972,-3.3646,-3.337,-3.3219,-3.3212,-3.3136,-3.3136,-3.3136,-3.3283,-3.3471,-3.3725,-3.4063,-3.4397,-3.4756,-3.5086,-3.5413,-3.5777,-3.6138,-3.6457,-3.685,-3.7278,-3.7539,-3.7738,-3.7907,-3.7982,-3.8028,-3.8144,-3.7999,-3.8252,-3.8118,-3.7873,-3.7662,-3.7583,-3.7455,-3.7253,-3.7119,-4.4694,-4.4694,-4.4694,-4.4408,-4.3833,-4.3258,-4.2709,-4.2185,-4.1559,-4.1324,-4.1324,-4.1324,-4.1324,-4.1324,-4.1324,-4.1298,-4.1141,-4.0671,-3.9812,-3.9138,-3.8756,-3.8272,-3.7842,-3.7479,-3.719,-3.6854,-3.6593,-3.6499,-3.6405,-3.6405,-3.6405,-3.6405,-3.6405,-3.6355,-3.638,-3.6405,-3.6304,-3.6179,-3.5855,-3.568,-3.5629,-3.5303,-3.5353,-3.5655,-3.5981,-3.6229,-3.6229,-3.6254,-3.6329,-3.6405,-3.6405,-3.6107,-3.5931,-3.6056,-3.6405,-3.638,-3.6279,-3.6279,-3.6279,-3.6355,-3.638,-3.6405,-3.6405,-3.6405,-3.6405,-3.6405,-3.6405,-3.6405,-3.6405,-3.6405,-3.6405,-3.6405,-3.6405,-3.6405,-3.6405,-3.6405,-3.6254,-3.5479,-3.4901,-3.4349,-3.4148,-3.3872,-3.352,-3.3345,-3.3194,-3.3093,-3.3136,-3.3154,-3.3368,-3.3556,-3.3852,-3.4147,-3.4439,-3.4962,-3.5372,-3.5777,-3.6166,-3.6417,-3.6733,-3.7123,-3.7471,-3.7672,-3.7872,-3.8214,-3.8318,-3.8347,-3.8318,-3.826,-3.8043,-3.7739,-3.7577,-3.7546,-3.7335,-3.7084,-3.7017,-4.4694,-4.4694,-4.4694,-4.4408,-4.386,-4.3258,-4.2735,-4.2134,-4.1583,-4.1324,-4.1324,-4.1324,-4.1298,-4.1298,-4.1324,-4.1324,-4.1217,-4.0749,-4.0331,-3.9939,-3.9555,-3.906,-3.8543,-3.8251,-3.7877,-3.7351,-3.6947,-3.6691,-3.6452,-3.6405,-3.6405,-3.6405,-3.6405,-3.6405,-3.6405,-3.6405,-3.6405,-3.6405,-3.6254,-3.6157,-3.6107,-3.6031,-3.5956,-3.6157,-3.6355,-3.6405,-3.6405,-3.6405,-3.6405,-3.6405,-3.6405,-3.6355,-3.6254,-3.6329,-3.6405,-3.6405,-3.6405,-3.6405,-3.6405,-3.6405,-3.6405,-3.6405,-3.6405,-3.6405,-3.6405,-3.6405,-3.6405,-3.6405,-3.6405,-3.6405,-3.6405,-3.6405,-3.6405,-3.6405,-3.6405,-3.6405,-3.6355,-3.6153,-3.5755,-3.5228,-3.4851,-3.4399,-3.4022,-3.3696,-3.3571,-3.342,-3.3294,-3.3237,-3.3197,-3.3411,-3.3598,-3.3894,-3.4189,-3.4729,-3.5331,-3.5737,-3.6126,-3.6365,-3.6682,-3.7007,-3.7317,-3.7548,-3.7768,-3.8063,-3.8252,-3.826,-3.8231,-3.8202,-3.8052,-3.7853,-3.7663,-3.751,-3.7317,-3.7095,-3.7017,-4.5072,-4.5154,-4.5154,-4.4652,-4.386,-4.3544,-4.291,-4.2195,-4.1828,-4.1696,-4.1696,-4.1696,-4.1696,-4.1696,-4.1696,-4.1647,-4.1419,-4.1112,-4.0697,-4.0435,-4.0122,-3.973,-3.9233,-3.9038,-3.8579,-3.8075,-3.7685,-3.7177,-3.6619,-3.6593,-3.6499,-3.6405,-3.6405,-3.6405,-3.6405,-3.6405,-3.6405,-3.6405,-3.6405,-3.6405,-3.6405,-3.6405,-3.6405,-3.6405,-3.6405,-3.6405,-3.6405,-3.6405,-3.6405,-3.6405,-3.6405,-3.6405,-3.6405,-3.6405,-3.6405,-3.6405,-3.6405,-3.6405,-3.6405,-3.6405,-3.6405,-3.6405,-3.6405,-3.6405,-3.6405,-3.6405,-3.6405,-3.6405,-3.6405,-3.6405,-3.6405,-3.6405,-3.6405,-3.6405,-3.6405,-3.6405,-3.6405,-3.6405,-3.6182,-3.5931,-3.5479,-3.4977,-3.45,-3.4198,-3.4022,-3.3796,-3.3545,-3.337,-3.3237,-3.3316,-3.3555,-3.381,-3.4189,-3.4729,-3.5249,-3.5616,-3.6046,-3.6286,-3.6524,-3.685,-3.724,-3.7471,-3.7701,-3.7967,-3.8081,-3.8202,-3.8202,-3.8202,-3.8081,-3.7929,-3.7739,-3.7548,-3.7356,-3.7201,-3.7056,-4.5395,-4.5582,-4.5475,-4.4809,-4.3904,-4.369,-4.3051,-4.2199,-4.2092,-4.2065,-4.2065,-4.2065,-4.2065,-4.2065,-4.2065,-4.1993,-4.1746,-4.1521,-4.1209,-4.092,-4.0717,-4.0402,-3.9961,-3.9703,-3.9372,-3.8735,-3.861,-3.7985,-3.6977,-3.6781,-3.6687,-3.6593,-3.6546,-3.6452,-3.6499,-3.6452,-3.6405,-3.6405,-3.6405,-3.6405,-3.6405,-3.6405,-3.6405,-3.6405,-3.6405,-3.6405,-3.6405,-3.6405,-3.6405,-3.6405,-3.6405,-3.6405,-3.6405,-3.6405,-3.6405,-3.6405,-3.6405,-3.6405,-3.6405,-3.6405,-3.6405,-3.6405,-3.6405,-3.6405,-3.6405,-3.6405,-3.6405,-3.6405,-3.6405,-3.6405,-3.6405,-3.6405,-3.6405,-3.6405,-3.6405,-3.6405,-3.6405,-3.6405,-3.6405,-3.6132,-3.5881,-3.5504,-3.5027,-3.4826,-3.465,-3.4299,-3.4073,-3.3746,-3.3571,-3.3507,-3.369,-3.3887,-3.4272,-3.4797,-3.5168,-3.5386,-3.5817,-3.6206,-3.6405,-3.6654,-3.7084,-3.7433,-3.7663,-3.7891,-3.8089,-3.8202,-3.8202,-3.8202,-3.8127,-3.8005,-3.7777,-3.7586,-3.7433,-3.724,-3.7017,-4.5555,-4.5555,-4.5049,-4.4436,-4.3822,-4.3368,-4.2781,-4.2168,-4.2164,-4.2065,-4.2213,-4.2115,-4.2164,-4.2164,-4.2164,-4.2065,-4.2016,-4.1967,-4.1864,-4.1656,-4.1508,-4.1172,-4.0702,-4.038,-4.0088,-3.9573,-3.9494,-3.851,-3.7612,-3.7288,-3.7113,-3.7045,-3.6883,-3.6687,-3.6687,-3.6546,-3.6405,-3.6405,-3.6405,-3.6405,-3.6405,-3.6405,-3.6405,-3.6405,-3.6405,-3.6405,-3.6405,-3.6405,-3.6405,-3.6405,-3.6405,-3.6405,-3.6405,-3.6405,-3.6405,-3.6405,-3.6405,-3.6405,-3.643,-3.6405,-3.6405,-3.6405,-3.6405,-3.6405,-3.6405,-3.6405,-3.6405,-3.6405,-3.6405,-3.6405,-3.6405,-3.6405,-3.6405,-3.6405,-3.6405,-3.6405,-3.6405,-3.6405,-3.6405,-3.6405,-3.6107,-3.5881,-3.5483,-3.5357,-3.5232,-3.4856,-3.4575,-3.4274,-3.3991,-3.3903,-3.3875,-3.4101,-3.4282,-3.4729,-3.5127,-3.5345,-3.5724,-3.6126,-3.6325,-3.6563,-3.6889,-3.7278,-3.7625,-3.7853,-3.8014,-3.8202,-3.8202,-3.8202,-3.8202,-3.8052,-3.7815,-3.7701,-3.7586,-3.7327,-3.7017,-4.594,-4.5757,-4.5486,-4.4939,-4.4199,-4.3927,-4.3514,-4.3024,-4.2943,-4.2943,-4.2916,-4.2943,-4.2943,-4.2895,-4.2701,-4.2582,-4.2484,-4.2289,-4.2141,-4.2115,-4.2016,-4.1785,-4.1576,-4.1372,-4.1059,-4.054,-4.0307,-3.9847,-3.8908,-3.8364,-3.8144,-3.7621,-3.7501,-3.7275,-3.7075,-3.6713,-3.6568,-3.6546,-3.6499,-3.6405,-3.6405,-3.643,-3.643,-3.643,-3.6455,-3.6455,-3.6455,-3.6405,-3.6405,-3.6405,-3.6405,-3.6405,-3.6505,-3.6681,-3.6883,-3.686,-3.7161,-3.7059,-3.6531,-3.6455,-3.648,-3.643,-3.643,-3.6405,-3.6405,-3.643,-3.643,-3.6405,-3.6405,-3.6405,-3.6405,-3.6405,-3.6405,-3.6405,-3.6405,-3.6405,-3.6405,-3.6405,-3.6405,-3.6405,-3.6405,-3.6132,-3.5956,-3.5906,-3.573,-3.5357,-3.5056,-3.4831,-3.4469,-3.4199,-3.4172,-3.4297,-3.4432,-3.4647,-3.5018,-3.5331,-3.5697,-3.6088,-3.6368,-3.6579,-3.68,-3.7123,-3.7518,-3.7758,-3.7891,-3.8043,-3.8165,-3.8202,-3.8202,-3.8052,-3.7891,-3.7739,-3.7586,-3.7278,-3.7017,-4.6072,-4.5756,-4.5605,-4.5134,-4.4505,-4.4387,-4.4104,-4.3737,-4.3757,-4.3804,-4.3804,-4.3709,-4.3662,-4.3614,-4.3232,-4.3067,-4.3067,-4.2652,-4.2506,-4.2457,-4.2387,-4.2311,-4.2208,-4.2159,-4.1826,-4.1426,-4.1232,-4.0896,-4.0513,-4.0035,-3.9362,-3.8427,-3.8328,-3.81,-3.7719,-3.7479,-3.734,-3.7245,-3.7054,-3.6933,-3.686,-3.6883,-3.6883,-3.6857,-3.6807,-3.6759,-3.6784,-3.6857,-3.6883,-3.6908,-3.6933,-3.6983,-3.7008,-3.7211,-3.7387,-3.7437,-3.7688,-3.7588,-3.7111,-3.691,-3.6807,-3.6807,-3.6734,-3.686,-3.6656,-3.6606,-3.648,-3.6455,-3.6405,-3.6405,-3.6405,-3.6405,-3.6405,-3.6405,-3.6405,-3.6405,-3.6405,-3.6405,-3.6405,-3.6405,-3.6405,-3.6405,-3.6304,-3.6355,-3.6157,-3.5855,-3.5629,-3.5408,-3.5047,-3.4628,-3.4622,-3.4758,-3.4908,-3.5136,-3.5546,-3.5799,-3.6048,-3.6212,-3.6495,-3.6819,-3.7198,-3.7377,-3.7675,-3.7794,-3.794,-3.7967,-3.8165,-3.8165,-3.8202,-3.8089,-3.7938,-3.7777,-3.7548,-3.7268,-3.7102,-4.563,-4.5292,-4.4837,-4.4587,-4.4498,-4.4185,-4.4029,-4.4068,-4.4256,-4.435,-4.4303,-4.4115,-4.4021,-4.3926,-4.3757,-4.3614,-4.3566,-4.3491,-4.3423,-4.328,-4.3115,-4.2873,-4.2728,-4.2506,-4.2186,-4.2057,-4.1955,-4.1928,-4.1781,-4.1372,-4.0578,-3.9655,-3.9284,-3.9136,-3.8859,-3.8486,-3.8222,-3.8028,-3.781,-3.7737,-3.7713,-3.7713,-3.7739,-3.7764,-3.7814,-3.7889,-3.7889,-3.7739,-3.7688,-3.7663,-3.7638,-3.7663,-3.7613,-3.7839,-3.7939,-3.8015,-3.8165,-3.814,-3.7939,-3.7739,-3.7789,-3.7839,-3.7739,-3.7487,-3.7161,-3.7136,-3.691,-3.6656,-3.6757,-3.6631,-3.6556,-3.6455,-3.6681,-3.6581,-3.6606,-3.6505,-3.648,-3.6405,-3.6405,-3.6405,-3.6405,-3.6405,-3.6405,-3.6405,-3.6405,-3.6081,-3.6056,-3.5881,-3.5575,-3.5188,-3.5206,-3.5277,-3.5473,-3.5852,-3.6459,-3.6625,-3.6569,-3.6808,-3.7098,-3.7469,-3.791,-3.8028,-3.7997,-3.8268,-3.8456,-3.8284,-3.8243,-3.8571,-3.8696,-3.831,-3.8043,-3.7835,-3.7805,-3.7703,-3.749,-4.5883,-4.5723,-4.5138,-4.4875,-4.4847,-4.4715,-4.4676,-4.4694,-4.4815,-4.4815,-4.4815,-4.4723,-4.4676,-4.4602,-4.4443,-4.435,-4.4303,-4.3974,-4.3926,-4.3709,-4.3546,-4.3375,-4.3232,-4.3136,-4.2991,-4.2825,-4.2679,-4.2484,-4.2262,-4.2092,-4.1637,-4.089,-4.0252,-3.9715,-3.9488,-3.9243,-3.8925,-3.8558,-3.8361,-3.8237,-3.799,-3.799,-3.799,-3.799,-3.799,-3.799,-3.799,-3.799,-3.799,-3.804,-3.8065,-3.809,-3.8191,-3.8391,-3.8517,-3.8567,-3.8768,-3.8919,-3.8793,-3.8442,-3.8015,-3.799,-3.7965,-3.7914,-3.7713,-3.7688,-3.7613,-3.7437,-3.7312,-3.7211,-3.7362,-3.7362,-3.7362,-3.701,-3.681,-3.6709,-3.6656,-3.6631,-3.6531,-3.6581,-3.648,-3.6405,-3.6405,-3.6405,-3.6405,-3.638,-3.638,-3.6329,-3.5952,-3.5722,-3.5674,-3.5698,-3.5897,-3.6145,-3.6735,-3.689,-3.7,-3.7353,-3.7721,-3.8057,-3.842,-3.8339,-3.8374,-3.8705,-3.9018,-3.8985,-3.9093,-3.9296,-3.916,-3.8687,-3.8265,-3.7949,-3.7976,-3.811,-3.8048,-4.5888,-4.586,-4.5493,-4.523,-4.5138,-4.5184,-4.5201,-4.5201,-4.5321,-4.5367,-4.5321,-4.5276,-4.5201,-4.5184,-4.5,-4.4862,-4.4769,-4.4537,-4.4397,-4.4256,-4.4134,-4.3993,-4.3899,-4.3757,-4.3594,-4.3451,-4.3259,-4.297,-4.2728,-4.2484,-4.2159,-4.1732,-4.1202,-4.0586,-4.0181,-3.9803,-3.9483,-3.9213,-3.8966,-3.8866,-3.8692,-3.8592,-3.8567,-3.8592,-3.8617,-3.8617,-3.8642,-3.8668,-3.8642,-3.8617,-3.8617,-3.8567,-3.8668,-3.8843,-3.9069,-3.9245,-3.9421,-3.9697,-3.9446,-3.9094,-3.8517,-3.8642,-3.8617,-3.8492,-3.8316,-3.8266,-3.8165,-3.7914,-3.7939,-3.8015,-3.804,-3.7864,-3.7764,-3.7462,-3.7437,-3.7337,-3.7086,-3.6985,-3.6857,-3.6757,-3.6606,-3.643,-3.643,-3.643,-3.6405,-3.6405,-3.6405,-3.6405,-3.6279,-3.61,-3.6042,-3.6167,-3.6268,-3.6567,-3.6831,-3.7316,-3.7758,-3.8048,-3.8353,-3.8589,-3.8833,-3.8768,-3.8977,-3.9467,-3.9705,-3.9779,-3.9765,-3.9789,-3.945,-3.9015,-3.8823,-3.8677,-3.8664,-3.8877,-3.8847,-4.5561,-4.5533,-4.5759,-4.5549,-4.5201,-4.5367,-4.5504,-4.5504,-4.5685,-4.5821,-4.5776,-4.5595,-4.5504,-4.5458,-4.5276,-4.5184,-4.5184,-4.5092,-4.4972,-4.4879,-4.4723,-4.4723,-4.4537,-4.4303,-4.4115,-4.3926,-4.3737,-4.3499,-4.3259,-4.2922,-4.2706,-4.2364,-4.1762,-4.1314,-4.1169,-4.0969,-4.0818,-4.0692,-4.016,-3.9956,-3.9778,-3.9549,-3.9498,-3.9371,-3.9371,-3.932,-3.932,-3.932,-3.9295,-3.932,-3.9346,-3.9346,-3.9421,-3.9471,-3.9572,-3.9622,-3.9647,-3.9697,-3.9672,-3.9622,-3.9496,-3.9396,-3.927,-3.9195,-3.8994,-3.8869,-3.8718,-3.8467,-3.8266,-3.8191,-3.809,-3.809,-3.814,-3.804,-3.8015,-3.7839,-3.7613,-3.7387,-3.7236,-3.7161,-3.6782,-3.6455,-3.6455,-3.643,-3.643,-3.6405,-3.6405,-3.6405,-3.6405,-3.6377,-3.6272,-3.643,-3.658,-3.6876,-3.7254,-3.8013,-3.8532,-3.8783,-3.8915,-3.912,-3.9271,-3.9277,-3.9648,-4.0161,-4.0294,-4.0302,-4.0227,-4.0147,-4.0118,-4.0118,-3.9844,-3.9744,-3.9671,-3.9693,-3.976,-4.573,-4.5776,-4.5895,-4.5866,-4.5821,-4.5776,-4.5776,-4.5776,-4.5866,-4.5895,-4.5895,-4.5805,-4.5759,-4.573,-4.5685,-4.5595,-4.5595,-4.5413,-4.5367,-4.5321,-4.5138,-4.5046,-4.4908,-4.4815,-4.463,-4.4518,-4.4256,-4.4021,-4.3737,-4.3403,-4.3094,-4.2706,-4.2092,-4.1597,-4.1348,-4.1147,-4.1097,-4.087,-4.0668,-4.0465,-4.0185,-4.0032,-3.9903,-3.9749,-3.9749,-3.9749,-3.9697,-3.9697,-3.9697,-3.9697,-3.9697,-3.9697,-3.9697,-3.9697,-3.9697,-3.9697,-3.9697,-3.9697,-3.9697,-3.9672,-3.9697,-3.9697,-3.9672,-3.9597,-3.9421,-3.9421,-3.927,-3.9145,-3.8969,-3.8994,-3.9145,-3.9145,-3.9069,-3.8668,-3.8517,-3.8266,-3.804,-3.7864,-3.7739,-3.7713,-3.7462,-3.7111,-3.7033,-3.6707,-3.6606,-3.648,-3.648,-3.643,-3.6405,-3.6405,-3.6398,-3.6658,-3.6841,-3.7196,-3.7644,-3.8194,-3.8557,-3.8684,-3.9015,-3.936,-3.9541,-3.9676,-4.0208,-4.0701,-4.0783,-4.0863,-4.0949,-4.1076,-4.1337,-4.1355,-4.0897,-4.0585,-4.0493,-4.0629,-4.0977,-4.6001,-4.6001,-4.609,-4.6225,-4.6269,-4.609,-4.6046,-4.612,-4.6164,-4.6135,-4.6164,-4.6164,-4.6135,-4.612,-4.6075,-4.6001,-4.5985,-4.5759,-4.564,-4.5595,-4.5458,-4.5413,-4.5367,-4.5276,-4.5138,-4.4982,-4.4797,-4.449,-4.4143,-4.3832,-4.3403,-4.2825,-4.219,-4.1796,-4.1498,-4.1348,-4.1198,-4.1047,-4.0896,-4.0744,-4.0491,-4.0287,-4.0083,-3.9929,-3.9852,-3.9852,-3.9749,-3.9697,-3.9697,-3.9697,-3.9697,-3.9697,-3.9697,-3.9697,-3.9697,-3.9697,-3.9697,-3.9697,-3.9697,-3.9697,-3.9697,-3.9697,-3.9697,-3.9697,-3.9697,-3.9647,-3.9647,-3.9622,-3.9697,-3.9672,-3.9698,-3.9749,-3.9573,-3.9145,-3.907,-3.8844,-3.8743,-3.8592,-3.8366,-3.8341,-3.8089,-3.7813,-3.7561,-3.7134,-3.6807,-3.6681,-3.6508,-3.6505,-3.6455,-3.6405,-3.6452,-3.664,-3.6875,-3.7155,-3.7572,-3.8148,-3.8421,-3.8602,-3.898,-3.9424,-3.9777,-3.9929,-4.0574,-4.1142,-4.1154,-4.1277,-4.1782,-4.2005,-4.1889,-4.1831,-4.1657,-4.1389,-4.1278,-4.1398,-4.1632,-4.6225,-4.6269,-4.6491,-4.658,-4.6535,-4.6358,-4.6403,-4.658,-4.658,-4.658,-4.6609,-4.6565,-4.6491,-4.6491,-4.6314,-4.6225,-4.6225,-4.6001,-4.5956,-4.594,-4.5866,-4.5866,-4.5776,-4.564,-4.5504,-4.5413,-4.5184,-4.4862,-4.4472,-4.4068,-4.3594,-4.297,-4.2387,-4.1993,-4.1696,-4.1498,-4.1324,-4.1198,-4.1047,-4.0896,-4.0744,-4.0593,-4.0389,-4.0185,-4.0083,-3.9981,-3.9878,-3.98,-3.9749,-3.9749,-3.9697,-3.9697,-3.9697,-3.9697,-3.9697,-3.9697,-3.9697,-3.9697,-3.9697,-3.9697,-3.9697,-3.9697,-3.9749,-3.9749,-3.9697,-3.9697,-3.9697,-3.9749,-3.9749,-3.9749,-3.9749,-3.98,-3.9826,-3.9726,-3.9726,-3.9625,-3.96,-3.9423,-3.9121,-3.8894,-3.8516,-3.8313,-3.8187,-3.7785,-3.7331,-3.7182,-3.7031,-3.6659,-3.6631,-3.643,-3.6477,-3.6499,-3.6734,-3.7062,-3.7526,-3.8057,-3.8421,-3.8602,-3.898,-3.9424,-3.9733,-4.0083,-4.0559,-4.1015,-4.1311,-4.1606,-4.1968,-4.2092,-4.2063,-4.2005,-4.1918,-4.1889,-4.1649,-4.1625,-4.1773,-4.6491,-4.6491,-4.658,-4.6668,-4.6844,-4.6931,-4.6844,-4.6653,-4.6609,-4.6609,-4.6609,-4.6609,-4.6653,-4.6609,-4.6535,-4.6491,-4.6447,-4.6403,-4.6432,-4.6343,-4.618,-4.6135,-4.6046,-4.5911,-4.5821,-4.5685,-4.5504,-4.523,-4.4769,-4.4369,-4.3642,-4.2922,-4.2582,-4.219,-4.1845,-4.1623,-4.1498,-4.1298,-4.1198,-4.1097,-4.0946,-4.0846,-4.0593,-4.044,-4.0389,-4.0236,-4.0032,-3.9981,-3.9929,-3.9749,-3.9697,-3.9697,-3.9697,-3.9697,-3.9697,-3.9697,-3.9697,-3.9697,-3.9697,-3.9697,-3.9697,-3.98,-3.9903,-3.9826,-3.98,-3.9749,-3.9749,-3.9852,-3.9955,-3.9981,-4.0032,-4.0032,-4.0083,-4.016,-4.0134,-4.0083,-4.0032,-3.9956,-3.9753,-3.9652,-3.9271,-3.9093,-3.8966,-3.8486,-3.8081,-3.7857,-3.7558,-3.7207,-3.6807,-3.6606,-3.643,-3.6452,-3.6734,-3.7062,-3.7433,-3.7939,-3.833,-3.8647,-3.9051,-3.9424,-3.9777,-4.017,-4.0559,-4.0986,-4.1438,-4.1773,-4.2009,-4.2092,-4.2092,-4.2092,-4.2034,-4.2063,-4.2051,-4.198,-4.1939,-4.6712,-4.6712,-4.6844,-4.6931,-4.7062,-4.7222,-4.7135,-4.6917,-4.6844,-4.6873,-4.6873,-4.6887,-4.6873,-4.6873,-4.6785,-4.6712,-4.6712,-4.658,-4.6565,-4.6491,-4.6403,-4.6403,-4.6269,-4.6135,-4.6046,-4.5911,-4.5776,-4.5504,-4.5064,-4.4415,-4.3689,-4.3211,-4.2873,-4.2462,-4.2119,-4.1895,-4.1696,-4.1498,-4.1374,-4.1198,-4.1097,-4.1047,-4.0896,-4.0694,-4.0643,-4.0491,-4.0287,-4.0287,-4.0134,-3.9878,-3.9852,-3.98,-3.9749,-3.9697,-3.9697,-3.9697,-3.9697,-3.9697,-3.9697,-3.9697,-3.9749,-3.9852,-4.0032,-4.0032,-4.0083,-4.0108,-4.0108,-4.0108,-4.0185,-4.0287,-4.0338,-4.0389,-4.044,-4.0466,-4.0466,-4.0466,-4.044,-4.044,-4.0415,-4.0389,-4.021,-4.0005,-3.9724,-3.9191,-3.8861,-3.8685,-3.8358,-3.7882,-3.7331,-3.683,-3.6556,-3.6405,-3.6781,-3.7108,-3.7479,-3.7848,-3.833,-3.8692,-3.9051,-3.9424,-3.9821,-4.017,-4.0473,-4.1071,-4.1731,-4.1926,-4.2092,-4.2092,-4.2092,-4.2092,-4.2092,-4.2092,-4.2092,-4.2051,-4.2051,-4.6931,-4.6931,-4.7193,-4.7266,-4.7309,-4.7309,-4.7309,-4.7309,-4.7266,-4.7309,-4.7266,-4.7266,-4.7266,-4.7179,-4.7048,-4.6931,-4.6931,-4.68,-4.6785,-4.6653,-4.6624,-4.658,-4.6535,-4.6358,-4.618,-4.609,-4.5956,-4.5685,-4.5321,-4.4723,-4.4021,-4.3662,-4.3163,-4.2803,-4.2511,-4.2239,-4.1993,-4.1746,-4.1547,-4.1398,-4.1298,-4.1274,-4.1224,-4.0997,-4.0896,-4.0795,-4.0593,-4.0491,-4.0389,-4.0236,-4.0083,-3.9981,-3.9852,-3.98,-3.9749,-3.9697,-3.9697,-3.9749,-3.98,-3.9775,-3.9929,-4.0032,-4.0185,-4.0338,-4.0389,-4.0364,-4.0313,-4.0364,-4.044,-4.0491,-4.0593,-4.0694,-4.0744,-4.0744,-4.0744,-4.0744,-4.0744,-4.0744,-4.0744,-4.0719,-4.0693,-4.0538,-4.0487,-4.0,-3.9772,-3.9594,-3.9164,-3.861,-3.8157,-3.7478,-3.7003,-3.6729,-3.701,-3.7339,-3.7387,-3.7802,-3.8376,-3.8737,-3.9078,-3.9469,-3.9865,-4.017,-4.043,-4.1029,-4.1689,-4.1926,-4.2051,-4.2092,-4.2092,-4.2092,-4.2092,-4.2092,-4.2092,-4.2051,-4.198,-4.7193,-4.7222,-4.7266,-4.7309,-4.7309,-4.7309,-4.7309,-4.7309,-4.7309,-4.7309,-4.7309,-4.7309,-4.7309,-4.7266,-4.7222,-4.7149,-4.7149,-4.7181,-4.7165,-4.7138,-4.705,-4.714,-4.6845,-4.6727,-4.6431,-4.6135,-4.5956,-4.5904,-4.5614,-4.4957,-4.4406,-4.4171,-4.3732,-4.3382,-4.3015,-4.2771,-4.2525,-4.2305,-4.2156,-4.1858,-4.1581,-4.1376,-4.1248,-4.1198,-4.1147,-4.1047,-4.0896,-4.0795,-4.0643,-4.044,-4.0389,-4.0236,-4.0032,-3.9981,-3.9878,-3.9749,-3.9749,-3.9852,-3.9929,-4.0032,-4.0134,-4.0389,-4.0542,-4.0694,-4.0744,-4.0593,-4.0542,-4.0593,-4.0643,-4.0744,-4.0846,-4.0946,-4.1047,-4.1047,-4.1047,-4.1047,-4.1047,-4.1047,-4.1047,-4.1047,-4.1047,-4.1047,-4.0971,-4.0869,-4.069,-4.0332,-3.9798,-3.9341,-3.9138,-3.8583,-3.7906,-3.7602,-3.754,-3.7698,-3.765,-3.8063,-3.8747,-3.9031,-3.9303,-3.9615,-3.9991,-4.055,-4.1109,-4.1227,-4.1606,-4.193,-4.2196,-4.2092,-4.2092,-4.2092,-4.2092,-4.2092,-4.198,-4.1939,-4.1827,-4.7309,-4.7309,-4.7309,-4.7309,-4.7309,-4.7309,-4.7309,-4.7309,-4.7309,-4.7309,-4.7309,-4.7309,-4.7309,-4.7309,-4.7309,-4.7369,-4.7429,-4.7638,-4.7714,-4.77,-4.788,-4.806,-4.7793,-4.7481,-4.7478,-4.7209,-4.6845,-4.6628,-4.6206,-4.6042,-4.5742,-4.5231,-4.4705,-4.4339,-4.4075,-4.3759,-4.3458,-4.3291,-4.3111,-4.2811,-4.2253,-4.1915,-4.1476,-4.1348,-4.1274,-4.1198,-4.1147,-4.1047,-4.0896,-4.0694,-4.0542,-4.044,-4.0287,-4.0287,-4.0211,-4.0134,-4.0083,-4.016,-4.0236,-4.0287,-4.0389,-4.0643,-4.0795,-4.0896,-4.1047,-4.0972,-4.0972,-4.0997,-4.0997,-4.1047,-4.1097,-4.1147,-4.1224,-4.1198,-4.1198,-4.1224,-4.1224,-4.1198,-4.1198,-4.1198,-4.1198,-4.1198,-4.1147,-4.1147,-4.0969,-4.0943,-4.0432,-4.0205,-3.995,-3.9671,-3.8938,-3.8483,-3.8498,-3.8338,-3.8255,-3.8747,-3.9449,-3.9639,-3.9607,-4.0268,-4.0845,-4.1367,-4.1792,-4.1953,-4.2109,-4.2276,-4.2373,-4.237,-4.215,-4.2092,-4.2092,-4.2051,-4.1997,-4.1917,-4.1762,-4.7309,-4.7309,-4.7309,-4.7309,-4.7309,-4.7309,-4.7309,-4.7309,-4.7309,-4.7369,-4.7489,-4.7489,-4.7429,-4.7429,-4.7429,-4.7489,-4.7728,-4.8207,-4.8386,-4.8536,-4.8895,-4.882,-4.882,-4.8834,-4.8427,-4.8122,-4.7829,-4.755,-4.7239,-4.7051,-4.6719,-4.6486,-4.63,-4.6049,-4.5663,-4.5338,-4.4875,-4.457,-4.4343,-4.4175,-4.3549,-4.269,-4.2095,-4.1684,-4.1452,-4.1452,-4.135,-4.1248,-4.1147,-4.0997,-4.0744,-4.0643,-4.0542,-4.0542,-4.0491,-4.0389,-4.0338,-4.0466,-4.0542,-4.0542,-4.0694,-4.0896,-4.0946,-4.1047,-4.1198,-4.1274,-4.1274,-4.1274,-4.1274,-4.1274,-4.1274,-4.1324,-4.1324,-4.1324,-4.1324,-4.1324,-4.1324,-4.1324,-4.1324,-4.1324,-4.1324,-4.1324,-4.1324,-4.1324,-4.1248,-4.1198,-4.1147,-4.1047,-4.0792,-4.0435,-3.9926,-3.962,-3.9488,-3.9306,-3.8946,-3.9251,-3.9906,-4.0081,-4.0179,-4.1031,-4.1599,-4.1848,-4.2225,-4.2763,-4.2926,-4.2811,-4.2852,-4.2849,-4.2573,-4.237,-4.2518,-4.2649,-4.2436,-4.2295,-4.181,-4.7309,-4.7309,-4.7309,-4.7309,-4.7339,-4.7339,-4.7309,-4.7309,-4.7369,-4.7578,-4.7997,-4.8117,-4.8117,-4.8117,-4.8087,-4.8237,-4.8596,-4.903,-4.909,-4.9209,-4.9434,-4.9419,-4.9359,-4.9385,-4.8752,-4.8505,-4.836,-4.8027,-4.8083,-4.7749,-4.7386,-4.7282,-4.6821,-4.6579,-4.6259,-4.5992,-4.5807,-4.5586,-4.5335,-4.5033,-4.4648,-4.3889,-4.3139,-4.2671,-4.2332,-4.1892,-4.1505,-4.1324,-4.1274,-4.1198,-4.1252,-4.1152,-4.1077,-4.1002,-4.0951,-4.0848,-4.0798,-4.0745,-4.0796,-4.0795,-4.0997,-4.1097,-4.1147,-4.1147,-4.1274,-4.1274,-4.1274,-4.1274,-4.1274,-4.1274,-4.1324,-4.1324,-4.1324,-4.1324,-4.1324,-4.1324,-4.1324,-4.1324,-4.1324,-4.1324,-4.1324,-4.1324,-4.1324,-4.1324,-4.1324,-4.1248,-4.1248,-4.1147,-4.1147,-4.0971,-4.0794,-4.0613,-4.0356,-3.9889,-3.9346,-3.954,-4.0065,-4.0346,-4.0797,-4.1529,-4.1993,-4.2056,-4.248,-4.3211,-4.3336,-4.3241,-4.3272,-4.3357,-4.3371,-4.3255,-4.3315,-4.3344,-4.3027,-4.2609,-4.2106]},{"header":{"parameterUnit":"m.s-1","parameterCategory":1,"la1":31.0,"la2":29.5877,"lo1":-88.7671,"lo2":-86.6584,"dy":0.0162,"dx":0.0185,"nx":115,"ny":88,"refTime":"2026-03-05T12:00:00:Z","depth":0,"parameterNumber":3,"parameterNumberName":"V-component_of_WINDS"},"data":[0.0,0.0,0.0,0.0,0.0,0.0,0.0,0.0,0.0,0.0,0.0,0.0,0.0,0.0,0.0,0.0,0.0,0.0,0.0,0.0,0.0,0.0,0.0,0.0,0.0,0.0,0.0,0.0,0.0,0.0,0.0,0.0,0.0,0.0,0.0,0.0,0.0,0.0,0.0,0.0,0.0,0.0,0.0,0.0,0.0,0.0,0.0,0.0,0.0,0.0,0.0,0.0,0.0,0.0,0.0,0.0,0.0,0.0,0.0,0.0,0.0,0.0,0.0,0.0,0.0,0.0,0.0,0.0,0.0,0.0,0.0,0.0,0.0,0.0,0.0,0.0,0.0,0.0,0.0,0.0,0.0,0.0,0.0,0.0,0.0,0.0,0.0,0.0,0.0,0.0,0.0,0.0,0.0,0.0,0.0,0.0,0.0,0.0,0.0,0.0,0.0,0.0,0.0,0.0,0.0,0.0,0.0,0.0,0.0,0.0,0.0,0.0,0.0,0.0,0.0,0.0,0.0,0.0,0.0,0.0,0.0,0.0,0.0,0.0,0.0,0.0,0.0,0.0,0.0,0.0,0.0,0.0,0.0,0.0,0.0,0.0,0.0,0.0,0.0,0.0,0.0,0.0,0.0,0.0,0.0,0.0,0.0,0.0,0.0,0.0,0.0,0.0,0.0,0.0,0.0,0.0,0.0,0.0,0.0,0.0,0.0,0.0,0.0,0.0,0.0,0.0,0.0,0.0,0.0,0.0,0.0,0.0,0.0,0.0,0.0,0.0,0.0,0.0,0.0,0.0,0.0,0.0,0.0,0.0,0.0,0.0,0.0,0.0,0.0,0.0,0.0,0.0,0.0,0.0,0.0,0.0,0.0,0.0,0.0,0.0,0.0,0.0,0.0,0.0,0.0,0.0,0.0,0.0,0.0,0.0,0.0,0.0,0.0,0.0,0.0,0.0,0.0,0.0,0.0,0.0,0.0,0.0,0.0,0.0,0.0,0.0,0.0,0.0,0.0,0.0,0.0,0.0,0.0,0.0,0.0,0.0,0.0,0.0,0.0,0.0,0.0,0.0,0.0,0.0,0.0,0.0,0.0,0.0,0.0,0.0,0.0,0.0,0.0,0.0,0.0,0.0,0.0,0.0,0.0,0.0,0.0,0.0,0.0,0.0,0.0,0.0,0.0,0.0,0.0,0.0,0.0,0.0,0.0,0.0,0.0,0.0,0.0,0.0,0.0,0.0,0.0,0.0,0.0,0.0,0.0,0.0,0.0,0.0,0.0,0.0,0.0,0.0,0.0,0.0,0.0,0.0,0.0,0.0,0.0,0.0,0.0,0.0,0.0,0.0,0.0,0.0,0.0,0.0,0.0,0.0,0.0,0.0,0.0,0.0,0.0,0.0,0.0,0.0,0.0,0.0,0.0,0.0,0.0,0.0,0.0,0.0,0.0,0.0,0.0,0.0,0.0,0.0,0.0,0.0,0.0,0.0,0.0,0.0,0.0,0.0,0.0,0.0,0.0,0.0,0.0,0.0,0.0,0.0,0.0,0.0,0.0,0.0,0.0,0.0,0.0,0.0,0.0,0.0,0.0,0.0,0.0,0.0,0.0,0.0,0.0,0.0,0.0,0.0,0.0,0.0,0.0,0.0,0.0,0.0,0.0,0.0,0.0,0.0,0.0,0.0,0.0,0.0,0.0,0.0,0.0,0.0,0.0,0.0,0.0,0.0,0.0,0.0,0.0,0.0,0.0,0.0,0.0,0.0,0.0,0.0,0.0,0.0,0.0,0.0,0.0,0.0,0.0,0.0,0.0,0.0,0.0,0.0,0.0,0.0,0.0,0.0,0.0,0.0,0.0,0.0,0.0,0.0,0.0,0.0,0.0,0.0,0.0,0.0,0.0,0.0,0.0,0.0,0.0,0.0,0.0,0.0,0.0,0.0,0.0,0.0,0.0,0.0,0.0,0.0,0.0,0.0,0.0,0.0,0.0,0.0,0.0,0.0,0.0,0.0,0.0,0.0,0.0,0.0,0.0,0.0,0.0,0.0,0.0,0.0,0.0,0.0,0.0,0.0,0.0,0.0,0.0,0.0,0.0,0.0,0.0,0.0,0.0,0.0,0.0,0.0,0.0,0.0,0.0,0.0,0.0,0.0,0.0,0.0,0.0,0.0,0.0,0.0,0.0,0.0,0.0,0.0,0.0,0.0,0.0,0.0,0.0,0.0,0.0,0.0,0.0,0.0,0.0,0.0,0.0,0.0,0.0,0.0,0.0,0.0,0.0,0.0,0.0,0.0,0.0,0.0,0.0,0.0,0.0,0.0,0.0,0.0,0.0,0.0,0.0,0.0,0.0,0.0,0.0,0.0,0.0,0.0,0.0,0.0,0.0,0.0,0.0,0.0,0.0,0.0,0.0,0.0,0.0,0.0,0.0,0.0,0.0,0.0,0.0,0.0,0.0,0.0,0.0,0.0,0.0,0.0,0.0,0.0,0.0,0.0,0.0,0.0,0.0,0.0,0.0,0.0,0.0,0.0,0.0,0.0,0.0,0.0,0.0,0.0,0.0,0.0,0.0,0.0,0.0,0.0,0.0,0.0,0.0,0.0,0.0,0.0,0.0,0.0,0.0,0.0,0.0,0.0,0.0,0.0,0.0,0.0,0.0,0.0,0.0,0.0,0.0,0.0,0.0,0.0,0.0,0.0,0.0,0.0,0.0,0.0,0.0,0.0,0.0,0.0,0.0,0.0,0.0,0.0,0.0,0.0,0.0,0.0,0.0,0.0,0.0,0.0,0.0,0.0,0.0,0.0,0.0,0.0,0.0,0.0,0.0,0.0,0.0,0.0,0.0,0.0,0.0,0.0,0.0,0.0,0.0,0.0,0.0,0.0,0.0,0.0,0.0,0.0,0.0,0.0,0.0,0.0,0.0,0.0,0.0,0.0,0.0,0.0,0.0,0.0,0.0,0.0,0.0,0.0,0.0,0.0,0.0,0.0,0.0,0.0,0.0,0.0,0.0,0.0,0.0,0.0,0.0,0.0,0.0,0.0,0.0,0.0,0.0,0.0,0.0,0.0,0.0,0.0,0.0,0.0,0.0,0.0,0.0,0.0,0.0,0.0,0.0,0.0,0.0,0.0,0.0,0.0,0.0,0.0,0.0,0.0,0.0,0.0,0.0,0.0,0.0,0.0,0.0,0.0,0.0,0.0,0.0,0.0,0.0,0.0,0.0,0.0,0.0,0.0,0.0,0.0,0.0,0.0,0.0,0.0,0.0,0.0,0.0,0.0,0.0,0.0,0.0,0.0,0.0,0.0,0.0,0.0,0.0,0.0,0.0,0.0,0.0,0.0,0.0,0.0,0.0,0.0,0.0,0.0,0.0,0.0,0.0,0.0,0.0,0.0,0.0,0.0,0.0,0.0,0.0,0.0,0.0,0.0,0.0,0.0,0.0,0.0,0.0,0.0,0.0,0.0,0.0,0.0,0.0,0.0,0.0,0.0,0.0,0.0,0.0,0.0,0.0,0.0,0.0,0.0,0.0,0.0,0.0,0.0,0.0,0.0,0.0,0.0,0.0,0.0,0.0,0.0,0.0,0.0,0.0,0.0,0.0,0.0,0.0,0.0,0.0,0.0,0.0,0.0,0.0,0.0,0.0,0.0,0.0,0.0,0.0,0.0,0.0,0.0,0.0,0.0,0.0,0.0,0.0,0.0,0.0,0.0,0.0,0.0,0.0,0.0,0.0,0.0,0.0,0.0,0.0,0.0,0.0,0.0,0.0,0.0,0.0,0.0,0.0,0.0,0.0,0.0,0.0,0.0,0.0,0.0,0.0,0.0,0.0,0.0,0.0,0.0,0.0,0.0,0.0,0.0,0.0,0.0,0.0,0.0,0.0,0.0,0.0,0.0,0.0,0.0,0.0,0.0,0.0,0.0,0.0,0.0,0.0,0.0,0.0,0.0,0.0,0.0,0.0,0.0,0.0,0.0,0.0,0.0,0.0,0.0,0.0,0.0,0.0,0.0,0.0,0.0,0.0,0.0,0.0,0.0,0.0,0.0,0.0,0.0,0.0,0.0,0.0,0.0,0.0,0.0,0.0,0.0,0.0,0.0,0.0,0.0,0.0,0.0,0.0,0.0,0.0,0.0,0.0,0.0,0.0,0.0,0.0,0.0,0.0,0.0,0.0,0.0,0.0,0.0,0.0,0.0,0.0,0.0,0.0,0.0,0.0,0.0,0.0,0.0,0.0,0.0,0.0,0.0,0.0,0.0,0.0,0.0,0.1485,0.0,0.0,0.0,0.0,0.0,0.0,0.0,0.0,0.0,0.0,0.0,0.0,0.0,0.0,0.0,0.0,0.0,0.0,0.0,0.0,0.0,0.0,0.0,0.0,0.0,0.0,0.0,0.0,0.0,0.0,0.0,0.0,0.0,0.0,0.0,0.0,0.0,0.0,0.0,0.0,0.0,0.0,0.0,0.0,0.0,0.0,0.0,0.0,0.0,0.0,0.0,0.0,0.0,0.0,0.0,0.0,0.0,0.0,0.0,0.0,0.0,0.0,0.0,0.0,0.0,0.0,0.0,0.0,0.0,0.0,0.0,0.0,0.0,0.0,0.0,0.0,0.0,0.0,0.0,0.0,0.0,0.0,0.0,0.0,0.0,0.0,0.0,0.0,0.0,0.0,0.0,0.0,0.0,0.0,0.0,0.0,0.0,0.0,0.0,0.0,0.0,0.0,0.0,0.0,0.0,0.0,0.0,0.0,0.0,0.0,0.4574,0.3835,0.2944,0.231,0.1872,0.0,0.0,0.0,0.0,0.0,0.0,0.0,0.0,0.0,0.0,0.0,0.0,0.0,0.0,0.0,0.0,0.0,0.0,0.0,0.0,0.0,0.0,0.0,0.0,0.0,0.0,0.0,0.0,0.0,0.0,0.0,0.0,0.0,0.0,0.0,0.0,0.0,0.0,0.0,0.0,0.0,0.0,0.0,0.0,0.0,0.0,0.0,0.0,0.0,0.0,0.0,0.0,0.0,0.0,0.0,0.0,0.0,0.0,0.0,0.0,0.0,0.0,0.0,0.0,0.0,0.0,0.0,0.0,0.0,0.0,0.0,0.0,0.0,0.0,0.0,0.0,0.0,0.0,0.0,0.0,0.0,0.0,0.0,0.0,0.0,0.0,0.0,0.0,0.0,0.0,0.0,0.0,0.0,0.0,0.0,0.0,0.0,0.0,0.0,0.0,0.0,0.0,0.0,0.0,0.0,0.0,0.0,0.0,0.0,0.0,0.0,0.0,0.3501,0.2791,0.213,0.0,0.0,0.0,0.0,0.0,0.0,0.0,0.0,0.0,0.0,0.0,0.0,0.0,0.0,0.0,0.0,0.0,0.0,0.0,0.0,0.0,0.0,0.0,0.0,0.0,0.0,0.0,0.0,0.0,0.0,0.0,0.0,0.0,0.0,0.0,0.0,0.0,0.0,0.0,0.0,0.0,0.0,0.0,0.0,0.0,0.0,0.0,0.0,0.0,0.0,0.0,0.0,0.0,0.0,0.0,0.0,0.0,0.0,0.0,0.0,0.0,0.0,0.0,0.0,0.0,0.0,0.0,0.0,0.0,0.0,0.0,0.0,0.0,0.0,0.0,0.0,0.0,0.0,0.0,0.0,0.0,0.0,0.0,0.0,0.0,0.0,0.0,0.0,0.0,0.0,0.0,0.0,0.0,0.0,0.0,0.0,0.0,0.0,0.0,0.0,0.0,0.0,0.0,0.0,0.0,0.0,0.0,0.0,0.0,0.0,0.5714,0.4375,0.4241,0.0,0.2193,0.0,0.0,0.0,0.0,0.0,0.0,0.0,0.0,0.0,0.0,0.0,0.0,0.0,0.0,0.0,0.0,0.0,0.0,0.0,0.0,0.0,0.0,0.0,0.0,0.0,0.0,0.0,0.0,0.0,0.0,0.0,0.0,0.0,0.0,0.0,0.0,0.0,0.0,0.0,0.0,0.0,0.0,0.0,0.0,0.0,0.0,0.0,0.0,0.0,0.0,0.0,0.0,0.0,0.0,0.0,0.0,0.0,0.0,0.0,0.0,0.0,0.0,0.0,0.0,0.0,0.0,0.0,0.0,0.0,0.0,0.0,0.0,0.0,0.0,0.0,0.0,0.0,0.0,0.0,0.0,0.0,0.0,0.0,0.0,0.0,0.0,0.0,0.0,0.0,0.0,0.0,0.0,0.0,0.0,0.0,0.0,0.0,0.0,0.0,0.0,0.0,0.0,0.0,0.0,0.0,0.0,0.0,0.0,0.0,0.0,0.6384,0.5647,0.47,0.3834,0.0,0.0,0.0,0.0,0.0,0.0,0.0,0.0,0.0,0.0,0.0,0.0,0.0,0.0,0.0,0.0,0.0,0.0,0.0,0.0,0.0,0.0,0.0,0.0,0.0,0.0,0.0,0.0,0.0,0.0,0.0,0.0,0.0,0.0,0.0,0.0,0.0,0.0,0.0,0.0,0.0,0.0,0.0,0.0,0.0,0.0,0.0,0.0,0.0,0.0,0.0,0.0,0.0,0.0,0.0,0.0,0.0,0.0,0.0,0.0,0.0,0.0,0.0,0.0,0.0,0.0,0.0,0.0,0.0,0.0,0.0,0.0,0.0,0.0,0.0,0.0,0.0,0.0,0.0,0.0,0.0,0.0,0.0,0.0,0.0,0.0,0.0,0.0,0.0,0.0,0.0,0.0,0.0,0.0,0.0,0.0,0.0,0.0,0.0,0.0,0.0,0.0,0.0,0.0,0.0,0.0,0.0,0.0,0.0,0.0,0.7655,0.704,0.6411,0.5157,0.429,0.3784,0.0,0.0,0.0,0.0,0.0,0.0,0.0,0.0,0.0,0.0,0.0,0.0,0.0,0.0,0.0,0.0,0.0,0.0,0.0,0.0,0.0,0.0,0.0,0.0,0.0,0.0,0.0,0.0,0.0,0.0,0.0,0.0,0.0,0.0,0.0,0.0,0.0,0.0,0.0,0.0,0.0,0.0,0.0,0.0,0.0,0.0,0.0,0.0,0.0,0.0,0.0,0.0,0.0,0.0,0.0,0.0,0.0,0.0,0.0,0.0,0.0,0.0,0.0,0.0,0.0,0.0,0.0,0.0,0.0,0.0,0.0,0.0,0.0,0.0,0.0,0.0,0.0,0.0,0.0,0.0,0.0,0.0,0.0,0.0,0.0,0.0,0.0,0.0,0.0,0.0,0.0,0.0,0.0,0.0,0.0,0.0,0.0,0.0,0.0,0.0,0.0,0.0,0.0,0.0,0.0,0.0,0.0,0.0,0.859,0.8189,0.7474,0.6325,0.5584,0.4926,0.0,0.0,0.0,0.0,0.0,0.0,0.0,0.0,0.0,0.0,0.0,0.0,0.0,0.0,0.0,0.0,0.0,0.0,0.0,0.0,0.0,0.0,0.0,0.0,0.0,0.0,0.0,0.0,0.0,0.0,0.0,0.0,0.0,0.0,0.0,0.0,0.0,0.0,0.0,0.0,0.0,0.0,0.0,0.0,0.0,0.0,0.0,0.0,0.0,0.0,0.0,0.0,0.0,0.0,0.0,0.0,0.0,0.0,0.0,0.0,0.0,0.0,0.0,0.0,0.0,0.0,0.0,0.0,0.0,0.0,0.0,0.0,0.0,0.0,0.0,0.0,0.0,0.0,0.0,0.0,0.0,0.0,0.0,0.0,0.0,0.0,0.0,0.0,0.0,0.0,0.0,0.0,0.0,0.0,0.0,0.0,0.0,0.0,0.0,0.0,0.0,0.0,0.0,0.0,0.0,0.0,0.0,0.0,0.0,0.8917,0.839,0.7705,0.6882,0.6198,0.5668,0.0,0.0,0.0,0.0,0.0,0.0,0.0,0.0,0.0,0.0,0.0,0.0,0.0,0.0,0.0,0.0,0.0,0.0,0.0,0.0,0.0,0.0,0.0,0.0,0.0,0.0,0.0,0.0,0.0,0.0,0.0,0.0,0.0,0.0,0.0,0.0,0.0,0.0,0.0,0.0,0.0,0.0,0.0,0.0,0.0,0.0,0.0,0.0,0.0,0.0,0.0,0.0,0.0,0.0,0.0,0.0,0.0,0.0,0.0,0.0,0.0,0.0,0.0,0.0,0.0,0.0,0.0,0.0,0.0,0.0,0.0,0.0,0.0,0.0,0.0,0.0,0.0,0.0,0.0,0.0,0.0,0.0,0.0,0.0,0.0,0.0,0.0,0.0,0.0,0.0,0.0,0.0,0.0,0.0,0.0,0.0,0.0,0.0,0.0,0.0,0.0,0.0,0.0,0.0,0.0,0.0,0.0,0.0,0.0,0.9322,0.0,0.8015,0.7542,0.6887,0.6417,0.0,0.0,0.0,0.0,0.0,0.0,0.0,0.0,0.0,0.0,0.0,0.0,0.0,0.0,0.0,0.0,0.0,0.0,0.0,0.0,0.0,0.0,0.0,0.0,0.0,0.0,0.0,0.0,0.0,0.0,0.0,0.0,0.0,0.0,0.0,0.0,0.0,0.0,0.0,0.0,0.0,0.0,0.0,0.0,0.0,0.0,0.0,0.0,0.0,0.0,0.0,0.0,0.0,0.0,0.0,0.0,0.0,0.0,0.0,0.0,0.0,0.0,0.0,0.0,0.0,0.0,0.0,0.0,0.0,0.0,0.0,0.0,0.0,0.0,0.0,0.0,0.0,0.0,0.0,0.0,0.0,0.0,0.0,0.0,0.0,0.0,0.0,0.0,0.0,0.0,0.0,0.0,0.0,0.0,0.0,0.0,0.0,0.0,0.0,0.0,0.0,0.0,0.0,0.0,0.0,0.0,0.0,0.0,1.006,0.9728,0.8989,0.8541,0.8311,0.7591,0.7112,0.0,0.0,0.0,0.0,0.0,0.0,0.0,0.0,0.0,0.0,0.0,0.0,0.0,0.0,0.0,0.0,0.0,0.0,0.0,0.0,0.0,0.0,0.0,0.0,0.0,0.0,0.0,0.0,0.0,0.0,0.0,0.0,0.0,0.0,0.0,0.0,0.0,0.0,0.0,0.0,0.0,0.0,0.0,0.0,0.0,0.0,0.0,0.0,0.0,0.0,0.0,0.0,0.0,0.0,0.0,0.0,0.0,0.0,0.0,0.0,0.0,0.0,0.0,0.0,0.0,0.0,0.0,0.0,0.0,0.0,0.0,0.0,0.0,0.0,0.0,0.0,0.0,0.0,0.0,0.0,0.0,0.0,0.0,0.0,0.0,0.0,0.0,0.0,0.0,0.0,0.0,0.0,0.0,0.0,0.0,0.0,0.0,0.0,0.0,0.0,0.0,0.0,0.0,0.0,0.0,0.0,0.0,0.0,0.0,1.006,0.9594,0.9264,0.9014,0.83,0.787,0.0,0.0,0.0,0.0,0.0,0.0,0.0,0.0,0.0,0.0,0.0,0.0,0.0,0.0,0.0,0.0,0.0,0.0,0.0,0.0,0.0,0.0,0.0,0.0,0.0,0.0,0.0,0.0,0.0,0.0,0.0,0.0,0.0,0.0,0.0,0.0,0.0,0.0,0.0,0.0,0.0,0.0,0.0,0.0,0.0,0.0,0.0,0.0,0.0,0.0,0.0,0.0,0.0,0.0,0.0,0.0,0.0,0.0,0.0,0.0,0.0,0.0,0.0,0.0,0.0,0.0,0.0,0.0,0.0,0.0,0.0,0.0,0.0,0.0,0.0,0.0,0.0,0.0,0.0,0.0,0.0,0.0,0.0,0.0,0.0,0.0,0.0,0.0,0.0,0.0,0.0,0.0,0.0,0.0,0.0,0.0,0.0,0.0,0.0,0.0,0.0,0.0,0.0,0.0,0.0,0.0,0.0,0.0,0.0,1.079,1.0193,0.9755,0.9524,0.8962,0.8586,0.8312,0.0,0.0,0.0,0.0,0.0,0.0,0.0,0.0,0.0,0.0,0.0,0.0,0.0,0.0,0.0,0.0,0.0,0.0,0.0,0.0,0.0,0.0,0.0,0.0,0.0,0.0,0.0,0.0,0.0,0.0,0.0,0.0,0.0,0.0,0.0,0.0,0.0,0.0,0.0,0.0,0.0,0.0,0.0,0.0,0.0,0.0,0.0,0.0,0.0,0.0,0.0,0.0,0.0,0.0,0.0,0.0,0.0,0.0,0.0,0.0,0.0,0.0,0.0,0.0,0.0,0.0,0.0,0.0,0.0,0.0,0.0,0.0,0.0,0.0,0.0,0.0,0.0,0.0,0.0,0.0,0.0,0.0,0.0,0.0,0.0,0.0,0.0,0.0,0.0,0.0,0.0,0.0,0.0,0.0,0.0,0.0,0.0,0.0,0.0,0.0,0.0,0.0,0.0,0.0,0.0,0.0,0.0,0.0,1.1784,1.079,1.0188,1.0039,0.9575,0.9254,0.0,0.0,0.0,0.0,0.0,0.0,0.0,0.0,0.0,0.0,0.0,0.0,0.0,0.0,0.0,0.0,0.0,0.0,0.0,0.0,0.0,0.0,0.0,0.0,0.0,0.0,0.0,0.0,0.0,0.0,0.0,0.0,0.0,0.0,0.0,0.0,0.0,0.0,0.0,0.0,0.0,0.0,0.0,0.0,0.0,0.0,0.0,0.0,0.0,0.0,0.0,0.0,0.0,0.0,0.0,0.0,0.0,0.0,0.0,0.0,0.0,0.0,0.0,0.0,0.0,0.0,0.0,0.0,0.0,0.0,0.0,0.0,0.0,0.0,0.0,0.0,0.0,0.0,0.0,0.0,0.0,0.0,0.0,0.0,0.0,0.0,0.0,0.0,0.0,0.0,0.0,0.0,0.0,0.0,0.0,0.0,0.0,0.0,0.0,0.0,0.0,0.0,0.0,0.0,0.0,0.0,0.0,0.0,0.0,1.1784,1.1519,1.1176,1.0753,1.0024,0.9633,0.0,0.0,0.0,0.0,0.0,0.0,0.0,0.0,0.0,0.0,0.0,0.0,0.0,0.0,0.0,0.0,0.0,0.0,0.0,0.0,0.0,0.0,0.0,0.0,0.0,0.0,0.0,0.0,0.0,0.0,0.0,0.0,0.0,0.0,0.0,0.0,0.0,0.0,0.0,0.0,0.0,0.0,0.0,0.0,0.0,0.0,0.0,0.0,0.0,0.0,0.0,0.0,0.0,0.0,0.0,0.0,0.0,0.0,0.0,0.0,0.0,0.0,0.0,0.0,0.0,0.0,0.0,0.0,0.0,0.0,0.0,0.0,0.0,0.0,0.0,0.0,0.0,0.0,0.0,0.0,0.0,0.0,0.0,0.0,0.0,0.0,0.0,0.0,0.0,0.0,0.0,0.0,0.0,0.0,0.0,0.0,0.0,0.0,0.0,0.0,0.0,0.0,0.0,0.0,0.0,0.0,0.0,0.0,1.2732,1.2813,1.241,1.2091,1.1863,1.0991,1.0424,0.0,0.0,0.0,0.0,0.0,0.0,0.0,0.0,0.0,0.0,0.0,0.0,0.0,0.0,0.0,0.0,0.0,0.0,0.0,0.0,0.0,0.0,0.0,0.0,0.0,0.0,0.0,0.0,0.0,0.0,0.0,0.0,0.0,0.0,0.0,0.0,0.0,0.0,0.0,0.0,0.0,0.0,0.0,0.0,0.0,0.0,0.0,0.0,0.0,0.0,0.0,0.0,0.0,0.0,0.0,0.0,0.0,0.0,0.0,0.0,0.0,0.0,0.0,0.0,0.0,0.0,0.0,0.0,0.0,0.0,0.0,0.0,0.0,0.0,0.0,0.0,0.0,0.0,0.0,0.0,0.0,0.0,0.0,0.0,0.0,0.0,0.0,0.0,0.0,0.0,0.0,0.0,0.0,0.0,0.0,0.0,0.0,0.0,0.0,0.0,0.0,0.0,0.0,0.0,0.0,0.0,0.0,0.0,1.4104,1.4241,1.3394,1.3046,1.321,1.2161,1.1392,0.0,0.0,0.0,0.0,0.0,0.0,0.0,0.0,0.0,0.0,0.0,0.0,0.0,0.0,0.0,0.0,0.0,0.0,0.0,0.0,0.0,0.0,0.0,0.0,0.0,0.0,0.0,0.0,0.0,0.0,0.0,0.0,0.0,0.0,0.0,0.0,0.0,0.0,0.0,0.0,0.0,0.0,0.0,0.0,0.0,0.0,0.0,0.0,0.0,0.0,0.0,0.0,0.0,0.0,0.0,0.0,0.0,0.0,0.0,0.0,0.0,0.0,0.0,0.0,0.0,0.0,0.0,0.0,0.0,0.0,0.0,0.0,0.0,0.0,0.0,0.0,0.0,0.0,0.0,0.0,0.0,0.0,0.0,0.0,0.0,0.0,0.0,0.0,0.0,0.0,0.0,0.0,0.0,0.0,0.0,0.0,0.0,0.0,0.0,0.0,0.0,0.0,0.0,0.0,0.0,0.0,0.0,0.0,1.464,1.4566,1.4244,1.4038,1.3964,1.2423,1.1456,0.0,0.0,0.0,0.0,0.0,0.0,0.0,0.0,0.0,0.0,0.0,0.0,0.0,0.0,0.0,0.0,0.0,0.0,0.0,0.0,0.0,0.0,0.0,0.0,0.0,0.0,0.0,0.0,0.0,0.0,0.0,0.0,0.0,0.0,0.0,0.0,0.0,0.0,0.0,0.0,0.0,0.0,0.0,0.0,0.0,0.0,0.0,0.0,1.2655,0.0,0.0,0.0,0.0,0.0,0.0,0.0,0.0,0.0,0.0,0.0,0.0,0.0,0.0,0.0,0.0,0.0,0.0,0.0,0.0,0.0,0.0,0.0,0.0,0.0,0.0,0.0,0.0,0.0,0.0,0.0,0.0,0.0,0.0,0.0,0.0,0.0,0.0,0.0,0.0,0.0,0.0,0.0,0.0,0.0,0.0,0.0,0.0,0.0,0.0,0.0,0.0,0.0,0.0,0.0,0.0,0.0,0.0,0.0,1.5741,1.5836,1.5214,1.4941,1.502,1.3664,1.2564,0.0,0.0,0.0,0.0,0.0,0.0,0.0,0.0,0.0,0.0,0.0,0.0,0.0,0.0,0.0,0.0,0.0,0.0,0.0,0.0,0.0,0.0,0.0,0.0,0.0,0.0,0.0,0.0,0.0,0.0,0.0,0.0,0.0,0.0,0.0,0.0,0.0,0.0,0.0,0.0,0.0,0.0,0.0,0.0,0.0,0.0,0.0,0.0,0.0,0.0,0.0,0.0,0.0,0.0,0.0,0.0,0.0,0.0,0.0,0.0,0.0,0.0,0.0,0.0,0.0,0.0,0.0,0.0,0.0,0.0,0.0,0.0,0.0,0.0,0.0,0.0,0.0,0.0,0.0,0.0,0.0,0.0,0.0,0.0,0.0,0.0,0.0,0.0,0.0,0.0,0.0,0.0,0.0,0.0,0.0,0.0,0.0,0.0,0.0,0.0,0.0,0.0,0.0,0.0,0.0,0.0,0.0,1.6668,1.6923,1.7212,1.6308,1.5969,1.6291,1.5224,1.4051,1.28,0.0,0.0,0.0,0.0,0.0,0.0,0.0,0.0,0.0,0.0,0.0,0.0,0.0,0.0,0.0,0.0,0.0,0.0,0.0,0.0,0.0,0.0,0.0,0.0,0.0,0.0,0.0,0.0,0.0,0.0,0.0,0.0,0.0,0.0,0.0,0.0,0.0,0.0,1.6304,1.6076,0.0,0.0,0.0,0.0,0.0,0.0,0.0,0.0,1.4789,0.0,0.0,0.0,0.0,0.0,0.0,0.0,0.0,0.0,0.0,0.0,0.0,0.0,0.0,0.0,0.0,0.0,0.0,0.0,0.0,0.0,0.0,0.0,0.0,0.0,0.0,0.0,0.0,0.0,0.0,0.0,0.0,0.0,0.0,0.0,0.0,0.0,0.0,0.0,0.0,0.0,0.0,0.0,0.0,0.0,0.0,0.0,0.0,0.0,0.0,0.0,0.0,0.0,0.0,0.0,0.0,1.7538,1.7765,1.7772,1.7719,1.7348,1.7141,1.7068,1.6247,1.5496,1.4808,0.0,0.0,0.0,0.0,0.0,0.0,0.0,0.0,0.0,0.0,0.0,0.0,0.0,0.0,0.0,0.0,0.0,0.0,0.0,0.0,0.0,0.0,0.0,0.0,0.0,0.0,0.0,0.0,0.0,0.0,0.0,0.0,0.0,0.0,0.0,0.0,0.0,0.0,0.0,1.7233,1.7386,0.0,0.0,0.0,0.0,0.0,0.0,0.0,0.0,1.5364,0.0,0.0,0.0,0.0,0.0,0.0,0.0,0.0,0.0,0.0,0.0,0.0,0.0,0.0,0.0,0.0,0.0,0.0,0.0,0.0,0.0,0.0,0.0,0.0,0.0,0.0,0.0,0.0,0.0,0.0,0.0,0.0,0.0,0.0,0.0,0.0,0.0,0.0,0.0,0.0,0.0,0.0,0.0,0.0,0.0,0.0,0.0,0.0,0.0,0.0,0.0,0.0,0.0,0.0,0.0,1.857,1.8591,1.8673,1.8846,1.8494,1.8353,1.8387,1.7418,1.6727,0.0,0.0,0.0,0.0,0.0,0.0,0.0,0.0,0.0,0.0,0.0,0.0,0.0,0.0,0.0,0.0,0.0,0.0,0.0,0.0,0.0,0.0,0.0,0.0,0.0,0.0,0.0,0.0,0.0,0.0,0.0,0.0,0.0,0.0,0.0,0.0,0.0,0.0,0.0,0.0,1.8614,1.8813,1.8663,0.0,0.0,0.0,0.0,0.0,0.0,1.6871,1.6745,0.0,0.0,0.0,0.0,0.0,0.0,0.0,0.0,0.0,0.0,0.0,0.0,0.0,0.0,0.0,0.0,0.0,0.0,0.0,0.0,0.0,0.0,0.0,0.0,0.0,0.0,0.0,0.0,0.0,0.0,0.0,0.0,0.0,0.0,0.0,0.0,0.0,0.0,0.0,0.0,0.0,0.0,0.0,0.0,0.0,0.0,0.0,0.0,0.0,0.0,0.0,0.0,0.0,0.0,0.0,1.9533,1.947,1.9663,2.0128,1.9695,1.953,1.9601,1.8514,1.7812,0.0,0.0,0.0,0.0,0.0,0.0,0.0,0.0,0.0,0.0,0.0,0.0,0.0,0.0,0.0,0.0,0.0,0.0,0.0,0.0,0.0,0.0,0.0,0.0,0.0,0.0,0.0,0.0,0.0,0.0,0.0,0.0,0.0,0.0,0.0,0.0,0.0,0.0,0.0,0.0,0.0,2.0118,2.0053,1.9863,0.0,0.0,0.0,0.0,1.8396,1.8284,0.0,0.0,0.0,0.0,0.0,0.0,0.0,0.0,0.0,0.0,0.0,0.0,0.0,0.0,0.0,0.0,0.0,0.0,0.0,0.0,0.0,0.0,0.0,0.0,0.0,0.0,0.0,0.0,0.0,0.0,0.0,0.0,0.0,0.0,0.0,0.0,0.0,0.0,0.0,0.0,0.0,0.0,0.0,0.0,0.0,0.0,0.0,0.0,0.0,0.0,0.0,0.0,0.0,0.0,0.0,0.0,2.0489,2.0497,2.0684,2.0932,2.0932,2.075,2.0463,1.9581,1.8809,0.0,0.0,0.0,0.0,0.0,0.0,0.0,0.0,0.0,0.0,0.0,0.0,0.0,0.0,0.0,0.0,0.0,0.0,0.0,0.0,0.0,0.0,0.0,0.0,0.0,0.0,0.0,0.0,0.0,0.0,0.0,0.0,0.0,0.0,0.0,0.0,0.0,0.0,0.0,0.0,0.0,2.1067,2.1032,2.0939,2.0698,0.0,0.0,1.9621,1.9892,1.9496,0.0,0.0,0.0,0.0,0.0,0.0,0.0,0.0,0.0,0.0,0.0,0.0,0.0,0.0,0.0,0.0,0.0,0.0,0.0,0.0,0.0,0.0,0.0,0.0,0.0,0.0,0.0,0.0,0.0,0.0,0.0,0.0,0.0,0.0,0.0,0.0,0.0,0.0,0.0,0.0,0.0,0.0,0.0,0.0,0.0,0.0,0.0,0.0,0.0,0.0,0.0,0.0,0.0,0.0,0.0,2.0401,2.1183,2.1395,2.1647,2.1948,2.2145,2.2089,2.1718,2.0862,2.0066,0.0,0.0,0.0,0.0,0.0,0.0,0.0,0.0,0.0,0.0,0.0,0.0,0.0,0.0,0.0,0.0,0.0,0.0,0.0,0.0,0.0,0.0,0.0,0.0,0.0,0.0,0.0,0.0,0.0,0.0,0.0,0.0,0.0,0.0,0.0,0.0,0.0,0.0,0.0,0.0,0.0,0.0,2.302,2.2778,0.0,0.0,0.0,2.1357,2.1314,0.0,0.0,0.0,0.0,0.0,0.0,0.0,0.0,0.0,0.0,0.0,0.0,0.0,0.0,0.0,0.0,0.0,0.0,0.0,0.0,0.0,0.0,0.0,0.0,0.0,0.0,0.0,0.0,0.0,0.0,0.0,0.0,0.0,0.0,0.0,0.0,0.0,0.0,0.0,0.0,0.0,0.0,0.0,0.0,0.0,0.0,0.0,0.0,0.0,0.0,0.0,0.0,0.0,0.0,0.0,0.0,0.0,2.1916,2.2259,2.2632,2.3095,2.3214,2.3184,2.293,2.2064,0.0,0.0,0.0,0.0,0.0,0.0,0.0,0.0,0.0,0.0,0.0,0.0,0.0,0.0,0.0,0.0,0.0,0.0,0.0,0.0,0.0,0.0,0.0,0.0,0.0,0.0,0.0,1.8062,0.0,0.0,0.0,0.0,0.0,0.0,0.0,0.0,0.0,0.0,0.0,0.0,0.0,0.0,2.3679,2.469,2.4291,2.388,0.0,0.0,2.2857,2.2647,2.22,2.1887,0.0,0.0,0.0,0.0,0.0,0.0,0.0,0.0,0.0,0.0,0.0,0.0,0.0,0.0,0.0,0.0,0.0,0.0,0.0,0.0,0.0,0.0,0.0,0.0,0.0,0.0,0.0,0.0,0.0,0.0,0.0,0.0,0.0,0.0,0.0,0.0,0.0,0.0,0.0,0.0,0.0,0.0,0.0,0.0,0.0,0.0,0.0,0.0,0.0,0.0,0.0,0.0,0.0,0.0,2.2198,2.2796,2.3215,2.372,2.4351,2.4114,2.3941,2.3893,2.3022,2.2048,0.0,0.0,0.0,0.0,0.0,0.0,0.0,0.0,0.0,0.0,0.0,0.0,0.0,0.0,0.0,0.0,0.0,0.0,0.0,0.0,0.0,0.0,0.0,0.0,0.0,0.0,0.0,0.0,0.0,0.0,0.0,0.0,0.0,0.0,0.0,0.0,0.0,0.0,0.0,0.0,0.0,2.4524,2.5352,2.5093,2.4762,0.0,2.415,2.3863,2.3873,2.331,2.3035,2.3278,0.0,0.0,0.0,0.0,0.0,0.0,0.0,0.0,0.0,0.0,0.0,0.0,0.0,0.0,0.0,0.0,0.0,0.0,0.0,0.0,0.0,0.0,0.0,0.0,0.0,0.0,0.0,0.0,0.0,0.0,0.0,0.0,0.0,0.0,0.0,0.0,0.0,0.0,0.0,0.0,0.0,0.0,0.0,0.0,0.0,0.0,0.0,0.0,0.0,0.0,0.0,0.0,0.0,2.3278,2.3739,2.4321,2.4754,2.4961,2.5061,2.4995,2.482,2.4269,2.3472,0.0,0.0,0.0,0.0,0.0,0.0,0.0,0.0,0.0,0.0,0.0,0.0,0.0,0.0,0.0,0.0,0.0,0.0,0.0,0.0,0.0,0.0,0.0,0.0,0.0,0.0,0.0,0.0,1.9846,2.02,2.1081,0.0,0.0,0.0,0.0,0.0,0.0,0.0,0.0,0.0,0.0,2.5848,2.7044,2.6734,0.0,0.0,2.6138,2.5449,2.5468,2.4708,2.4161,2.4311,2.3563,0.0,0.0,0.0,0.0,0.0,0.0,0.0,0.0,0.0,0.0,0.0,0.0,0.0,0.0,0.0,0.0,0.0,0.0,0.0,0.0,0.0,0.0,0.0,0.0,0.0,0.0,0.0,0.0,0.0,0.0,0.0,0.0,0.0,0.0,0.0,0.0,0.0,0.0,0.0,0.0,0.0,0.0,0.0,0.0,0.0,0.0,0.0,0.0,0.0,0.0,0.0,0.0,2.4158,2.4542,2.5171,2.5569,2.5852,2.5953,2.5953,2.5852,2.5362,2.459,0.0,0.0,0.0,0.0,0.0,0.0,0.0,0.0,0.0,0.0,0.0,0.0,0.0,0.0,0.0,0.0,0.0,0.0,0.0,0.0,0.0,0.0,0.0,0.0,0.0,0.0,0.0,0.0,2.0643,2.1121,2.2087,0.0,0.0,0.0,0.0,0.0,0.0,0.0,0.0,0.0,0.0,2.716,2.8313,2.8199,2.8102,2.8575,2.7767,2.7025,2.6786,2.5937,2.5331,2.5331,0.0,0.0,0.0,0.0,0.0,0.0,0.0,0.0,0.0,0.0,0.0,0.0,0.0,0.0,0.0,0.0,0.0,0.0,0.0,0.0,0.0,0.0,0.0,0.0,0.0,0.0,0.0,2.7384,0.0,0.0,2.6759,0.0,0.0,0.0,0.0,0.0,0.0,0.0,0.0,0.0,0.0,0.0,0.0,0.0,0.0,0.0,0.0,0.0,0.0,0.0,0.0,0.0,0.0,2.4875,2.531,2.5731,2.6299,2.7049,2.6774,2.6774,2.7049,2.6064,2.5289,2.4875,0.0,0.0,0.0,0.0,0.0,0.0,0.0,0.0,0.0,0.0,0.0,0.0,0.0,0.0,0.0,0.0,0.0,0.0,0.0,0.0,0.0,0.0,0.0,0.0,0.0,0.0,2.1405,2.1882,2.2339,0.0,0.0,0.0,0.0,0.0,0.0,0.0,0.0,0.0,2.6679,2.7544,2.8403,2.8832,2.9241,2.9383,2.9104,2.8785,2.8408,2.766,2.6976,2.6609,0.0,0.0,0.0,0.0,0.0,0.0,0.0,0.0,0.0,0.0,0.0,0.0,0.0,0.0,0.0,0.0,0.0,0.0,0.0,0.0,0.0,0.0,0.0,0.0,0.0,0.0,0.0,2.9447,2.9132,0.0,0.0,0.0,0.0,0.0,0.0,0.0,0.0,0.0,0.0,0.0,2.819,2.8028,0.0,0.0,0.0,0.0,0.0,0.0,0.0,0.0,0.0,0.0,0.0,0.0,2.6261,2.6686,2.7247,2.7838,2.8384,2.816,2.8052,2.8153,2.7347,2.6456,2.5571,0.0,0.0,0.0,0.0,0.0,0.0,0.0,0.0,0.0,0.0,0.0,0.0,0.0,0.0,0.0,0.0,0.0,0.0,0.0,0.0,0.0,0.0,0.0,0.0,0.0,2.2691,0.0,0.0,0.0,0.0,0.0,0.0,0.0,0.0,0.0,0.0,0.0,2.7863,2.7925,2.8796,2.9578,3.0005,3.0188,3.0336,0.0,0.0,0.0,0.0,0.0,0.0,0.0,0.0,0.0,0.0,0.0,0.0,0.0,0.0,2.5488,2.4173,2.3931,2.402,2.4322,0.0,0.0,0.0,0.0,0.0,0.0,0.0,0.0,0.0,0.0,0.0,0.0,0.0,0.0,3.136,3.1085,3.0916,0.0,0.0,0.0,0.0,0.0,0.0,0.0,0.0,3.012,3.0162,2.999,2.9835,2.9558,2.9232,2.895,2.8173,0.0,0.0,0.0,0.0,0.0,0.0,0.0,0.0,2.7377,2.8066,2.8523,2.9055,2.9629,2.9428,2.927,2.927,2.8445,2.7419,2.63,2.5013,2.4132,0.0,0.0,0.0,0.0,0.0,0.0,0.0,0.0,0.0,0.0,0.0,0.0,0.0,0.0,0.0,0.0,0.0,0.0,0.0,0.0,0.0,0.0,0.0,2.406,0.0,0.0,0.0,0.0,0.0,0.0,0.0,0.0,0.0,2.7667,2.8367,2.8956,2.9155,2.9977,3.0673,3.0916,0.0,0.0,0.0,0.0,0.0,0.0,0.0,2.8887,2.8867,2.868,2.8421,2.8313,2.8053,2.7832,2.7672,0.0,0.0,2.5452,2.5058,2.5032,2.5363,2.5196,2.5065,2.5359,2.531,2.519,0.0,0.0,0.0,0.0,3.4558,0.0,0.0,0.0,3.3222,3.32,0.0,3.2652,0.0,0.0,0.0,0.0,3.1659,3.1891,0.0,0.0,3.2325,3.2202,3.1802,3.1757,3.1311,3.0433,3.0366,3.0118,2.953,2.8326,0.0,0.0,0.0,0.0,0.0,0.0,2.8232,2.9345,2.9409,2.9928,3.0773,3.0578,3.0422,3.0359,2.9245,2.8123,2.6996,2.6505,2.5776,2.4914,2.4456,0.0,0.0,0.0,0.0,0.0,0.0,0.0,0.0,0.0,0.0,0.0,0.0,0.0,0.0,0.0,0.0,0.0,0.0,0.0,0.0,2.52,0.0,0.0,0.0,0.0,0.0,0.0,0.0,0.0,0.0,0.0,2.8823,2.9591,3.0258,3.028,0.0,0.0,0.0,0.0,3.2154,3.1717,3.1585,3.1369,3.0922,3.0391,3.0047,3.0099,0.0,0.0,2.9476,2.9372,2.9247,2.8861,2.884,2.8448,2.7439,2.6871,2.6615,2.6654,2.6448,2.6262,2.628,2.6356,2.6328,3.9882,0.0,0.0,0.0,0.0,3.6566,3.6044,3.5409,3.5409,3.5001,3.432,3.4184,0.0,0.0,0.0,0.0,0.0,0.0,3.3449,3.3449,3.3697,3.3752,3.3611,3.3502,3.3291,3.296,3.2251,3.1756,3.1614,3.0513,2.9509,2.8653,0.0,0.0,0.0,0.0,2.903,2.9668,3.0233,3.0816,3.1456,3.1484,3.115,3.0298,2.9553,2.8833,2.8186,2.7601,2.6925,2.61,2.5508,0.0,0.0,0.0,0.0,0.0,0.0,0.0,0.0,0.0,0.0,0.0,0.0,0.0,0.0,0.0,0.0,0.0,0.0,0.0,2.6405,2.6987,2.7254,0.0,0.0,0.0,0.0,0.0,0.0,0.0,0.0,0.0,3.0555,3.0864,3.1244,0.0,0.0,3.2745,3.2745,3.2858,3.2904,3.2768,3.2403,0.0,3.1964,3.1505,3.1219,3.1403,3.1403,3.1359,3.1258,3.1054,3.0909,3.0758,3.0606,3.0351,3.0001,2.8788,2.7914,2.7898,2.772,2.7663,2.7885,2.7857,2.7685,4.2639,4.1259,3.9776,3.9028,3.8817,3.8629,3.8184,3.7622,3.7622,3.7153,3.6379,3.6192,3.5981,3.5718,3.5231,0.0,0.0,0.0,3.4866,3.4941,3.5041,3.5066,3.521,3.5061,3.4887,3.4666,3.4029,3.3444,3.2938,3.2151,3.126,3.0261,0.0,2.9325,2.9463,2.9623,2.9963,3.0508,3.1037,3.1495,3.1997,3.2048,3.1577,3.0526,3.0144,2.9744,2.9301,2.8898,2.8207,2.7193,2.678,2.6066,0.0,0.0,0.0,0.0,0.0,0.0,0.0,0.0,0.0,0.0,0.0,2.3971,2.3841,0.0,0.0,0.0,2.6097,2.6873,2.7725,2.8258,0.0,0.0,0.0,0.0,0.0,0.0,0.0,3.0034,3.0763,3.15,3.2202,3.2559,3.2793,3.2976,3.3466,3.3843,3.3843,0.0,3.3843,3.3843,3.3472,3.3201,3.3201,3.2851,3.2549,3.26,3.26,3.2572,3.2493,3.2342,3.224,3.219,3.2037,3.1783,3.1732,3.0622,2.9614,2.9291,2.9062,2.8935,2.9177,2.9079,2.8973,4.4699,4.4467,4.2467,4.1233,4.054,4.0057,3.9816,3.9799,3.9775,3.9485,3.8978,3.8524,3.7968,3.7311,3.6931,0.0,3.664,3.6355,3.6333,3.6505,3.6276,3.6241,3.6452,3.6452,3.6175,3.5743,3.5646,3.4977,3.3751,3.3454,3.2867,3.2089,3.0958,3.0532,3.0668,3.0668,3.1037,3.1688,3.1735,3.2041,3.2512,3.2277,3.1785,3.1043,3.0997,3.0744,3.0329,3.0306,2.9622,2.8272,2.8116,2.7452,2.6142,0.0,0.0,0.0,0.0,0.0,0.0,0.0,0.0,0.0,0.0,0.0,0.0,0.0,0.0,0.0,2.7589,0.0,2.8773,2.9279,0.0,0.0,0.0,3.0261,3.0306,3.0556,3.0873,3.1052,0.0,0.0,3.3628,3.4394,3.4644,3.403,3.4511,3.492,3.4945,3.492,3.492,3.492,3.4653,3.4483,3.4434,3.419,3.3944,3.3747,3.3747,3.3671,3.3446,3.3346,3.3346,3.3296,3.3097,3.2796,3.2521,3.2224,3.1761,3.0815,3.037,3.013,3.013,3.013,3.013,4.6358,4.5893,4.537,4.4086,4.2274,4.2152,4.1783,4.1188,4.1164,4.1032,4.0728,4.0156,3.936,3.8515,3.8517,3.8391,3.8039,3.811,3.7929,3.7645,3.754,3.7308,3.6922,3.6922,3.6845,3.6718,3.633,3.5723,3.4971,3.4319,3.3683,3.3068,3.2587,3.2021,3.1427,3.1427,3.1543,3.1732,3.207,3.2478,3.3004,3.2575,3.2221,3.2057,3.1698,3.1481,3.1362,3.116,3.061,2.9715,2.9147,2.8448,2.7531,2.7126,0.0,0.0,0.0,0.0,0.0,0.0,0.0,0.0,0.0,2.5826,2.6472,0.0,2.7343,0.0,2.9218,2.9716,2.9829,3.017,0.0,0.0,3.0758,3.1026,3.1026,3.1762,3.2385,3.2654,3.3342,3.4156,3.5023,3.5429,3.5701,3.594,3.5974,3.6026,3.6026,3.6026,3.6026,3.5978,3.5619,3.5331,3.5331,3.509,3.492,3.4823,3.4823,3.4775,3.4726,3.4531,3.4335,3.4139,3.3892,3.3645,3.3396,3.3097,3.2846,3.2544,3.1834,3.1219,3.1219,3.1219,3.1219,4.7464,4.7179,4.7004,4.5955,4.4281,4.4192,4.3689,4.3053,4.3028,4.2709,4.2062,4.125,4.0617,4.016,4.0006,3.9875,3.9715,3.9631,3.9443,3.9203,3.8735,3.8366,3.8147,3.7886,3.7756,3.7756,3.7488,3.6824,3.5911,3.5486,3.4762,3.3878,3.3683,3.3386,3.2889,3.2481,3.2264,3.2264,3.2514,3.2808,3.3077,3.2832,3.2616,3.2552,3.2259,3.2113,3.2025,3.1849,3.1476,3.0706,3.001,2.9319,2.861,2.8075,2.7753,0.0,0.0,0.0,0.0,0.0,0.0,0.0,0.0,0.0,0.0,0.0,2.906,3.0223,3.0683,3.0847,3.0892,3.1048,3.1321,3.1558,3.2054,3.2394,3.2637,3.3289,3.3776,3.4025,3.4635,3.5269,3.5826,3.631,3.6703,3.701,3.7062,3.6968,3.6734,3.6734,3.6687,3.6687,3.6452,3.6285,3.6285,3.6168,3.5978,3.5787,3.574,3.5644,3.5428,3.5259,3.5066,3.4969,3.4726,3.4482,3.4335,3.3991,3.3744,3.3645,3.3197,3.2645,3.224,3.2117,3.2139,4.8315,4.8289,4.7919,4.7178,4.6269,4.5933,4.5351,4.4647,4.4755,4.4219,4.3166,4.2163,4.175,4.1852,4.1281,4.1172,4.1395,4.0972,4.0856,4.0865,3.9879,3.9415,3.9547,3.8959,3.8692,3.8647,3.8692,3.7989,3.6671,3.6645,3.5933,3.4616,3.4564,3.4564,3.4481,3.3725,3.3258,3.3129,3.3129,3.3086,3.3086,3.3061,3.3,3.2828,3.2853,3.2766,3.2574,3.2574,3.2222,3.1602,3.0954,3.0292,2.9593,2.9084,2.873,0.0,2.8657,0.0,0.0,0.0,0.0,0.0,0.0,0.0,0.0,2.9777,3.0906,3.1757,3.1942,3.1966,3.1966,3.2215,3.2568,3.3008,3.3484,3.3995,3.449,3.4821,3.5142,3.5385,3.5871,3.6274,3.6644,3.7195,3.7598,3.7598,3.769,3.767,3.732,3.7227,3.7201,3.7201,3.7155,3.7062,3.6989,3.6985,3.6794,3.642,3.62,3.611,3.5635,3.554,3.5517,3.5422,3.5256,3.5185,3.5162,3.4775,3.458,3.4531,3.4359,3.3915,3.3197,3.2946,3.2969,4.8952,4.8899,4.8338,4.7963,4.7725,4.7192,4.5983,4.4439,4.51,4.504,4.4335,4.3647,4.3143,4.2693,4.2133,4.2043,4.2239,4.2181,4.2033,4.1734,4.1031,4.0418,3.9795,3.9366,3.9069,3.8863,3.9069,3.8536,3.7304,3.7304,3.6668,3.5494,3.5467,3.5386,3.5182,0.0,0.0,0.0,3.3683,3.3598,3.3556,3.3573,3.3556,3.3513,3.3513,0.0,3.3471,3.33,3.3147,3.2978,3.2323,0.0,0.0,0.0,0.0,0.0,0.0,0.0,0.0,0.0,0.0,0.0,3.1332,3.1245,3.0804,3.1663,3.2296,3.2506,3.3096,3.3477,3.3501,3.3945,3.4315,3.439,3.4684,3.4933,3.5264,3.5942,3.6496,3.6917,3.7415,3.7847,3.8055,3.8115,3.8076,3.8031,3.7965,3.7854,3.7736,3.769,3.7716,3.7716,3.7474,3.7341,3.7155,3.677,3.6462,3.6299,3.5896,3.5602,3.5466,3.544,3.5279,3.5011,3.5173,3.5332,3.4981,3.511,3.5331,3.538,3.5187,3.475,3.4014,3.3866,3.3866,4.952,4.9465,4.8703,4.8216,0.0,4.7781,4.6838,4.5368,4.5841,4.5766,4.5313,4.4879,4.4468,4.3976,4.3382,4.3096,4.3067,4.3039,4.2972,4.2739,4.1835,4.1242,4.0823,4.0011,3.953,3.9441,3.9388,3.887,3.8033,3.7827,3.722,3.6191,3.6191,3.6071,3.5898,3.5777,3.5345,3.4632,3.4481,3.4397,3.4397,3.4397,3.4314,3.4204,3.423,0.0,0.0,0.0,0.0,0.0,0.0,0.0,0.0,0.0,0.0,3.0368,3.0343,3.0599,3.1176,3.1253,3.1612,3.25,3.3024,3.3064,3.2386,3.3014,3.3388,3.3222,3.4165,3.4722,3.4492,3.5084,3.5564,3.5865,3.6096,3.6378,3.6824,3.7292,3.7701,3.7952,3.8209,3.8466,3.8557,3.8512,3.8395,3.8395,3.833,3.8088,3.7742,3.7789,3.7821,3.7508,3.7078,3.676,3.667,3.6418,3.6166,3.6051,3.58,3.5557,3.5398,3.5398,3.5283,3.5085,3.5269,3.5431,3.555,3.5547,3.5633,3.5856,3.5668,3.5332,3.4872,3.4534,3.4174,4.9994,4.9801,4.8871,4.8268,4.783,4.7973,4.7485,4.656,4.6571,0.0,0.0,4.5907,4.554,4.5089,4.4584,4.4098,4.3757,4.3804,4.3851,4.3815,4.262,4.2018,4.1917,4.0796,4.0213,4.0185,3.9773,3.9243,3.8697,3.8215,3.7608,3.6917,3.6861,3.6772,3.6536,3.631,3.5911,3.5426,3.5263,3.5208,3.5208,3.5208,3.5127,3.4868,3.4895,3.4812,3.4647,3.4605,3.4564,3.4564,3.4117,3.3592,3.3001,3.2568,3.2042,3.1453,3.1401,3.1675,3.233,3.2356,3.2843,3.3897,3.4357,3.4314,3.3641,3.4058,3.4289,3.4049,3.5193,3.5835,3.5513,3.614,3.6796,3.7243,3.75,3.782,3.8315,3.8575,3.8756,3.8827,3.8845,3.8872,3.8872,3.8827,3.8684,3.8559,3.8461,3.814,3.7537,3.74,3.7325,3.6907,3.647,3.6175,3.6123,3.5974,3.5905,3.5755,3.5608,3.5468,3.5267,3.5223,3.5223,3.5076,3.523,3.5442,3.5878,3.577,3.5819,3.6272,3.6118,3.581,3.5639,3.5104,3.4524,4.9907,4.9166,4.8533,4.8229,4.8119,4.7625,4.735,4.716,4.6931,4.6955,4.7105,4.6499,4.5972,4.5387,4.4997,4.4626,4.4331,4.449,4.4723,4.4823,4.3645,4.2988,4.2681,4.1667,4.1071,4.0817,4.0461,3.9959,3.9361,3.8734,3.8069,3.7528,3.7471,3.7394,3.7162,3.694,3.6822,3.6705,3.5991,3.5629,3.5629,3.5588,3.5588,3.5548,3.5548,3.5548,3.5507,3.5345,3.529,3.5263,3.5047,3.4605,3.4047,3.3914,3.3621,3.3102,3.3049,3.3366,3.4058,3.4151,3.4485,3.5292,3.5454,3.5182,3.4356,3.4491,3.4853,3.5289,3.6118,3.6874,3.7272,3.7847,3.8264,3.8326,3.8424,3.8612,3.9069,3.9158,3.9336,3.9689,3.9821,3.9749,3.9634,3.937,3.8888,3.8492,3.8041,3.7616,3.705,3.6569,3.6332,3.6253,3.6175,3.6096,3.594,3.5678,3.5443,3.5374,3.494,3.4705,3.4621,3.4621,3.4578,3.4373,3.4676,3.4942,3.5018,3.5647,3.6069,3.6279,3.6472,3.6531,3.6016,3.5768,3.5386,4.9836,4.9422,4.8831,4.8578,4.855,4.8269,4.8156,4.8156,4.8027,4.7903,4.7745,4.7746,4.725,4.6349,4.6107,4.5553,4.4769,4.4908,4.5,4.5024,4.3897,4.3325,4.3182,4.2095,4.1577,4.1491,4.0775,4.0249,3.9913,3.9093,3.8417,3.7929,3.7711,3.7586,3.7471,3.7366,3.7289,3.7289,3.6705,3.6389,3.6389,3.6389,3.635,3.627,3.623,3.6191,3.6098,3.5978,3.5938,3.5938,3.5858,3.5546,3.4947,3.4893,3.4648,3.4115,3.4061,3.4344,3.5022,3.535,3.573,3.6203,3.623,3.6151,3.5843,3.5763,3.5853,3.6121,3.7165,3.7968,3.8309,3.8939,3.9336,3.938,3.9363,3.9424,3.9601,3.9689,3.9733,3.9924,3.9719,3.9498,3.9526,3.9051,3.8605,3.8234,3.7648,3.6972,3.6576,3.5987,3.5611,3.5762,3.5476,3.5208,3.5182,3.4999,3.4816,3.4816,3.458,3.4424,3.4397,3.4397,3.4356,3.4272,3.4464,3.4708,3.4882,3.5218,3.5742,3.6393,3.6508,3.6524,3.6509,3.6218,3.5511,4.9788,4.9566,4.9109,4.8881,4.8881,4.8881,4.8881,4.8909,4.8959,4.876,4.8431,4.876,4.8195,4.7052,4.7043,4.6404,4.5316,4.5293,4.5338,4.5223,4.4135,4.369,4.3704,4.2518,4.2005,4.2024,4.1046,4.0471,4.0363,3.9341,3.8649,3.8352,3.8014,3.7863,3.7863,3.7863,3.7863,3.7825,3.7558,3.7327,3.7134,3.7134,3.7056,3.69,3.69,3.685,3.6654,3.6615,3.6603,3.6603,3.6536,3.6314,3.5842,3.5853,3.5631,3.5214,3.5159,3.5353,3.5864,3.6376,3.6733,3.6861,3.69,3.6978,3.7084,3.6924,3.6893,3.7181,3.8059,3.8818,3.9219,3.9763,4.017,4.017,4.0126,4.017,4.0213,4.0213,4.013,3.9991,3.9574,3.9297,3.9005,3.856,3.8242,3.7896,3.7167,3.6525,3.6238,3.5681,3.5408,3.5345,3.4936,3.4585,3.4397,3.4424,3.4424,3.4397,3.4397,3.4397,3.4397,3.4397,3.4397,3.4397,3.4397,3.4538,3.4956,3.5106,3.5392,3.6022,3.6373,3.665,3.7047,3.6683,3.5791,4.976,4.9023,4.8909,4.8881,4.8881,4.8881,4.8881,4.8959,4.9157,4.9256,4.9157,4.9009,4.8166,4.7157,4.7262,4.6667,4.5533,4.5882,4.609,4.596,4.5008,4.4477,4.4389,4.3225,4.2607,4.25,4.1391,4.084,4.0683,3.9445,3.8797,3.876,3.8723,3.8657,3.8686,3.8686,3.8686,3.8657,3.8686,3.8277,3.7586,3.7548,3.7548,3.7548,3.751,3.751,3.7433,3.7289,3.7211,3.7201,3.7017,3.6911,3.6855,3.6855,3.6827,3.6743,3.6743,3.6905,3.7088,3.7366,3.7471,3.751,3.751,3.7519,3.7586,3.7528,3.7844,3.844,3.8682,3.927,4.0349,4.0574,4.0602,4.0602,4.0602,4.0688,4.0802,4.0916,4.0718,4.011,3.9899,3.9758,3.8989,3.86,3.8103,3.7468,3.6889,3.6438,3.621,3.5859,3.5575,3.5412,3.5044,3.4714,3.4481,3.4397,3.4397,3.4397,3.4397,3.4397,3.4397,3.4397,3.4397,3.4397,3.4397,3.445,3.4607,3.4826,3.5243,3.5618,3.6225,3.7059,3.7324,3.7196,3.6453,4.9733,4.9375,4.9375,4.9375,4.9375,4.9375,4.9375,4.9375,4.9502,4.9551,4.9493,4.9,4.8259,4.7499,4.7594,4.6992,4.5985,4.6135,4.6314,4.6329,4.5181,4.4718,4.4697,4.3482,4.293,4.2991,4.2168,4.1543,4.094,3.9706,3.898,3.898,3.887,3.8767,3.8767,3.8767,3.8767,3.8767,3.8767,3.8649,3.8352,3.8315,3.8202,3.7976,3.7938,3.7853,3.7625,3.751,3.7471,3.7471,3.7404,3.7327,3.7356,3.7327,3.7327,3.7356,3.7327,3.7394,3.7471,3.7672,3.7825,3.7938,3.8081,3.8165,3.8315,3.8315,3.8617,3.9237,3.9293,3.9609,4.0419,4.0844,4.1142,4.11,4.11,4.1042,4.0658,4.0671,4.0402,3.9833,3.9406,3.9081,3.866,3.8122,3.7601,3.7071,3.6674,3.6524,3.6286,3.6058,3.5858,3.5616,3.5331,3.5044,3.4714,3.4632,3.4564,3.4439,3.4397,3.4397,3.4397,3.4397,3.4397,3.4397,3.4397,3.4397,3.4424,3.4554,3.4842,3.5286,3.6175,3.7149,3.7632,3.7505,3.6934,4.9746,4.9746,4.9746,4.9746,4.9746,4.9746,4.9746,4.9746,4.9746,4.9582,4.9378,4.8914,4.8275,4.7579,4.7614,4.7095,4.6312,4.6358,4.6403,4.6313,4.5263,4.4798,4.4697,4.3656,4.317,4.32,4.2671,4.1961,4.1085,3.9831,3.9162,3.9162,3.9017,3.8943,3.898,3.898,3.898,3.898,3.8943,3.898,3.8943,3.898,3.876,3.8427,3.8389,3.8202,3.7938,3.7967,3.7938,3.7901,3.7901,3.7938,3.7938,3.7901,3.7938,3.7938,3.7938,3.7901,3.7938,3.8089,3.8211,3.8352,3.8501,3.8649,3.876,3.8767,3.9003,3.94,3.9557,3.987,4.0665,4.1184,4.1542,4.1715,4.1629,4.1241,4.0879,4.0596,4.0182,3.9498,3.9029,3.8492,3.8243,3.7784,3.7296,3.6985,3.6878,3.6761,3.6524,3.6365,3.6166,3.5858,3.5696,3.5372,3.4921,3.4756,3.4673,3.4481,3.4397,3.4397,3.4397,3.4397,3.4397,3.4397,3.4397,3.4397,3.4397,3.445,3.4607,3.526,3.607,3.6933,3.741,3.7508,3.7488,4.9746,4.9746,4.9746,4.9746,4.9746,4.9746,4.9669,4.9611,4.9688,4.9349,4.8798,4.8682,4.7967,4.6911,4.7141,4.6823,4.6328,4.6668,4.6547,4.607,4.5466,4.4934,4.4306,4.3618,4.329,4.326,4.2761,4.1811,4.0546,3.9732,3.9373,3.9373,3.9337,3.9337,3.9337,3.9337,3.9337,3.9337,3.9337,3.9337,3.9337,3.9337,3.9156,3.8833,3.8767,3.876,3.8723,3.8723,3.8723,3.8723,3.8723,3.8723,3.8723,3.8694,3.8694,3.8694,3.8694,3.8723,3.8686,3.8723,3.873,3.876,3.8797,3.8797,3.887,3.8841,3.89,3.8892,3.9437,4.0215,4.1244,4.1458,4.1781,4.2262,4.1949,4.1615,4.1538,4.0714,4.0071,3.9392,3.8967,3.8553,3.7806,3.7615,3.751,3.7317,3.725,3.7123,3.68,3.6682,3.6484,3.6206,3.5978,3.5804,3.5003,3.4839,3.4714,3.4522,3.4439,3.4397,3.4397,3.4397,3.4397,3.4397,3.4397,3.4397,3.4397,3.4528,3.4737,3.5208,3.5757,3.6462,3.7142,3.7586,3.7671,4.9746,4.9746,4.9746,4.9746,4.9746,4.9746,4.9465,4.9059,4.9059,4.8711,4.813,4.7695,4.7259,4.6824,4.6825,4.6682,4.6521,4.6756,4.6618,4.6164,4.5592,4.4945,4.4287,4.3618,4.329,4.326,4.309,4.2312,4.1025,3.9948,3.9403,3.9403,3.9403,3.9403,3.9403,3.9403,3.9403,3.9403,3.9403,3.9403,3.9403,3.9403,3.9337,3.9192,3.9083,3.8943,3.8767,3.8767,3.8767,3.8767,3.8767,3.8767,3.8767,3.8767,3.8767,3.8767,3.8767,3.8767,3.8804,3.8907,3.898,3.9017,3.9119,3.9192,3.9162,3.9192,3.9192,3.9252,3.9371,3.9996,4.0672,4.0976,4.1175,4.1322,4.1234,4.091,4.0557,4.0194,3.9736,3.9103,3.8777,3.8434,3.813,3.7891,3.7701,3.7548,3.7366,3.7278,3.7084,3.685,3.6642,3.6484,3.6246,3.5965,3.5467,3.5127,3.4921,3.4688,3.4564,3.4439,3.4397,3.4397,3.4397,3.4293,3.4319,3.4241,3.4188,3.4162,3.445,3.492,3.5495,3.6018,3.6907,3.7273,3.7639,4.9746,4.9746,4.9746,4.9746,4.9717,4.9436,4.9117,4.8711,4.8508,4.8072,4.7462,4.6952,4.6691,4.6567,4.6563,4.6462,4.6329,4.6561,4.645,4.592,4.5304,4.4616,4.3977,4.3499,4.329,4.326,4.309,4.2432,4.1384,4.0277,3.9649,3.9439,3.9403,3.9403,3.9403,3.9403,3.9403,3.9403,3.9403,3.9403,3.9403,3.9403,3.9403,3.9373,3.9265,3.9156,3.898,3.898,3.898,3.898,3.898,3.898,3.898,3.898,3.898,3.898,3.898,3.898,3.9017,3.9119,3.9192,3.9192,3.9301,3.9403,3.9403,3.9403,3.9463,3.9649,3.9738,4.0008,4.0509,4.0672,4.0689,4.0808,4.0719,4.0491,4.0046,3.9772,3.9372,3.8944,3.8745,3.8567,3.8427,3.8202,3.8043,3.7787,3.7625,3.7471,3.7317,3.7084,3.6839,3.6721,3.6405,3.6166,3.5777,3.5453,3.5086,3.4839,3.4564,3.4439,3.4371,3.4397,3.4293,3.4214,3.411,3.4031,3.3953,3.3901,3.4136,3.4528,3.492,3.5338,3.6149,3.6933,3.7318,4.9746,4.9746,4.9746,4.9746,4.963,4.9059,4.8692,4.8566,4.8014,4.7404,4.6853,4.672,4.6446,4.6101,4.6417,4.6211,4.5827,4.6053,4.5848,4.5274,4.4676,4.4047,4.3409,4.3319,4.329,4.326,4.2701,4.2111,4.1444,4.0696,4.0038,3.9523,3.9439,3.9403,3.9403,3.9403,3.9403,3.9403,3.9403,3.9403,3.9403,3.9403,3.9403,3.9403,3.9373,3.9373,3.9373,3.9373,3.9337,3.9337,3.9373,3.9373,3.9337,3.9337,3.9373,3.9337,3.9373,3.9373,3.9373,3.9373,3.9337,3.9373,3.9403,3.9403,3.9559,3.9529,3.9768,4.0277,4.0427,4.0666,4.1085,4.0868,4.0719,4.1145,4.0681,4.0293,4.0144,3.9616,3.9017,3.887,3.8833,3.8833,3.876,3.8575,3.8389,3.8165,3.7976,3.7739,3.7443,3.7278,3.7084,3.6839,3.6563,3.6325,3.6018,3.5696,3.529,3.488,3.4647,3.4481,3.4345,3.4319,3.4058,3.3901,3.3613,3.3509,3.33,3.3221,3.3247,3.3613,3.4084,3.4805,3.5581,3.6367,3.7014,4.9746,4.9746,4.9746,4.9746,4.963,4.9001,4.8508,4.8014,4.7404,4.6795,4.6272,4.6185,4.6069,4.6014,4.618,4.605,4.5607,4.5493,4.515,4.4605,4.4407,4.3958,4.3409,4.329,4.329,4.32,4.2671,4.2321,4.1931,4.0965,4.0277,4.0068,3.9649,3.9403,3.9403,3.9403,3.9403,3.9403,3.9403,3.9403,3.9403,3.9403,3.9403,3.9403,3.9403,3.9403,3.9403,3.9403,3.9403,3.9403,3.9403,3.9403,3.9403,3.9403,3.9403,3.9403,3.9403,3.9403,3.9403,3.9403,3.9403,3.9403,3.9403,3.9679,4.0008,4.0098,4.0397,4.0965,4.1085,4.1205,4.1294,4.1205,4.1025,4.0726,4.0127,3.9798,3.9768,3.9486,3.9301,3.9228,3.909,3.9017,3.898,3.8833,3.8649,3.8456,3.824,3.7976,3.7739,3.7471,3.7289,3.7123,3.6811,3.6524,3.6286,3.5938,3.5534,3.5127,3.4812,3.4522,3.4387,3.411,3.3849,3.3404,3.3117,3.2855,3.2646,3.2646,3.2698,3.3249,3.405,3.4695,3.5236,3.5989,3.6823,4.9746,4.9746,4.9746,4.9746,4.9553,4.8769,4.8159,4.7695,4.6853,4.6243,4.5924,4.5895,4.5895,4.594,4.6135,4.5742,4.5153,4.5023,4.4578,4.3926,4.3917,4.3678,4.3319,4.329,4.329,4.323,4.291,4.262,4.2351,4.1602,4.0876,4.0397,3.9978,3.9649,3.9433,3.9403,3.9403,3.9403,3.9403,3.9403,3.9403,3.9403,3.9403,3.9403,3.9403,3.9403,3.9403,3.9403,3.9403,3.9403,3.9403,3.9403,3.9403,3.9403,3.9403,3.9403,3.9403,3.9403,3.9403,3.9403,3.9403,3.9403,3.9649,3.9918,4.0337,4.0546,4.1055,4.1662,4.1782,4.1901,4.2043,4.1901,4.1602,4.1175,4.0367,3.9738,3.9493,3.9403,3.9373,3.9337,3.9265,3.9228,3.9162,3.9017,3.887,3.8723,3.8464,3.824,3.8005,3.7663,3.751,3.7278,3.6889,3.6682,3.6524,3.6138,3.5777,3.5372,3.5044,3.4688,3.4413,3.3953,3.3587,3.2751,3.2306,3.1993,3.1784,3.215,3.2359,3.3211,3.3974,3.4436,3.5004,3.6204,3.6989,4.9746,4.9746,4.9746,4.9746,4.9543,4.8362,4.7811,4.7579,4.6446,4.5924,4.5895,4.5895,4.5895,4.5911,4.609,4.5508,4.4555,4.4706,4.4246,4.3407,4.326,4.328,4.3319,4.329,4.329,4.329,4.323,4.3,4.256,4.2291,4.1782,4.0756,4.0546,4.0127,3.9709,3.9463,3.9499,3.9403,3.9403,3.9403,3.9403,3.9403,3.9403,3.9403,3.9403,3.9403,3.9403,3.9403,3.9403,3.9403,3.9403,3.9403,3.9403,3.9403,3.9403,3.9403,3.9403,3.9463,3.9469,3.9553,3.9582,3.9768,4.0187,4.0487,4.0726,4.1212,4.1752,4.2381,4.247,4.2641,4.297,4.2761,4.241,4.2231,4.1055,4.0127,3.9493,3.9403,3.9403,3.9403,3.9403,3.9403,3.9373,3.9228,3.909,3.898,3.8723,3.8464,3.8202,3.7891,3.7586,3.7317,3.7046,3.6839,3.6682,3.6365,3.5978,3.5548,3.5182,3.4895,3.447,3.3942,3.3221,3.2359,3.194,3.147,3.1365,3.1914,3.245,3.3158,3.3738,3.4135,3.508,3.6311,3.6866,4.9746,4.9746,4.9746,4.9746,4.9494,4.8381,4.7782,4.7608,4.6417,4.5895,4.5895,4.5895,4.5895,4.594,4.5956,4.5346,4.4586,4.4451,4.3968,4.3159,4.305,4.317,4.329,4.329,4.329,4.329,4.329,4.32,4.303,4.2611,4.2231,4.1901,4.1294,4.0786,4.0247,4.0157,3.9858,3.9463,3.9403,3.9403,3.9403,3.9403,3.9403,3.9403,3.9403,3.9433,3.9403,3.9403,3.9403,3.9403,3.9403,3.9403,3.9433,3.9463,3.9523,3.9493,3.9463,3.9642,4.0038,4.0127,4.0337,4.0816,4.0965,4.1324,4.1841,4.2021,4.2432,4.291,4.309,4.312,4.323,4.311,4.288,4.2321,4.1265,4.0247,3.9612,3.9403,3.9403,3.9403,3.9403,3.9403,3.9373,3.9337,3.9265,3.9119,3.887,3.8649,3.8389,3.8081,3.7739,3.7548,3.7317,3.7035,3.6761,3.6524,3.6166,3.575,3.5386,3.51,3.4612,3.4076,3.3131,3.2111,3.2437,3.2202,3.2045,3.2202,3.2751,3.3329,3.3899,3.4511,3.5463,3.6557,3.6626,4.9746,4.9746,4.9746,4.9746,4.9524,4.8304,4.7782,4.7521,4.6475,4.5895,4.5895,4.5895,4.5895,4.5895,4.5866,4.5432,4.4632,4.4368,4.3835,4.3219,4.3049,4.313,4.325,4.329,4.329,4.329,4.329,4.329,4.323,4.294,4.2641,4.2351,4.2021,4.1512,4.0846,4.0786,4.0636,4.0277,4.0008,3.9828,3.9828,3.9529,3.9619,3.9738,3.9858,3.9918,4.0187,4.0247,4.0038,3.9649,3.9679,3.9828,3.9858,4.0127,4.0247,4.0247,4.0247,4.0457,4.0696,4.0816,4.0995,4.1354,4.1632,4.1991,4.2351,4.262,4.3,4.32,4.329,4.329,4.329,4.329,4.303,4.247,4.1722,4.0846,3.9948,3.9553,3.9403,3.9403,3.9403,3.9403,3.9403,3.9403,3.9337,3.9228,3.9053,3.8833,3.8649,3.824,3.7929,3.7701,3.7471,3.7162,3.6889,3.6682,3.6405,3.5978,3.5467,3.5182,3.4682,3.4158,3.3392,3.2751,3.296,3.296,3.2698,3.262,3.3171,3.3752,3.4258,3.4954,3.5897,3.6304,3.6455,4.9746,4.9746,4.9746,4.9746,4.9494,4.8333,4.7782,4.755,4.6446,4.5895,4.5895,4.5895,4.5895,4.5895,4.5866,4.5562,4.4894,4.4574,4.3959,4.3395,4.3053,4.3021,4.317,4.329,4.329,4.329,4.329,4.329,4.329,4.326,4.303,4.2671,4.253,4.2141,4.1594,4.1512,4.1482,4.1175,4.0726,4.0516,4.0427,4.0098,4.0098,4.0427,4.0516,4.0726,4.1085,4.1205,4.0816,3.9709,4.0187,4.0457,4.0576,4.1085,4.1302,4.1272,4.1212,4.1302,4.1512,4.1512,4.1564,4.1773,4.2222,4.25,4.2641,4.297,4.323,4.329,4.329,4.329,4.329,4.329,4.312,4.2641,4.244,4.1782,4.0846,3.9978,3.9529,3.9499,3.9463,3.9403,3.9403,3.9403,3.9403,3.9301,3.9162,3.898,3.876,3.8464,3.8127,3.7853,3.7558,3.725,3.7046,3.685,3.6536,3.6218,3.5575,3.5114,3.4723,3.4199,3.3721,3.343,3.3483,3.3326,3.3012,3.3209,3.3709,3.4254,3.4817,3.5449,3.6085,3.6183,3.6252,4.9746,4.9746,4.9746,4.9746,4.9514,4.8381,4.7782,4.7637,4.6417,4.5895,4.5895,4.5895,4.5895,4.5895,4.5866,4.5518,4.4995,4.4763,4.4225,4.3328,4.2901,4.2799,4.289,4.313,4.329,4.329,4.329,4.329,4.329,4.329,4.326,4.311,4.3,4.2791,4.2291,4.2171,4.1901,4.1512,4.1235,4.1175,4.1145,4.0995,4.0935,4.1175,4.1205,4.1235,4.1362,4.1422,4.1272,4.1055,4.1085,4.1235,4.1235,4.1392,4.1542,4.1572,4.1504,4.1692,4.2051,4.2201,4.2372,4.2761,4.288,4.312,4.312,4.317,4.329,4.329,4.329,4.329,4.329,4.329,4.32,4.3,4.271,4.2351,4.1833,4.0876,4.0247,4.0068,3.9702,3.9403,3.9403,3.9403,3.9403,3.9373,3.9265,3.909,3.887,3.8649,3.8315,3.7976,3.7739,3.7471,3.7162,3.6929,3.6575,3.6298,3.5737,3.5223,3.4791,3.4425,3.4024,3.3916,3.3953,3.3718,3.3483,3.3759,3.4219,3.4797,3.5245,3.5639,3.5952,3.6008,3.6035,4.9746,4.9746,4.9746,4.9494,4.9088,4.8188,4.7608,4.7201,4.633,4.5895,4.5895,4.5895,4.5895,4.5895,4.5866,4.5663,4.5343,4.4995,4.4255,4.3378,4.2989,4.2849,4.2637,4.285,4.305,4.317,4.325,4.329,4.329,4.329,4.329,4.329,4.329,4.311,4.288,4.2791,4.2671,4.2342,4.1983,4.1901,4.1871,4.1572,4.1632,4.1901,4.2102,4.2282,4.2342,4.2312,4.2312,4.2282,4.2282,4.2132,4.1983,4.2132,4.2282,4.2312,4.2312,4.2432,4.2761,4.2821,4.294,4.326,4.329,4.329,4.329,4.329,4.329,4.329,4.329,4.329,4.329,4.329,4.329,4.326,4.303,4.2821,4.2611,4.1654,4.0696,4.0487,4.0098,3.9768,3.9589,3.9493,3.9403,3.9403,3.9403,3.9228,3.9017,3.8797,3.8501,3.8202,3.7929,3.7625,3.7317,3.6968,3.6615,3.6298,3.5898,3.5453,3.5006,3.4733,3.4432,3.435,3.4241,3.4345,3.4214,3.4518,3.4548,3.4933,3.5274,3.5587,3.5777,3.5818,3.5845,4.9746,4.9746,4.9746,4.932,4.8682,4.8043,4.7433,4.6749,4.6156,4.5895,4.5895,4.5895,4.5895,4.5895,4.5895,4.5866,4.5692,4.5169,4.4313,4.3658,4.3423,4.3069,4.2772,4.2831,4.2876,4.296,4.313,4.321,4.329,4.329,4.329,4.329,4.329,4.323,4.326,4.329,4.317,4.3021,4.2731,4.2521,4.2462,4.2073,4.2132,4.2491,4.288,4.308,4.308,4.311,4.32,4.329,4.329,4.303,4.2821,4.297,4.329,4.326,4.314,4.314,4.314,4.323,4.326,4.329,4.329,4.329,4.329,4.329,4.329,4.329,4.329,4.329,4.329,4.329,4.329,4.329,4.329,4.329,4.311,4.2282,4.1594,4.0935,4.0696,4.0367,3.9948,3.9738,3.9559,3.9439,3.9403,3.9337,3.9156,3.8943,3.8686,3.8427,3.8165,3.7739,3.7356,3.6968,3.6642,3.6338,3.6018,3.5616,3.5249,3.4977,3.4703,3.4559,3.4502,3.4528,3.4502,3.445,3.4632,3.4962,3.5194,3.5397,3.5507,3.5656,3.5669,4.9746,4.9746,4.9746,4.932,4.8605,4.8043,4.7358,4.6795,4.6082,4.5895,4.5895,4.5895,4.5866,4.5866,4.5895,4.5895,4.5676,4.5256,4.4792,4.4356,4.4123,4.3571,4.3089,4.314,4.3001,4.2684,4.2879,4.315,4.325,4.329,4.329,4.329,4.329,4.329,4.329,4.329,4.329,4.329,4.311,4.309,4.303,4.294,4.2851,4.309,4.323,4.329,4.329,4.329,4.329,4.329,4.329,4.323,4.311,4.32,4.329,4.329,4.329,4.329,4.329,4.329,4.329,4.329,4.329,4.329,4.329,4.329,4.329,4.329,4.329,4.329,4.329,4.329,4.329,4.329,4.329,4.329,4.323,4.2991,4.2611,4.1983,4.1534,4.0995,4.0546,4.0157,4.0008,3.9828,3.9679,3.9523,3.9301,3.9119,3.8907,3.8649,3.8389,3.7901,3.7394,3.7007,3.6682,3.6445,3.6126,3.5737,3.5413,3.5168,3.4989,3.4726,3.4518,3.445,3.4424,3.4397,3.4564,3.4839,3.5044,3.5208,3.5413,3.5588,3.5669,4.9404,4.9277,4.9277,4.8729,4.7865,4.752,4.6829,4.5947,4.5648,4.5504,4.5504,4.5504,4.5504,4.5504,4.5504,4.5549,4.5598,4.556,4.5198,4.4908,4.456,4.4124,4.3573,4.3642,4.3319,4.3036,4.3066,4.3146,4.316,4.313,4.321,4.329,4.329,4.329,4.329,4.329,4.329,4.329,4.329,4.329,4.329,4.329,4.329,4.329,4.329,4.329,4.329,4.329,4.329,4.329,4.329,4.329,4.329,4.329,4.329,4.329,4.329,4.329,4.329,4.329,4.329,4.329,4.329,4.329,4.329,4.329,4.329,4.329,4.329,4.329,4.329,4.329,4.329,4.329,4.329,4.329,4.329,4.329,4.312,4.2821,4.2282,4.1683,4.1115,4.0756,4.0546,4.0277,3.9978,3.9768,3.9523,3.9354,3.9201,3.8723,3.8389,3.7901,3.7471,3.7123,3.6761,3.6524,3.6286,3.5898,3.5494,3.5249,3.5003,3.4714,3.459,3.4397,3.4397,3.4397,3.459,3.4756,3.4962,3.5168,3.5372,3.5534,3.5629,4.9108,4.8881,4.8766,4.8052,4.7081,4.6852,4.6167,4.5252,4.5138,4.511,4.511,4.511,4.511,4.511,4.511,4.523,4.5458,4.5611,4.5367,4.5049,4.5022,4.4675,4.4284,4.4095,4.392,4.3494,4.3449,4.3219,4.3008,4.297,4.305,4.313,4.317,4.325,4.321,4.325,4.329,4.329,4.329,4.329,4.329,4.329,4.329,4.329,4.329,4.329,4.329,4.329,4.329,4.329,4.329,4.329,4.329,4.329,4.329,4.329,4.329,4.329,4.329,4.329,4.329,4.329,4.329,4.329,4.329,4.329,4.329,4.329,4.329,4.329,4.329,4.329,4.329,4.329,4.329,4.329,4.329,4.329,4.329,4.306,4.2761,4.2312,4.1743,4.1504,4.1294,4.0876,4.0606,4.0217,4.0008,3.9755,3.9446,3.8811,3.8315,3.7891,3.7548,3.7289,3.6929,3.6603,3.6405,3.6098,3.5656,3.529,3.5044,3.4797,3.4522,3.4397,3.4397,3.4397,3.4481,3.4673,3.4921,3.5127,3.529,3.5494,3.5669,4.8959,4.8852,4.8309,4.7652,4.689,4.6405,4.5777,4.5121,4.5018,4.511,4.4972,4.5064,4.5018,4.5018,4.5018,4.511,4.5155,4.5201,4.519,4.5063,4.5199,4.503,4.4613,4.4748,4.4327,4.395,4.3863,4.3432,4.3078,4.2895,4.2788,4.2898,4.3089,4.305,4.305,4.317,4.329,4.329,4.329,4.329,4.329,4.329,4.329,4.329,4.329,4.329,4.329,4.329,4.329,4.329,4.329,4.329,4.329,4.329,4.329,4.329,4.329,4.329,4.3319,4.329,4.329,4.329,4.329,4.329,4.329,4.329,4.329,4.329,4.329,4.329,4.329,4.329,4.329,4.329,4.329,4.329,4.329,4.329,4.329,4.329,4.303,4.2761,4.2381,4.2231,4.2081,4.1632,4.1205,4.0846,4.042,4.0136,3.975,3.9143,3.841,3.7901,3.7586,3.7327,3.7074,3.6682,3.6484,3.6246,3.5858,3.5453,3.5086,3.4839,3.4605,3.4397,3.4397,3.4397,3.4397,3.4564,3.488,3.5003,3.5127,3.5345,3.5669,4.7572,4.7694,4.7412,4.6637,4.5669,4.5388,4.4864,4.4359,4.4275,4.4275,4.4247,4.4275,4.4275,4.4322,4.4509,4.4676,4.4769,4.4954,4.5092,4.5064,4.5155,4.5104,4.4977,4.4953,4.471,4.4338,4.4181,4.3965,4.3497,4.3458,4.3495,4.3278,4.333,4.3164,4.3027,4.308,4.3101,4.317,4.321,4.329,4.329,4.3319,4.3319,4.3319,4.3349,4.3349,4.3349,4.329,4.329,4.329,4.329,4.329,4.3409,4.3618,4.3858,4.3928,4.4287,4.4067,4.3439,4.3349,4.3379,4.3319,4.3319,4.329,4.329,4.3319,4.3319,4.329,4.329,4.329,4.329,4.329,4.329,4.329,4.329,4.329,4.329,4.329,4.329,4.329,4.329,4.306,4.2851,4.2791,4.2581,4.2231,4.1871,4.1602,4.0988,4.0398,4.001,3.9542,3.8748,3.7976,3.7634,3.7394,3.7208,3.6884,3.6607,3.6341,3.6006,3.5616,3.5371,3.5057,3.4797,3.4632,3.4439,3.4397,3.4397,3.4564,3.4797,3.4962,3.5127,3.5453,3.5669,4.6072,4.6057,4.6206,4.5629,4.4602,4.4387,4.4008,4.3546,4.3471,4.3423,4.3423,4.3519,4.3566,4.3614,4.3993,4.4209,4.4209,4.4555,4.4694,4.4741,4.4862,4.4879,4.4869,4.4915,4.4852,4.4424,4.4604,4.4435,4.431,4.4269,4.4296,4.3818,4.3801,4.3637,4.3296,4.3401,4.3623,4.3704,4.3867,4.3917,4.3928,4.3858,4.3858,4.3828,4.3768,4.3808,4.3838,4.3828,4.3858,4.3888,4.3917,4.3977,4.4007,4.4347,4.4556,4.4616,4.4915,4.4796,4.4227,4.3988,4.3768,4.3768,4.3778,4.3928,4.3589,4.3529,4.3379,4.3349,4.329,4.329,4.329,4.329,4.329,4.329,4.329,4.329,4.329,4.329,4.329,4.329,4.329,4.329,4.317,4.323,4.309,4.2731,4.2462,4.2291,4.1675,4.0904,4.0448,4.0073,3.963,3.8851,3.837,3.7973,3.7574,3.7254,3.6976,3.6819,3.6715,3.6253,3.583,3.5476,3.5148,3.4714,3.4439,3.4439,3.4397,3.4522,3.4688,3.4921,3.5168,3.5521,3.5751,4.4743,4.4026,4.4545,4.4685,4.4498,4.3705,4.3362,4.3211,4.3018,4.2922,4.297,4.3163,4.3259,4.3355,4.3471,4.3614,4.3662,4.3681,4.3804,4.3946,4.4162,4.4397,4.4537,4.4694,4.4943,4.4904,4.4892,4.4864,4.5001,4.4953,4.4673,4.4138,4.4208,4.4235,4.4115,4.4078,4.4359,4.4525,4.4762,4.4874,4.4945,4.4945,4.4975,4.5005,4.5065,4.5155,4.5155,4.4975,4.4915,4.4885,4.4855,4.4885,4.4825,4.5095,4.5214,4.5304,4.5484,4.5454,4.5214,4.4975,4.5035,4.5095,4.4975,4.4676,4.4287,4.4257,4.3988,4.3589,4.3708,4.3559,4.3469,4.3349,4.3618,4.3499,4.3529,4.3409,4.3379,4.329,4.329,4.329,4.329,4.329,4.329,4.329,4.329,4.3,4.297,4.2761,4.2303,4.1658,4.113,4.0761,4.0538,3.9993,3.9441,3.9019,3.8535,3.8199,3.7917,3.788,3.7827,3.7208,3.6454,3.5999,3.5626,3.5004,3.4585,3.4805,3.4842,3.457,3.4632,3.4974,3.5408,3.5857,3.5967,4.3637,4.3295,4.3116,4.3052,4.3025,4.2712,4.2582,4.2506,4.2435,4.2435,4.2435,4.2533,4.2582,4.2604,4.2825,4.2922,4.297,4.3307,4.3355,4.3519,4.3737,4.3851,4.3993,4.4087,4.4228,4.4443,4.4583,4.4769,4.4926,4.5138,4.524,4.4918,4.4705,4.4399,4.434,4.4453,4.468,4.4946,4.5114,4.5168,4.5274,4.5274,4.5274,4.5274,4.5274,4.5274,4.5274,4.5274,4.5274,4.5334,4.5364,4.5394,4.5514,4.5753,4.5903,4.5963,4.6202,4.6381,4.6232,4.5813,4.5304,4.5274,4.5244,4.5185,4.4945,4.4915,4.4825,4.4616,4.4466,4.4347,4.4526,4.4526,4.4526,4.4107,4.3868,4.3748,4.3589,4.3559,4.3439,4.3499,4.3379,4.329,4.329,4.329,4.329,4.326,4.326,4.32,4.2751,4.2384,4.1861,4.1429,4.1204,4.0675,4.0089,3.9734,3.9418,3.9191,3.8891,3.8727,3.8588,3.8006,3.7301,3.673,3.6226,3.5801,3.5509,3.546,3.526,3.491,3.491,3.508,3.5568,3.6165,3.6344,4.2605,4.2578,4.2054,4.1993,4.2092,4.2043,4.1967,4.1967,4.1895,4.1845,4.1895,4.1944,4.1967,4.2043,4.2239,4.2387,4.2484,4.2728,4.2873,4.3018,4.3088,4.3232,4.3328,4.3471,4.3689,4.3832,4.4021,4.4303,4.4537,4.4769,4.4915,4.5046,4.5162,4.4878,4.4821,4.4792,4.5022,4.5309,4.5522,4.5607,4.5806,4.5891,4.5963,4.5992,4.6022,4.6022,4.6052,4.6082,4.6052,4.6022,4.6022,4.5963,4.6082,4.6292,4.6561,4.677,4.698,4.7309,4.701,4.6591,4.5903,4.6052,4.6022,4.5873,4.5663,4.5603,4.5484,4.5185,4.5214,4.5304,4.5334,4.5125,4.5005,4.4646,4.4616,4.4496,4.4197,4.4077,4.3828,4.3708,4.3529,4.3319,4.3319,4.3319,4.329,4.329,4.329,4.329,4.314,4.2832,4.2574,4.2159,4.1814,4.124,4.0636,4.0457,4.0313,4.0094,3.9802,3.9354,3.9003,3.8516,3.797,3.7289,3.6864,3.6611,3.6279,3.5905,3.5521,3.5129,3.5342,3.5674,3.5976,3.6492,3.6865,4.1749,4.1723,4.1474,4.1647,4.1967,4.1845,4.1696,4.1696,4.1498,4.1348,4.1398,4.1597,4.1696,4.1746,4.1944,4.2043,4.2043,4.2141,4.2213,4.2311,4.2533,4.2533,4.2728,4.297,4.3163,4.3355,4.3546,4.3784,4.4021,4.435,4.4612,4.4936,4.5178,4.5483,4.5824,4.6003,4.6137,4.6196,4.6505,4.6577,4.6678,4.6821,4.6864,4.692,4.692,4.686,4.686,4.686,4.683,4.686,4.689,4.689,4.698,4.704,4.716,4.7219,4.7249,4.7309,4.7279,4.7219,4.707,4.695,4.68,4.6711,4.6369,4.6219,4.6142,4.5843,4.5603,4.5514,4.5394,4.5394,4.5454,4.5334,4.5304,4.5095,4.4825,4.4556,4.4377,4.4287,4.3738,4.3349,4.3349,4.3319,4.3319,4.329,4.329,4.329,4.329,4.316,4.2942,4.2654,4.2267,4.1957,4.1465,4.1303,4.114,4.0958,4.0562,3.9983,3.9615,3.9277,3.8624,3.7863,3.7493,3.7254,3.67,3.6149,3.6123,3.6123,3.6192,3.6418,3.6671,3.6934,3.732,4.1448,4.1398,4.1324,4.1298,4.1348,4.1398,4.1398,4.1398,4.1298,4.1324,4.1324,4.1424,4.1474,4.1448,4.1498,4.1597,4.1597,4.1796,4.1845,4.1895,4.2092,4.219,4.2338,4.2435,4.2631,4.2803,4.3018,4.3259,4.3546,4.3879,4.4237,4.4612,4.5138,4.5595,4.5821,4.6001,4.6046,4.6195,4.6373,4.655,4.6844,4.6975,4.7135,4.7266,4.7266,4.7266,4.7309,4.7309,4.7309,4.7309,4.7309,4.7309,4.7309,4.7309,4.7309,4.7309,4.7309,4.7309,4.7309,4.7279,4.7309,4.7309,4.7279,4.7189,4.698,4.698,4.68,4.6651,4.6441,4.6471,4.6651,4.6651,4.6561,4.6082,4.5903,4.5603,4.5334,4.5125,4.4975,4.4945,4.4646,4.4227,4.4037,4.3648,4.3529,4.3379,4.3379,4.3319,4.329,4.329,4.3091,4.2921,4.2662,4.2508,4.2269,4.1773,4.1438,4.1212,4.0845,4.0404,4.0062,3.9763,3.9169,3.8372,3.8114,3.7856,3.7358,3.6985,3.722,3.7318,3.7067,3.6946,3.7105,3.7475,3.7962,4.1147,4.1147,4.1047,4.0896,4.0846,4.1047,4.1097,4.1073,4.1023,4.0997,4.1023,4.1023,4.0997,4.1073,4.1123,4.1147,4.1224,4.1474,4.1547,4.1597,4.1746,4.1796,4.1845,4.1944,4.2092,4.2315,4.2511,4.2776,4.319,4.3451,4.3879,4.4443,4.5046,4.5413,4.5685,4.5821,4.5956,4.609,4.6225,4.6358,4.658,4.6756,4.6931,4.7062,4.7179,4.7179,4.7266,4.7309,4.7309,4.7309,4.7309,4.7309,4.7309,4.7309,4.7309,4.7309,4.7309,4.7309,4.7309,4.7309,4.7309,4.7309,4.7309,4.7309,4.7309,4.7249,4.7249,4.7219,4.7309,4.7279,4.7206,4.7266,4.7057,4.6548,4.6459,4.619,4.607,4.5891,4.5622,4.5592,4.5293,4.4964,4.4665,4.4157,4.3768,4.3618,4.3509,4.3409,4.3349,4.329,4.325,4.309,4.289,4.2648,4.2281,4.1814,4.1564,4.1396,4.0986,4.0559,4.0213,3.9842,3.9353,3.8872,3.8461,3.8156,3.7952,3.7821,3.7717,3.7665,3.7508,3.7513,3.7577,3.7851,3.8232,4.0896,4.0846,4.0593,4.0491,4.0542,4.0744,4.0694,4.0491,4.0491,4.0491,4.0517,4.0567,4.0593,4.0593,4.0795,4.0896,4.0896,4.1147,4.1198,4.1274,4.1298,4.1298,4.1398,4.1547,4.1696,4.1796,4.2043,4.2387,4.2852,4.3211,4.3689,4.4303,4.4862,4.523,4.5504,4.5685,4.5895,4.5956,4.609,4.6225,4.6358,4.6491,4.6668,4.6844,4.6931,4.7019,4.7106,4.7222,4.7266,4.7266,4.7309,4.7309,4.7309,4.7309,4.7309,4.7309,4.7309,4.7309,4.7309,4.7309,4.7309,4.7309,4.7266,4.7266,4.7309,4.7309,4.7309,4.7266,4.7266,4.7266,4.7266,4.7222,4.7149,4.703,4.703,4.691,4.6881,4.6672,4.6314,4.6045,4.5597,4.5257,4.5108,4.4732,4.4195,4.4116,4.3937,4.3688,4.3559,4.3319,4.328,4.321,4.301,4.2729,4.2322,4.1897,4.1564,4.1396,4.0986,4.0559,4.0257,3.9908,3.9424,3.9007,3.8692,3.8376,3.8037,3.79,3.7874,3.7821,3.7743,3.7717,3.7749,3.7892,3.8194,4.0593,4.0593,4.0491,4.0389,4.0185,4.0083,4.0185,4.0466,4.0517,4.0517,4.0517,4.0517,4.0466,4.0517,4.0542,4.0593,4.0643,4.0694,4.072,4.0821,4.0946,4.0997,4.1097,4.1248,4.1348,4.1498,4.1696,4.1993,4.2484,4.2846,4.3642,4.435,4.4676,4.5046,4.5367,4.5623,4.5685,4.5866,4.5956,4.6046,4.618,4.6269,4.6491,4.6624,4.6668,4.68,4.6975,4.7019,4.7062,4.7266,4.7309,4.7309,4.7309,4.7309,4.7309,4.7309,4.7309,4.7309,4.7309,4.7309,4.7309,4.7222,4.7135,4.7149,4.7222,4.7266,4.7266,4.7179,4.7092,4.7019,4.6975,4.6975,4.6931,4.6917,4.6887,4.6931,4.6872,4.6783,4.6442,4.6324,4.5878,4.5671,4.5522,4.5161,4.4686,4.462,4.4463,4.4146,4.3768,4.3529,4.3319,4.325,4.301,4.2729,4.2404,4.1951,4.1647,4.1354,4.0972,4.0559,4.0213,3.9821,3.9424,3.898,3.8557,3.8194,3.7992,3.79,3.79,3.79,3.7848,3.7874,3.7946,3.7965,3.8011,4.0338,4.0338,4.0185,4.0083,3.9929,3.98,3.9903,4.016,4.0185,4.0211,4.0211,4.0134,4.0211,4.0211,4.0313,4.0338,4.0338,4.0491,4.0567,4.0593,4.0694,4.0694,4.0846,4.0997,4.1097,4.1248,4.1398,4.1696,4.2115,4.2798,4.3594,4.4068,4.4397,4.4844,4.5167,4.5321,4.5504,4.5685,4.585,4.5956,4.6046,4.609,4.6225,4.6403,4.6447,4.658,4.6756,4.6756,4.6887,4.7106,4.7179,4.7222,4.7266,4.7309,4.7309,4.7309,4.7309,4.7309,4.7309,4.7309,4.7266,4.7179,4.6975,4.6975,4.6931,4.6961,4.6961,4.6961,4.6844,4.6756,4.6712,4.6668,4.6624,4.6653,4.6653,4.6653,4.6624,4.6624,4.6594,4.6565,4.6358,4.6122,4.5798,4.5483,4.52,4.5094,4.4911,4.4649,4.4195,4.3698,4.3469,4.329,4.297,4.2688,4.2363,4.2034,4.1647,4.1311,4.0972,4.0559,4.017,3.9821,3.9513,3.889,3.8239,3.8083,3.79,3.79,3.79,3.79,3.79,3.79,3.79,3.7946,3.7946,4.0083,4.0083,3.9775,3.9749,3.9697,3.9697,3.9697,3.9697,3.9749,3.9697,3.9749,3.9749,3.9749,3.9852,4.0006,4.0083,4.0083,4.0236,4.0313,4.0466,4.044,4.0491,4.0542,4.0744,4.0946,4.1047,4.1198,4.1498,4.1895,4.2533,4.3259,4.3566,4.4115,4.4518,4.4797,4.5,4.523,4.5458,4.564,4.5776,4.5866,4.594,4.5985,4.6135,4.6225,4.6314,4.6491,4.658,4.6668,4.68,4.6931,4.7019,4.7179,4.7222,4.7266,4.7309,4.7309,4.7266,4.7222,4.7193,4.7062,4.6975,4.6844,4.6712,4.6668,4.6741,4.6785,4.6741,4.6624,4.658,4.6491,4.6403,4.6358,4.6358,4.6358,4.6358,4.6358,4.6358,4.6358,4.6329,4.6299,4.6123,4.6065,4.5712,4.5652,4.5548,4.5352,4.5107,4.4775,4.4173,4.3807,4.3578,4.3237,4.2953,4.2444,4.2075,4.1606,4.1269,4.1,4.0516,4.0126,3.9821,3.9557,3.8935,3.8285,3.8083,3.7946,3.79,3.79,3.79,3.79,3.79,3.79,3.7946,3.7965,3.9775,3.98,3.9749,3.9697,3.9697,3.9697,3.9697,3.9697,3.9697,3.9697,3.9697,3.9697,3.9697,3.9749,3.98,3.9826,3.9826,4.003,3.9928,4.0082,4.0185,4.044,4.0364,4.0798,4.0898,4.0997,4.1198,4.1605,4.1981,4.257,4.2976,4.3218,4.3827,4.4338,4.464,4.4874,4.5107,4.5367,4.5505,4.578,4.5978,4.5953,4.5911,4.5956,4.6001,4.609,4.6225,4.6314,4.6447,4.6624,4.6668,4.68,4.6975,4.7019,4.7106,4.7266,4.7266,4.7179,4.7062,4.6975,4.6887,4.6668,4.6535,4.6403,4.6358,4.6491,4.6535,4.6491,4.6447,4.6358,4.6269,4.618,4.609,4.609,4.609,4.609,4.609,4.609,4.609,4.609,4.609,4.609,4.6106,4.6092,4.6093,4.5889,4.5681,4.5457,4.5322,4.4976,4.4578,4.4221,4.376,4.3366,4.2837,4.2366,4.2008,4.1582,4.1326,4.0755,4.0166,3.9936,3.9699,3.8953,3.8376,3.8254,3.8077,3.79,3.79,3.79,3.79,3.79,3.7965,3.8011,3.8076,3.9697,3.9697,3.9697,3.9697,3.9697,3.9697,3.9697,3.9697,3.9697,3.9697,3.9697,3.9697,3.9697,3.9697,3.9697,3.9747,3.9798,3.9973,4.0126,4.0203,4.0354,4.0686,4.0819,4.1002,4.1363,4.1492,4.1903,4.2261,4.2433,4.2841,4.3218,4.3584,4.4123,4.4436,4.4753,4.5116,4.5298,4.5619,4.5628,4.5909,4.6212,4.6044,4.5863,4.5821,4.594,4.5956,4.6001,4.609,4.6225,4.6403,4.6535,4.6624,4.6756,4.6756,4.6873,4.6887,4.6931,4.6917,4.68,4.6756,4.6668,4.6447,4.6314,4.6225,4.609,4.6209,4.6209,4.6135,4.6135,4.609,4.6046,4.6001,4.5985,4.5956,4.5956,4.5985,4.5985,4.5956,4.5956,4.5956,4.5956,4.5956,4.6001,4.6001,4.6003,4.5974,4.5801,4.5845,4.5756,4.5636,4.5289,4.4959,4.4482,4.4103,4.3814,4.3222,4.2582,4.2137,4.1737,4.1427,4.1024,4.0386,3.9833,3.9379,3.8925,3.8569,3.8405,3.8234,3.7952,3.79,3.79,3.7946,3.8064,3.8326,3.8436,3.9697,3.9697,3.9697,3.9697,3.9697,3.9697,3.9697,3.9697,3.9697,3.9747,3.9848,3.9848,3.9798,3.9798,3.9798,3.9848,4.0049,4.045,4.0601,4.0727,4.1028,4.1056,4.1238,4.1524,4.1819,4.211,4.2502,4.2814,4.3098,4.3303,4.3661,4.4307,4.4614,4.4761,4.5266,4.5536,4.5665,4.5853,4.6019,4.6449,4.6396,4.6182,4.6039,4.5991,4.5937,4.5937,4.5924,4.5911,4.6001,4.6135,4.6358,4.6447,4.6535,4.6535,4.658,4.6668,4.6712,4.6653,4.6535,4.6535,4.6403,4.6225,4.618,4.609,4.5956,4.594,4.594,4.594,4.594,4.594,4.594,4.5895,4.5895,4.5895,4.5895,4.5895,4.5895,4.5895,4.5895,4.5895,4.5895,4.5895,4.5895,4.5895,4.5911,4.5956,4.6001,4.609,4.6107,4.6006,4.5829,4.5577,4.5226,4.4918,4.4507,4.3976,4.317,4.2794,4.2433,4.2211,4.1872,4.1124,4.051,4.0228,3.9767,3.9315,3.8924,3.8751,3.8417,3.8234,3.8536,3.874,3.88,3.9011,3.9074,3.9697,3.9697,3.9697,3.9697,3.9722,3.9722,3.9697,3.9697,3.9747,3.9923,4.0275,4.0375,4.0375,4.0375,4.035,4.0475,4.0777,4.105,4.11,4.12,4.148,4.1376,4.1509,4.19,4.21,4.2444,4.2785,4.2866,4.3389,4.3467,4.3516,4.3802,4.4238,4.4492,4.4769,4.5098,4.5508,4.5785,4.6033,4.6329,4.6538,4.6452,4.6565,4.6465,4.6299,4.6119,4.5995,4.5895,4.594,4.5956,4.6117,4.631,4.6429,4.6548,4.6593,4.6579,4.6623,4.6461,4.6417,4.6314,4.6135,4.6046,4.6001,4.6001,4.594,4.594,4.594,4.594,4.594,4.594,4.5895,4.5895,4.5895,4.5895,4.5895,4.5895,4.5895,4.5895,4.5895,4.5895,4.5895,4.5895,4.5895,4.5895,4.5895,4.5911,4.5911,4.6001,4.6001,4.6106,4.6211,4.6006,4.5815,4.5186,4.4571,4.4398,4.3819,4.3455,4.3085,4.2817,4.2361,4.1691,4.1202,4.1005,4.0588,4.0059,3.9738,3.9297,3.9223,3.9118,3.9517,3.9717,3.9773,3.9821,3.9957]}]]